[[{"header":{"parameterUnit":"m.s-1","parameterCategory":1,"la1":30.6,"la2":28.766,"lo1":-90.7593,"lo2":-88.6598,"dx":0.0162,"dy":0.0183,"nx":116,"ny":114,"refTime":"2022-11-09T06:00:00:Z","depth":0,"parameterNumber":2,"parameterNumberName":"U-component_of_WINDS"},"data":[0.0,0.0,0.0,0.0,0.0,0.0,0.0,0.0,0.0,0.0,0.0,0.0,0.0,0.0,0.0,0.0,0.0,0.0,0.0,0.0,0.0,0.0,0.0,0.0,0.0,0.0,0.0,0.0,0.0,0.0,0.0,0.0,0.0,0.0,0.0,0.0,0.0,0.0,0.0,0.0,0.0,0.0,0.0,0.0,0.0,0.0,0.0,0.0,0.0,0.0,0.0,0.0,0.0,0.0,0.0,0.0,0.0,0.0,0.0,0.0,0.0,0.0,0.0,0.0,0.0,0.0,0.0,0.0,0.0,0.0,0.0,0.0,0.0,0.0,0.0,0.0,0.0,0.0,0.0,0.0,0.0,0.0,0.0,0.0,0.0,0.0,0.0,0.0,0.0,0.0,0.0,0.0,0.0,0.0,0.0,0.0,0.0,0.0,0.0,0.0,0.0,0.0,0.0,0.0,0.0,0.0,0.0,0.0,0.0,0.0,0.0,0.0,0.0,0.0,0.0,0.0,0.0,0.0,0.0,0.0,0.0,0.0,0.0,0.0,0.0,0.0,0.0,0.0,0.0,0.0,0.0,0.0,0.0,0.0,0.0,0.0,0.0,0.0,0.0,0.0,0.0,0.0,0.0,0.0,0.0,0.0,0.0,0.0,0.0,0.0,0.0,0.0,0.0,0.0,0.0,0.0,0.0,0.0,0.0,0.0,0.0,0.0,0.0,0.0,0.0,0.0,0.0,0.0,0.0,0.0,0.0,0.0,0.0,0.0,0.0,0.0,0.0,0.0,0.0,0.0,0.0,0.0,0.0,0.0,0.0,0.0,0.0,0.0,0.0,0.0,0.0,0.0,0.0,0.0,0.0,0.0,0.0,0.0,0.0,0.0,0.0,0.0,0.0,0.0,0.0,0.0,0.0,0.0,0.0,0.0,0.0,0.0,0.0,0.0,0.0,0.0,0.0,0.0,0.0,0.0,0.0,0.0,0.0,0.0,0.0,0.0,0.0,0.0,0.0,0.0,0.0,0.0,0.0,0.0,0.0,0.0,0.0,0.0,0.0,0.0,0.0,0.0,0.0,0.0,0.0,0.0,0.0,0.0,0.0,0.0,0.0,0.0,0.0,0.0,0.0,0.0,0.0,0.0,0.0,0.0,0.0,0.0,0.0,0.0,0.0,0.0,0.0,0.0,0.0,0.0,0.0,0.0,0.0,0.0,0.0,0.0,0.0,0.0,0.0,0.0,0.0,0.0,0.0,0.0,0.0,0.0,0.0,0.0,0.0,0.0,0.0,0.0,0.0,0.0,0.0,0.0,0.0,0.0,0.0,0.0,0.0,0.0,0.0,0.0,0.0,0.0,0.0,0.0,0.0,0.0,0.0,0.0,0.0,0.0,0.0,0.0,0.0,0.0,0.0,0.0,0.0,0.0,0.0,0.0,0.0,0.0,0.0,0.0,0.0,0.0,0.0,0.0,0.0,0.0,0.0,0.0,0.0,0.0,0.0,0.0,0.0,0.0,0.0,0.0,0.0,0.0,0.0,0.0,0.0,0.0,0.0,0.0,0.0,0.0,0.0,0.0,0.0,0.0,0.0,0.0,0.0,0.0,0.0,0.0,0.0,0.0,0.0,0.0,0.0,0.0,0.0,0.0,0.0,0.0,0.0,0.0,0.0,0.0,0.0,0.0,0.0,0.0,0.0,0.0,0.0,0.0,0.0,0.0,0.0,0.0,0.0,0.0,0.0,0.0,0.0,0.0,0.0,0.0,0.0,0.0,0.0,0.0,0.0,0.0,0.0,0.0,0.0,0.0,0.0,0.0,0.0,0.0,0.0,0.0,0.0,0.0,0.0,0.0,0.0,0.0,0.0,0.0,0.0,0.0,0.0,0.0,0.0,0.0,0.0,0.0,0.0,0.0,0.0,0.0,0.0,0.0,0.0,0.0,0.0,0.0,0.0,0.0,0.0,0.0,0.0,0.0,0.0,0.0,0.0,0.0,0.0,0.0,0.0,0.0,0.0,0.0,0.0,0.0,0.0,0.0,0.0,0.0,0.0,0.0,0.0,0.0,0.0,0.0,0.0,0.0,0.0,0.0,0.0,0.0,0.0,0.0,0.0,0.0,0.0,0.0,0.0,0.0,0.0,0.0,0.0,0.0,0.0,0.0,0.0,0.0,0.0,0.0,0.0,0.0,0.0,0.0,0.0,0.0,0.0,0.0,0.0,0.0,0.0,0.0,0.0,0.0,0.0,0.0,0.0,0.0,0.0,0.0,0.0,0.0,0.0,0.0,0.0,0.0,0.0,0.0,0.0,0.0,0.0,0.0,0.0,0.0,0.0,0.0,0.0,0.0,0.0,0.0,0.0,0.0,0.0,0.0,0.0,0.0,0.0,0.0,0.0,0.0,0.0,0.0,0.0,0.0,0.0,0.0,0.0,0.0,0.0,0.0,0.0,0.0,0.0,0.0,0.0,0.0,0.0,0.0,0.0,0.0,0.0,0.0,0.0,0.0,0.0,0.0,0.0,0.0,0.0,0.0,0.0,0.0,0.0,0.0,0.0,0.0,0.0,0.0,0.0,0.0,0.0,0.0,0.0,0.0,0.0,0.0,0.0,0.0,0.0,0.0,0.0,0.0,0.0,0.0,0.0,0.0,0.0,0.0,0.0,0.0,0.0,0.0,0.0,0.0,0.0,0.0,0.0,0.0,0.0,0.0,0.0,0.0,0.0,0.0,0.0,0.0,0.0,0.0,0.0,0.0,0.0,0.0,0.0,0.0,0.0,0.0,0.0,0.0,0.0,0.0,0.0,0.0,0.0,0.0,0.0,0.0,0.0,0.0,0.0,0.0,0.0,0.0,0.0,0.0,0.0,0.0,0.0,0.0,0.0,0.0,0.0,0.0,0.0,0.0,0.0,0.0,0.0,0.0,0.0,0.0,0.0,0.0,0.0,0.0,0.0,0.0,0.0,0.0,0.0,0.0,0.0,0.0,0.0,0.0,0.0,0.0,0.0,0.0,0.0,0.0,0.0,0.0,0.0,0.0,0.0,0.0,0.0,0.0,0.0,0.0,0.0,0.0,0.0,0.0,0.0,0.0,0.0,0.0,0.0,0.0,0.0,0.0,0.0,0.0,0.0,0.0,0.0,0.0,0.0,0.0,0.0,0.0,0.0,0.0,0.0,0.0,0.0,0.0,0.0,0.0,0.0,0.0,0.0,0.0,0.0,0.0,0.0,0.0,0.0,0.0,0.0,0.0,0.0,0.0,0.0,0.0,0.0,0.0,0.0,0.0,0.0,0.0,0.0,0.0,0.0,0.0,0.0,0.0,0.0,0.0,0.0,0.0,0.0,0.0,0.0,0.0,0.0,0.0,0.0,0.0,0.0,0.0,0.0,0.0,0.0,0.0,0.0,0.0,0.0,0.0,0.0,0.0,0.0,0.0,0.0,0.0,0.0,0.0,0.0,0.0,0.0,0.0,0.0,0.0,0.0,0.0,0.0,0.0,0.0,0.0,0.0,0.0,0.0,0.0,0.0,0.0,0.0,0.0,0.0,0.0,0.0,0.0,0.0,0.0,0.0,0.0,0.0,0.0,0.0,0.0,0.0,0.0,0.0,0.0,0.0,0.0,0.0,0.0,0.0,0.0,0.0,0.0,0.0,0.0,0.0,0.0,0.0,0.0,0.0,0.0,0.0,0.0,0.0,0.0,0.0,0.0,0.0,0.0,0.0,0.0,0.0,0.0,0.0,0.0,0.0,0.0,0.0,0.0,0.0,0.0,0.0,0.0,0.0,0.0,0.0,0.0,0.0,0.0,0.0,0.0,0.0,0.0,0.0,0.0,0.0,0.0,0.0,0.0,0.0,0.0,0.0,0.0,0.0,0.0,0.0,0.0,0.0,0.0,0.0,0.0,0.0,0.0,0.0,0.0,0.0,0.0,0.0,0.0,0.0,0.0,0.0,0.0,0.0,0.0,0.0,0.0,0.0,0.0,0.0,0.0,0.0,0.0,0.0,0.0,0.0,0.0,0.0,0.0,0.0,0.0,0.0,0.0,0.0,0.0,0.0,0.0,0.0,0.0,0.0,0.0,0.0,0.0,0.0,0.0,0.0,0.0,0.0,0.0,0.0,0.0,0.0,0.0,0.0,0.0,0.0,0.0,0.0,0.0,0.0,0.0,0.0,0.0,0.0,0.0,0.0,0.0,0.0,0.0,0.0,0.0,0.0,0.0,0.0,0.0,0.0,0.0,0.0,0.0,0.0,0.0,0.0,0.0,0.0,0.0,0.0,0.0,0.0,0.0,0.0,0.0,0.0,0.0,0.0,0.0,0.0,0.0,0.0,0.0,0.0,0.0,0.0,0.0,0.0,0.0,0.0,0.0,0.0,0.0,0.0,0.0,0.0,0.0,0.0,0.0,0.0,0.0,0.0,0.0,0.0,0.0,0.0,0.0,0.0,0.0,0.0,0.0,0.0,0.0,0.0,0.0,0.0,0.0,0.0,0.0,0.0,0.0,0.0,0.0,0.0,0.0,0.0,0.0,0.0,0.0,0.0,0.0,0.0,0.0,0.0,0.0,0.0,0.0,0.0,0.0,0.0,0.0,0.0,0.0,0.0,0.0,0.0,0.0,0.0,0.0,0.0,0.0,0.0,0.0,0.0,0.0,0.0,0.0,0.0,0.0,0.0,0.0,0.0,0.0,0.0,0.0,0.0,0.0,0.0,0.0,0.0,0.0,0.0,0.0,0.0,0.0,0.0,0.0,0.0,0.0,0.0,0.0,0.0,0.0,0.0,0.0,0.0,0.0,0.0,0.0,0.0,0.0,0.0,0.0,0.0,0.0,0.0,0.0,0.0,0.0,0.0,0.0,0.0,0.0,0.0,0.0,0.0,0.0,0.0,0.0,0.0,0.0,0.0,0.0,0.0,0.0,0.0,0.0,0.0,0.0,0.0,0.0,0.0,0.0,0.0,0.0,0.0,0.0,0.0,0.0,0.0,0.0,0.0,0.0,0.0,0.0,0.0,0.0,0.0,0.0,0.0,0.0,0.0,0.0,0.0,0.0,0.0,0.0,0.0,0.0,0.0,0.0,0.0,0.0,0.0,0.0,0.0,0.0,0.0,0.0,0.0,0.0,0.0,0.0,0.0,0.0,0.0,0.0,0.0,0.0,0.0,0.0,0.0,0.0,0.0,0.0,0.0,0.0,0.0,0.0,0.0,0.0,0.0,0.0,0.0,0.0,0.0,0.0,0.0,0.0,0.0,0.0,0.0,0.0,0.0,0.0,0.0,0.0,0.0,0.0,0.0,0.0,0.0,0.0,0.0,0.0,0.0,0.0,0.0,0.0,0.0,0.0,0.0,0.0,0.0,0.0,0.0,0.0,0.0,0.0,0.0,0.0,0.0,0.0,0.0,0.0,0.0,0.0,0.0,0.0,0.0,0.0,0.0,0.0,0.0,0.0,0.0,0.0,0.0,0.0,0.0,0.0,0.0,0.0,0.0,0.0,0.0,0.0,0.0,0.0,0.0,0.0,0.0,0.0,0.0,0.0,0.0,0.0,0.0,0.0,0.0,0.0,0.0,0.0,0.0,0.0,0.0,0.0,0.0,0.0,0.0,0.0,0.0,0.0,0.0,0.0,0.0,0.0,0.0,0.0,0.0,0.0,0.0,0.0,0.0,0.0,0.0,0.0,0.0,0.0,0.0,0.0,0.0,0.0,0.0,0.0,0.0,0.0,0.0,0.0,0.0,0.0,0.0,0.0,0.0,0.0,0.0,0.0,0.0,0.0,0.0,0.0,0.0,0.0,0.0,0.0,0.0,0.0,0.0,0.0,0.0,0.0,0.0,0.0,0.0,0.0,0.0,0.0,0.0,0.0,0.0,0.0,0.0,0.0,0.0,0.0,0.0,0.0,0.0,0.0,0.0,0.0,0.0,0.0,0.0,0.0,0.0,0.0,0.0,0.0,0.0,0.0,0.0,0.0,0.0,0.0,0.0,0.0,0.0,0.0,0.0,0.0,0.0,0.0,0.0,0.0,0.0,0.0,0.0,0.0,0.0,0.0,0.0,0.0,0.0,0.0,0.0,0.0,0.0,0.0,0.0,0.0,0.0,0.0,3.6034,3.1611,0.0,0.0,0.0,0.0,0.0,0.0,0.0,0.0,0.0,0.0,0.0,0.0,0.0,0.0,0.0,0.0,0.0,0.0,0.0,0.0,0.0,0.0,0.0,1.5135,1.5276,1.5276,1.5527,0.0,0.0,0.0,0.0,0.0,0.0,0.0,0.0,0.0,1.7139,1.7704,1.9026,2.0968,2.3442,2.1947,2.1185,2.1063,0.0,0.0,0.0,0.0,0.0,0.0,0.0,0.0,0.0,0.0,0.0,0.0,0.0,0.0,0.0,0.0,0.0,0.0,0.0,0.0,0.0,0.0,0.0,0.0,0.0,0.0,0.0,0.0,0.0,0.0,0.0,0.0,0.0,0.0,0.0,0.0,0.0,0.0,0.0,0.0,0.0,0.0,0.0,0.0,0.0,0.0,0.0,0.0,0.0,0.0,0.0,0.0,0.0,0.0,0.0,0.0,0.0,0.0,0.0,0.0,0.0,0.0,0.0,0.0,0.0,0.0,0.0,0.0,0.0,0.0,3.8482,3.5985,0.0,0.0,0.0,0.0,0.0,0.0,0.0,0.0,0.0,0.0,0.0,0.0,0.0,0.0,0.0,0.0,0.0,0.0,0.0,0.0,0.0,1.5095,1.516,1.5678,1.6005,1.6005,1.6497,1.6812,1.6812,1.6812,0.0,0.0,0.0,0.0,1.7663,1.7688,1.8405,1.986,2.2121,2.4397,2.6615,2.6716,2.5887,2.4264,2.2389,0.0,0.0,0.0,0.0,0.0,0.0,0.0,0.0,0.0,0.0,0.0,0.0,0.0,0.0,0.0,0.0,0.0,0.0,0.0,0.0,0.0,0.0,0.0,0.0,0.0,0.0,0.0,0.0,0.0,0.0,0.0,0.0,0.0,0.0,0.0,0.0,0.0,0.0,0.0,0.0,0.0,0.0,0.0,0.0,0.0,0.0,0.0,0.0,0.0,0.0,0.0,0.0,0.0,0.0,0.0,0.0,0.0,0.0,0.0,0.0,0.0,0.0,0.0,4.1713,4.2152,4.278,4.278,4.308,4.3459,4.0894,4.0834,4.2182,3.7225,0.0,0.0,0.0,0.0,0.0,0.0,0.0,0.0,0.0,0.0,0.0,0.0,0.0,0.0,0.0,0.0,0.0,0.0,0.0,1.5768,1.6235,1.6834,1.7197,1.7197,1.7677,1.7966,1.7966,1.7966,0.0,0.0,0.0,0.0,1.8782,1.8782,2.0262,2.3351,2.7871,3.0281,3.0653,3.111,3.1185,3.0798,2.7274,2.4567,2.2661,0.0,0.0,0.0,0.0,0.0,0.0,0.0,0.0,0.0,0.0,0.0,0.0,0.0,0.0,0.0,0.0,0.0,0.0,0.0,0.0,0.0,0.0,0.0,0.0,0.0,0.0,0.0,0.0,0.0,0.0,0.0,0.0,0.0,0.0,0.0,0.0,0.0,0.0,0.0,0.0,0.0,2.9894,3.4083,0.0,0.0,0.0,0.0,0.0,0.0,0.0,0.0,0.0,0.0,0.0,0.0,0.0,4.0355,4.1602,4.297,4.4566,4.6411,4.698,4.76,4.8259,4.8259,4.8289,4.8259,4.6172,0.0,4.313,4.2333,0.0,0.0,0.0,0.0,0.0,0.0,0.0,0.0,0.0,0.0,0.0,0.0,0.0,0.0,0.0,0.0,0.0,0.0,0.0,0.0,0.0,1.8341,1.9258,1.9258,2.0603,2.1066,2.0112,2.0338,0.0,0.0,0.0,1.951,2.0388,2.1329,2.3904,2.8147,3.0633,3.2491,3.3699,3.395,3.4226,3.4497,3.2813,2.9949,2.6355,2.6355,0.0,0.0,0.0,0.0,0.0,0.0,0.0,0.0,0.0,0.0,0.0,0.0,0.0,0.0,0.0,0.0,0.0,0.0,0.0,0.0,0.0,0.0,0.0,0.0,0.0,0.0,0.0,0.0,0.0,0.0,0.0,0.0,0.0,0.0,0.0,0.0,0.0,0.0,0.0,3.0253,3.2796,3.6656,3.6254,3.5356,0.0,0.0,0.0,0.0,0.0,0.0,0.0,0.0,0.0,4.319,4.321,4.4157,4.6274,4.6822,4.757,4.8438,4.9075,4.9501,4.9823,5.0212,5.0571,5.0863,4.9613,4.8753,4.8065,4.5104,4.3579,4.297,0.0,0.0,0.0,0.0,3.9128,3.899,0.0,0.0,0.0,0.0,0.0,0.0,0.0,0.0,0.0,0.0,0.0,0.0,1.8253,2.0465,2.1898,2.1758,2.3517,2.3995,2.2462,2.2723,2.2257,2.0701,2.0626,2.1192,2.2322,2.4682,2.7896,3.2039,3.2867,3.4123,3.5732,3.5882,3.6158,3.6607,3.6758,3.4324,3.0186,3.0186,2.8355,2.5435,0.0,0.0,0.0,0.0,0.0,0.0,0.0,0.0,0.0,0.0,0.0,0.0,0.0,0.0,0.0,0.0,0.0,0.0,0.0,0.0,0.0,0.0,0.0,0.0,0.0,0.0,0.0,0.0,0.0,0.0,0.0,0.0,0.0,0.0,0.0,0.0,0.0,3.4592,3.6237,3.9529,3.9547,3.8931,0.0,0.0,0.0,0.0,0.0,0.0,4.3319,4.293,4.4077,4.7198,4.6809,4.7578,4.9756,4.9786,4.9875,5.0055,5.0511,5.0817,5.0996,5.1475,5.1977,5.2426,5.1947,5.1917,5.1858,4.7557,4.6022,4.6172,4.4655,4.3369,4.2481,4.314,4.308,4.2851,0.0,0.0,0.0,0.0,0.0,0.0,0.0,0.0,0.0,0.0,0.0,2.0515,2.0515,2.3417,2.5159,2.4641,2.5678,2.5879,2.4716,2.4666,2.4148,2.2995,2.2945,2.3471,2.4616,2.8825,3.1913,3.3771,3.5401,3.6254,3.638,3.6884,3.7135,3.7185,3.7688,3.6332,3.3646,3.3646,3.2039,2.9352,2.7763,0.0,0.0,0.0,0.0,0.0,0.0,0.0,0.0,0.0,0.0,0.0,0.0,0.0,0.0,0.0,0.0,0.0,0.0,0.0,0.0,0.0,0.0,0.0,0.0,0.0,0.0,0.0,0.0,0.0,0.0,0.0,0.0,0.0,0.0,0.0,0.0,0.0,0.0,4.3609,4.5613,0.0,0.0,0.0,0.0,4.307,4.2571,4.3409,4.5971,4.6061,4.7287,4.9897,4.9956,5.0338,5.1086,5.1086,5.1439,5.2037,5.2097,5.2426,5.3049,5.3079,5.3109,5.3169,5.3109,5.2755,5.2067,5.0548,4.9613,4.8887,4.692,4.5702,4.5185,4.5852,4.6091,4.633,0.0,0.0,0.0,0.0,0.0,1.5603,1.6134,1.6697,1.716,1.7361,1.9635,2.1356,2.1694,2.5008,2.725,2.7426,2.9472,2.9974,2.8147,2.8329,2.7702,2.5887,2.546,2.6615,2.9509,3.2144,3.4525,3.6533,3.7136,3.7813,3.8542,3.9069,3.9521,3.9847,4.0048,3.9571,3.8567,3.7137,3.5152,3.2918,3.2294,3.0005,0.0,0.0,0.0,0.0,0.0,0.0,0.0,0.0,0.0,0.0,0.0,0.0,0.0,0.0,0.0,0.0,0.0,0.0,0.0,0.0,0.0,0.0,0.0,0.0,0.0,0.0,0.0,0.0,0.0,0.0,0.0,0.0,0.0,0.0,0.0,0.0,0.0,4.3369,4.5065,0.0,4.4736,4.46,4.5084,4.6429,4.6845,4.8129,5.0607,4.9651,4.9964,5.2073,5.101,5.1074,5.2486,5.1748,5.1866,5.2845,5.2491,5.2871,5.3862,5.4281,5.4486,5.4486,5.4486,5.4102,5.3414,5.2516,5.1259,4.9793,4.8656,4.8327,4.8544,4.9202,4.971,5.0272,0.0,0.0,0.0,0.0,1.5452,1.5944,1.6697,1.7135,1.7738,1.8668,2.1181,2.3226,2.4164,2.7745,3.0131,3.0306,3.219,3.2512,3.0457,3.0487,2.9704,2.7663,2.7939,2.9773,3.3248,3.4778,3.6458,3.8291,3.8492,3.8969,3.9697,4.0249,4.0675,4.1051,4.1227,4.1302,4.1202,3.9721,3.804,3.6309,3.5556,3.3068,2.9654,0.0,0.0,0.0,0.0,0.0,0.0,0.0,0.0,0.0,0.0,0.0,0.0,0.0,0.0,0.0,0.0,0.0,0.0,0.0,0.0,0.0,0.0,0.0,0.0,0.0,0.0,0.0,0.0,0.0,0.0,0.0,0.0,0.0,0.0,4.0516,4.2385,4.3323,4.5217,4.6181,4.5581,4.5681,4.6598,4.8606,4.9102,5.0067,5.1921,5.0894,5.0901,5.2298,5.1183,5.1359,5.2946,5.2197,5.2313,5.3268,5.2895,5.339,5.4594,5.5008,5.5359,5.5564,5.5564,5.5029,5.4192,5.3713,5.2636,5.1116,5.0272,5.0182,5.0607,5.1026,5.1498,5.1947,0.0,0.0,0.0,1.5603,1.5718,1.6095,1.7236,1.7412,1.8417,2.1181,2.3904,2.6239,2.7971,3.1587,3.3671,3.3165,3.3668,3.3244,3.1562,3.0984,2.9955,2.8273,3.0357,3.2817,3.5483,3.6684,3.7838,3.8969,3.9522,3.9772,3.9823,4.0375,4.0625,4.065,4.1177,4.1403,4.1403,4.1403,4.0775,3.9597,3.7412,3.5203,3.3014,0.0,0.0,0.0,0.0,0.0,0.0,0.0,0.0,0.0,0.0,0.0,0.0,0.0,0.0,0.0,0.0,0.0,0.0,0.0,0.0,0.0,0.0,0.0,0.0,0.0,0.0,0.0,0.0,0.0,0.0,0.0,0.0,0.0,4.0323,4.32,4.4874,4.39,4.6628,4.8406,4.7968,4.7925,4.843,4.9634,4.9078,4.8996,4.9746,4.9721,5.0028,5.0751,5.0752,5.1286,5.2491,5.2491,5.2799,5.3388,5.3359,5.4006,5.5249,5.5249,5.555,5.6119,5.6115,5.5368,5.4172,5.4197,5.3803,5.3079,5.1768,5.1265,5.1295,5.1265,5.1265,5.1265,0.0,0.0,1.5527,1.5668,1.6019,1.6547,1.7297,1.7738,1.8957,2.1719,2.413,2.654,2.9051,3.1733,3.3416,3.3646,3.4924,3.4823,3.2763,3.2842,3.224,3.0557,3.3395,3.5554,3.6709,3.8216,3.9546,4.0625,4.123,4.1708,4.211,4.3037,4.346,4.346,4.3636,4.3686,4.3661,4.3259,4.271,4.1934,4.0124,3.8291,3.6508,0.0,0.0,0.0,0.0,0.0,0.0,0.0,0.0,0.0,0.0,0.0,0.0,0.0,0.0,0.0,0.0,0.0,0.0,0.0,0.0,0.0,0.0,0.0,0.0,0.0,0.0,0.0,0.0,0.0,0.0,0.0,4.0758,4.1367,4.1646,4.2871,4.426,4.584,4.7249,4.8195,4.8455,4.82,4.8728,5.0306,4.9308,4.9419,5.1293,5.0571,5.0788,5.2268,5.1731,5.1868,5.2769,5.2198,5.2281,5.3019,5.2446,5.279,5.3922,5.3922,5.4032,5.4192,5.463,5.4331,5.3594,5.4021,5.3803,5.3169,5.2785,5.2965,5.3324,5.2815,5.2636,5.2636,0.0,1.5849,1.6045,1.6045,1.6285,1.6787,1.7613,1.8003,1.9535,2.3201,2.5025,2.7311,3.0803,3.2717,3.3997,3.4527,3.5052,3.4698,3.319,3.3144,3.337,3.3818,3.5906,3.7437,3.8216,4.0099,4.1279,4.1681,4.2685,4.3363,4.3689,4.4288,4.4589,4.4589,4.4589,4.4589,4.4564,4.4292,4.3966,4.3564,4.2359,4.0325,3.7939,3.7312,3.5906,3.4123,3.3244,3.2982,3.2925,3.1897,0.0,0.0,0.0,0.0,0.0,0.0,0.0,0.0,0.0,0.0,0.0,0.0,0.0,0.0,0.0,0.0,0.0,0.0,0.0,0.0,0.0,0.0,0.0,0.0,4.2311,4.3177,4.3377,4.4401,4.5445,4.6334,4.7217,4.7776,4.7731,4.753,4.79,4.9136,4.8724,4.8977,5.0311,4.9935,5.0194,5.1194,5.0777,5.088,5.157,5.1356,5.1686,5.2533,5.2288,5.285,5.4167,5.4167,5.4127,5.4174,5.4515,5.4468,5.4171,5.4534,5.4747,5.4725,0.0,0.0,0.0,0.0,5.3198,5.3198,1.6585,1.6586,1.65,1.65,1.65,1.6887,1.8016,1.8204,2.0012,2.5034,2.6172,2.8209,3.2713,3.4098,3.4929,3.5458,3.4628,3.3847,3.3316,3.2893,3.4022,3.7085,3.7839,3.8718,3.9848,4.1934,4.2788,4.2361,4.394,4.469,4.469,4.4765,4.479,4.479,4.479,4.479,4.479,4.479,4.474,4.464,4.4192,4.1781,3.8467,3.8417,3.7062,3.5205,3.4726,3.455,3.4472,3.3943,0.0,0.0,0.0,0.0,0.0,0.0,0.0,0.0,0.0,0.0,0.0,0.0,0.0,0.0,0.0,0.0,0.0,0.0,0.0,0.0,0.0,0.0,0.0,0.0,4.2896,4.4571,4.5067,4.6651,4.7275,4.6036,4.6809,4.7215,4.6553,4.6565,4.6795,4.7257,4.7816,4.8175,4.8221,4.8682,0.0,0.0,0.0,4.9455,5.0013,5.0448,5.1126,5.1955,5.2427,5.3436,5.4867,5.4786,5.4784,5.4764,5.4772,5.4826,5.4924,5.5004,5.5681,5.6489,5.4446,5.3618,5.3528,5.3528,5.3498,5.3438,1.6746,1.6586,1.65,1.65,1.65,1.6887,1.8016,1.8204,2.0175,2.5619,2.6424,2.836,3.3219,3.4324,3.4929,3.5458,3.5307,3.4979,3.4427,3.515,3.608,3.716,3.8592,3.9898,4.0976,4.2308,4.3165,4.3489,4.4719,4.5321,4.5321,4.5773,4.5974,4.5974,4.5974,4.5974,4.5974,4.5974,4.5723,4.5321,4.5196,4.3668,4.1331,4.0852,3.9847,3.8718,3.8617,3.8567,3.8366,3.7125,3.7178,3.7478,3.5688,3.5546,0.0,0.0,0.0,0.0,0.0,0.0,0.0,0.0,0.0,0.0,0.0,0.0,0.0,0.0,0.0,0.0,0.0,0.0,0.0,4.2739,4.4045,4.5072,4.5371,4.6153,4.6614,4.6329,4.6481,4.6756,4.703,4.7487,4.7795,4.7897,4.8192,4.8517,4.8974,4.9158,4.9615,5.0498,5.078,5.1068,5.1427,5.1298,5.1432,5.1831,5.1702,0.0,5.2842,5.2375,5.2108,5.2134,5.2185,5.2377,5.2668,5.3185,5.3641,5.4283,5.5765,5.6072,5.5623,5.5623,5.5294,5.479,1.6846,1.6629,1.65,1.65,1.65,1.6887,1.8016,1.8204,1.9886,2.4623,2.5251,2.6934,3.1361,3.2089,3.267,3.3749,3.4377,3.4703,3.4703,3.6006,3.7411,3.8793,3.9897,4.0876,4.1731,4.3087,4.394,4.4217,4.5347,4.605,4.6326,4.6572,4.6823,4.7104,4.7104,4.6954,4.6697,4.6697,4.6401,4.5899,4.5899,4.4895,4.3313,4.2484,4.1656,4.0904,4.0626,4.035,4.0023,3.9574,3.9474,3.9416,3.8644,3.8222,3.7696,0.0,0.0,0.0,0.0,0.0,0.0,0.0,0.0,0.0,0.0,0.0,0.0,0.0,0.0,4.0435,4.1393,0.0,4.2944,4.388,4.5008,4.5856,4.613,4.6662,4.679,4.6199,4.6662,4.7061,4.7136,4.7668,4.7998,4.7998,4.8629,4.9141,4.9386,4.9974,5.0403,5.0648,5.0811,5.0818,5.0713,5.0843,5.122,5.1811,5.1918,5.2389,5.3151,5.2843,5.2528,5.2254,5.2278,5.2538,5.2948,5.3808,5.4255,5.4513,5.5758,5.6034,5.5751,5.5751,5.5912,5.6059,1.6962,1.6703,1.6532,1.65,1.65,1.6887,1.8016,1.8204,1.956,2.3311,2.3929,2.5385,2.9076,2.9654,3.0357,3.1788,3.342,3.4474,3.4678,3.6584,3.8517,4.0399,4.1026,4.1605,4.2213,4.379,4.4589,4.4589,4.5748,4.6522,4.6948,4.7048,4.7274,4.7606,4.7707,4.7456,4.6948,4.6948,4.6697,4.6301,4.6301,4.5773,4.4815,4.384,4.2939,4.2135,4.1656,4.0901,4.03,4.1051,4.08,4.0325,4.1076,4.044,3.913,3.7906,3.6572,0.0,0.0,0.0,0.0,0.0,0.0,0.0,0.0,3.9223,3.9341,4.1315,4.1459,4.1464,4.2289,4.3068,4.3838,4.4727,4.578,4.6564,4.6822,4.7222,4.7197,4.6382,4.7121,4.7531,4.728,4.7757,4.8134,4.8234,4.9188,4.9816,4.9916,5.0795,5.1122,5.0745,5.0745,5.0569,5.0243,5.0569,5.1154,5.2008,5.2363,5.2954,5.3793,5.3691,5.3385,5.2884,5.2882,5.3062,5.3463,5.4421,5.4801,5.4801,5.4801,5.4927,5.5081,5.527,5.5925,5.6627,1.7136,1.6825,1.6643,1.6522,1.65,1.6887,1.8016,1.8204,1.9397,2.2769,2.3662,2.5109,2.7971,2.9202,3.0055,3.0713,3.4051,3.573,3.4753,3.7663,3.9747,4.0449,4.1026,4.1605,4.2213,4.379,4.4589,4.4589,4.5748,4.6351,4.6401,4.6873,4.6873,4.6502,4.6973,4.6873,4.6401,4.6401,4.6346,4.6301,4.6301,4.6225,4.605,4.5447,4.3969,4.2213,4.211,4.0803,3.9321,4.08,4.0325,3.9346,4.0826,4.0227,3.8641,3.705,3.54,3.396,3.3184,3.4735,3.6736,3.7351,3.7877,3.8786,0.0,4.1542,4.237,4.4895,4.5139,4.5007,4.5358,4.5754,4.5875,4.5477,4.618,4.6847,4.7015,4.7135,4.7286,4.7612,4.7763,4.7838,4.7832,4.8335,4.8919,4.9364,4.9967,5.0544,5.1105,5.1222,5.1473,5.19,5.1925,5.2126,5.2519,5.2126,5.2201,5.2763,5.2336,5.247,5.3007,5.2529,5.2287,5.2211,5.2016,5.2002,5.2046,5.2485,5.2654,5.2654,5.2654,5.3296,5.4332,5.511,5.5477,5.5563,1.7503,1.7282,1.7042,1.6671,1.6543,1.6787,1.7613,1.8003,1.8932,2.0927,2.1694,2.2889,2.4967,2.6809,2.809,2.8624,3.2516,3.4876,3.4703,3.7839,3.9948,4.0474,4.1026,4.1605,4.2213,4.3463,4.4141,4.4141,4.5271,4.5999,4.6326,4.6848,4.7149,4.7255,4.7481,4.7249,4.6772,4.6772,4.6572,4.6301,4.6301,4.6301,4.625,4.5698,4.4694,4.3463,4.2537,4.118,0.0,4.0976,4.0851,4.0575,4.2231,4.1603,4.0049,3.8718,3.6909,3.5592,3.6726,3.7062,3.7802,4.0844,4.0747,4.0491,4.2903,4.3152,4.3345,4.5093,4.562,4.5726,4.5658,4.6045,4.6247,4.6004,4.627,4.6653,4.7054,4.735,4.7877,4.8786,4.9163,4.9238,4.8912,4.9748,5.0351,5.0544,5.1096,5.1498,5.1749,5.2076,5.2201,5.2101,5.2101,5.2076,5.1975,5.1749,5.19,5.2452,5.2226,5.2402,5.2895,5.2644,5.2578,5.2553,5.2346,5.226,5.2268,5.2294,5.2272,5.2272,5.2272,5.2607,5.3184,5.427,5.513,5.5647,1.7828,1.7615,1.7396,1.6857,1.6654,1.6755,1.7322,1.7738,1.8355,1.9434,2.01,2.113,2.292,2.4732,2.6147,2.701,3.0708,3.3398,3.4402,3.7312,3.9396,4.0249,4.08,4.1352,4.1934,4.3011,4.3639,4.379,4.4769,4.5447,4.5874,4.6547,4.6998,4.7255,4.7556,4.7375,4.6873,4.6873,4.6647,4.6301,4.6301,4.6225,4.605,4.5648,4.4844,4.379,4.2612,4.1281,4.0149,4.0675,4.0549,4.0449,4.2133,4.153,4.0048,3.9421,3.7889,3.6881,3.9171,3.9171,3.95,4.3466,4.3379,4.2787,4.4622,4.4608,4.4409,4.5153,4.5678,4.6015,4.5929,4.615,4.6401,4.6702,4.6627,4.6747,4.745,4.7908,4.856,4.969,5.0318,5.0569,5.0318,5.0896,5.1348,5.1498,5.1875,5.2226,5.2528,5.2744,5.277,5.2553,5.2402,5.2126,5.1749,5.1724,5.195,5.2327,5.2327,5.2494,5.2895,5.2895,5.2895,5.2904,5.275,5.2675,5.2683,5.2513,5.246,5.246,5.246,5.246,5.2568,5.3446,5.4283,5.4876,1.7968,1.7737,1.7503,1.6979,1.6782,1.6856,1.7334,1.7412,1.7814,1.8882,1.9497,2.0651,2.2869,2.3687,2.4748,2.6373,2.9076,3.1637,3.3771,3.6031,3.8014,3.9647,4.0249,4.0775,4.1327,4.2434,4.3291,4.379,4.4367,4.464,4.4665,4.5824,4.605,4.5598,4.6647,4.6823,4.6326,4.6326,4.6326,4.6301,4.6301,4.5999,4.5522,4.5497,4.417,4.2288,4.2238,4.0778,3.9019,3.9572,3.8668,3.7637,3.9295,3.8668,3.7436,3.7914,3.7286,3.6782,3.8492,4.0023,4.1603,4.3363,4.497,4.6089,4.5906,4.6032,4.6139,4.5931,4.6107,4.6451,4.6948,4.6622,4.6652,4.7682,4.74,4.745,4.8592,4.8768,4.9163,5.0268,5.0896,5.1448,5.1975,5.1574,5.1498,5.2051,5.2101,5.2553,5.3607,5.3146,5.3121,5.3632,5.3155,5.287,5.2845,5.2845,5.2845,5.287,5.287,5.287,5.2895,5.2895,5.2895,5.2895,5.287,5.2904,5.2904,5.2879,5.2879,5.2879,5.2879,5.2879,5.2879,5.2914,5.2717,5.2404,1.8315,1.8108,1.7818,1.6931,1.6729,1.6705,1.6784,1.7135,1.7537,1.7877,1.9032,0.0,0.0,0.0,0.0,0.0,2.7677,2.996,3.111,3.4625,3.691,3.7487,3.9421,4.0575,4.0775,4.1478,4.2158,4.2738,4.3291,4.3714,4.4091,4.4844,4.5095,4.4945,4.5267,4.5342,4.5167,4.5167,4.5167,4.5167,4.5167,4.4418,4.3266,4.2886,4.158,3.9848,0.0,3.8341,3.8316,3.8517,3.8442,3.8542,3.9823,3.9597,3.8894,3.9069,3.8868,3.912,4.148,4.2559,4.3363,4.5045,4.5899,4.6281,4.6194,4.6235,4.6281,4.6169,4.6537,4.6873,4.7074,4.7224,4.738,4.735,4.75,4.7751,4.8159,4.8837,4.9741,5.0845,5.1498,5.2051,5.2569,5.2477,5.2603,5.313,5.2854,5.292,5.3658,5.3171,5.297,5.3146,5.2995,5.2895,5.2895,5.2895,5.2895,5.2895,5.2895,5.2895,5.2895,5.2895,5.2895,5.2895,5.2895,5.2895,5.2895,5.2895,5.2895,5.2895,5.2895,5.2895,5.2895,5.2895,5.2815,5.2691,1.8731,1.8548,1.8206,1.7167,1.6947,0.0,0.0,0.0,0.0,0.0,0.0,0.0,0.0,0.0,0.0,0.0,0.0,2.8028,2.9402,3.234,3.4474,3.5452,3.7186,3.8316,3.8693,3.9069,3.9521,4.0126,4.108,4.1708,4.2082,4.3413,4.4041,4.4066,4.4414,4.4589,4.4589,4.4589,4.4489,4.4292,4.389,4.276,4.1255,4.0676,3.927,0.0,3.6708,3.6582,3.686,3.7037,3.7513,3.8215,3.9521,3.9948,4.0074,4.0477,4.0425,4.0852,4.3388,4.4091,4.4443,4.5949,4.6301,4.6301,4.6301,4.6301,4.6346,4.6547,4.6848,4.7224,4.7626,4.7832,4.7983,4.8228,4.8435,4.8661,4.9063,4.9741,5.0544,5.1473,5.19,5.2402,5.313,5.3206,5.3331,5.3683,5.3582,5.3658,5.3984,5.3507,5.3206,5.3206,5.2995,5.297,5.3171,5.3206,5.3306,5.3507,5.3507,5.3507,5.3507,5.3507,5.3507,5.3507,5.3507,5.3507,5.3507,5.3246,5.3206,5.3181,5.297,5.2895,5.2895,5.2895,5.2895,5.2895,1.9176,1.8988,1.8617,0.0,0.0,0.0,0.0,0.0,0.0,0.0,0.0,0.0,0.0,0.0,0.0,0.0,0.0,0.0,2.848,2.9352,3.0909,3.352,3.3796,3.4377,3.5382,3.5433,3.5757,3.6331,3.7939,3.8743,3.8818,4.1456,4.2663,4.2713,4.374,4.4163,4.4163,4.4163,4.389,4.3338,4.2311,4.0904,3.9346,3.8843,3.7236,3.538,3.5979,3.5527,3.4703,3.5282,3.5956,3.6808,3.8567,3.9798,4.0877,4.2034,4.1982,4.203,4.4113,4.4715,4.4966,4.605,4.6301,4.6301,4.6301,4.6245,4.6376,4.6898,4.6998,4.7299,4.8441,4.8209,4.841,4.9959,4.9916,4.9992,5.1046,5.1306,5.1523,5.2051,5.2126,5.2553,5.3607,5.3733,5.3758,5.3783,5.4295,5.4597,5.4572,5.4034,5.3733,5.3708,5.3256,5.3256,5.3733,5.3758,5.4009,5.4597,5.4597,5.4597,5.4597,5.4597,5.4597,5.4597,5.4597,5.4597,5.4572,5.3959,5.3758,5.3708,5.3206,5.297,5.297,5.2945,5.2945,5.292,0.0,0.0,0.0,0.0,0.0,0.0,0.0,0.0,0.0,0.0,0.0,0.0,0.0,0.0,0.0,0.0,0.0,0.0,2.5168,2.7677,2.9434,3.0136,3.2566,3.4022,3.4276,3.4703,3.518,3.5732,3.6158,3.6585,3.7061,3.7764,3.8065,3.809,3.8366,3.8492,3.8492,3.8492,3.8416,3.8266,3.7989,3.6859,3.5353,3.5228,3.4048,3.2516,3.3068,3.337,3.3696,3.5054,3.671,3.8693,4.118,4.216,4.266,4.422,4.4819,4.5141,4.5693,4.6145,4.6446,4.6351,4.6301,4.6301,4.6301,4.5618,4.5192,4.5799,4.5573,4.5443,4.62,4.7205,4.7933,4.7927,4.9206,5.0167,5.0042,5.1096,5.195,5.2076,5.2477,5.298,5.3632,5.412,5.4547,5.4938,5.4748,5.4421,5.3934,5.4185,5.416,5.3708,5.3984,5.4245,5.4371,5.4371,5.4446,5.4597,5.4597,5.4597,5.4597,5.4597,5.4597,5.4597,5.4597,5.4597,5.4597,5.4446,5.4371,5.4371,5.4245,5.4195,5.411,5.3658,5.3507,5.3457,0.0,0.0,0.0,0.0,0.0,0.0,0.0,0.0,0.0,0.0,0.0,0.0,0.0,0.0,0.0,0.0,0.0,0.0,0.0,2.5569,2.7092,2.7821,2.9648,3.0859,3.1336,3.1867,3.2194,3.2269,3.3473,3.4101,3.4223,3.5431,3.6008,3.6006,3.6282,3.6383,3.6405,3.6405,3.6256,0.0,0.0,3.4447,3.3144,3.2893,3.2064,3.111,3.1662,3.239,3.3542,3.6384,3.8492,4.035,4.2635,4.3514,4.3991,4.5422,4.5723,4.5643,4.6175,4.6527,4.6672,4.6376,4.6301,4.6175,4.5668,4.5041,4.4614,4.4719,4.4493,4.4744,4.6276,4.7104,4.7851,4.8812,4.9992,5.077,5.072,5.1724,5.2553,5.2779,5.308,5.3582,5.4361,5.4737,5.5099,5.5365,5.5315,5.5039,5.4461,5.4773,5.4697,5.411,5.4421,5.4723,5.4974,5.5164,5.529,5.529,5.529,5.529,5.529,5.529,5.529,5.529,5.529,5.529,5.5265,5.5074,5.4974,5.4949,5.4697,5.4597,5.4572,5.4245,5.4084,5.4009,0.0,0.0,0.0,0.0,0.0,0.0,0.0,0.0,0.0,1.65,1.6586,1.7013,1.8067,1.8682,0.0,0.0,0.0,0.0,0.0,0.0,2.4531,2.5996,2.6273,2.6834,2.7871,2.8405,2.848,2.8097,3.0507,3.1411,3.1009,3.3473,3.463,3.4655,3.5255,3.5504,3.5525,3.5525,3.5203,3.4655,3.3746,3.2767,3.1838,0.0,3.0909,3.0563,3.1185,3.2135,3.3768,3.8215,4.0375,4.1553,4.3586,4.4568,4.5116,4.6125,4.5744,4.5217,4.6075,4.6351,4.6401,4.6326,4.6301,4.6024,4.4865,4.4489,4.4242,4.3689,4.3463,4.4166,4.6778,4.6923,4.75,5.0092,5.0728,5.1046,5.1674,5.2327,5.2955,5.3632,5.3708,5.416,5.529,5.539,5.5415,5.5491,5.5942,5.5942,5.5315,5.5415,5.529,5.4823,5.4823,5.5049,5.5491,5.5968,5.6219,5.6219,5.6219,5.6219,5.6219,5.6219,5.6219,5.6219,5.6219,5.6219,5.6168,5.5691,5.5491,5.544,5.4999,5.4823,5.4798,5.4748,5.4723,5.4622,0.0,0.0,0.0,0.0,0.0,0.0,0.0,0.0,0.0,0.0,1.6923,1.7487,0.0,0.0,0.0,0.0,0.0,0.0,0.0,0.0,0.0,2.3687,2.5034,2.608,2.6776,2.7311,2.7745,2.8097,2.8574,2.8775,2.8699,2.9609,3.0041,3.0066,3.0683,3.0934,3.0954,3.0954,3.0884,3.0783,3.0583,3.0382,3.0206,3.0105,3.0005,0.0,3.1055,3.2135,3.3768,3.8215,4.0124,4.1327,4.5267,4.6597,4.6722,4.6898,4.7124,4.7179,4.6502,4.6622,4.6848,4.6396,4.6301,4.6024,4.4865,4.3915,4.314,4.2587,4.1731,4.1656,4.3517,4.4141,4.4844,4.625,4.7631,4.8862,4.9891,5.0921,5.2101,5.3532,5.3708,5.416,5.529,5.539,5.5566,5.6043,5.6168,5.5767,5.4798,5.5566,5.6018,5.5942,5.5917,5.5968,5.6068,5.6168,5.6219,5.6219,5.6219,5.6219,5.6219,5.6219,5.6219,5.6219,5.6219,5.6219,5.6194,5.6118,5.6068,5.6068,5.5968,5.5917,5.5867,5.5415,5.5239,5.5164,0.0,0.0,0.0,0.0,0.0,0.0,0.0,1.6703,1.65,1.65,1.7275,1.7903,1.8179,1.8682,1.9346,0.0,0.0,0.0,0.0,0.0,0.0,2.307,2.3863,2.4716,2.5603,2.6155,2.654,2.6791,0.0,2.767,2.7713,2.8229,2.848,2.8505,2.88,2.8925,2.8925,2.8925,2.8925,2.8925,2.8925,2.9076,2.9333,2.9333,2.9528,0.0,3.0708,3.1512,3.2813,3.6683,3.8341,3.9722,4.4991,4.6672,4.6572,4.5969,4.6396,4.6828,4.5723,4.602,4.6622,4.6376,4.6301,4.5874,4.4141,4.3363,4.2612,4.1205,4.045,4.0676,4.2637,4.2989,4.3617,4.5598,4.728,4.8661,4.9464,5.1071,5.2628,5.4019,5.4195,5.4587,5.5717,5.5817,5.5917,5.6194,5.6219,5.5993,5.544,5.5917,5.6344,5.6584,5.6369,5.6308,5.6609,5.6344,5.6219,5.6219,5.6219,5.6219,5.6219,5.6219,5.6219,5.6219,5.6219,5.6219,5.6219,5.6219,5.6219,5.6219,5.6219,5.6219,5.6168,5.5917,5.5993,5.6118,0.0,0.0,0.0,0.0,0.0,0.0,1.7307,1.6905,1.6618,1.6511,1.7489,1.8204,1.8204,1.8794,1.9346,0.0,0.0,0.0,0.0,0.0,0.0,0.0,0.0,0.0,2.4399,0.0,0.0,2.5435,2.6331,0.0,0.0,0.0,0.0,0.0,2.8047,2.8097,2.8097,2.8097,2.8097,0.0,0.0,2.8355,2.8756,0.0,0.0,0.0,0.0,3.0959,3.1909,3.5125,3.6658,3.814,4.3413,4.5221,4.5347,4.492,4.5447,4.6024,4.5443,4.5869,4.6476,4.6476,4.6476,4.5874,4.3542,4.309,4.2512,4.0174,3.9697,4.03,4.2258,4.221,4.2663,4.5171,4.6708,4.7964,4.9063,5.0845,5.2678,5.4396,5.4597,5.5024,5.6118,5.6219,5.6219,5.6219,5.6219,5.6219,5.6219,5.6319,5.6559,5.6985,5.6746,5.6684,5.6985,5.6721,5.652,5.6358,5.652,5.657,5.657,5.6445,5.6394,5.6333,5.6269,5.6219,5.6219,5.6219,5.6219,5.6219,5.6344,5.6394,5.6394,5.652,5.6846,5.7035,0.0,0.0,0.0,0.0,0.0,0.0,1.7435,1.7204,1.6979,1.6565,1.7489,1.8204,1.8204,1.9095,1.9761,0.0,0.0,0.0,0.0,0.0,0.0,0.0,0.0,0.0,0.0,0.0,0.0,2.4867,2.4992,0.0,0.0,0.0,0.0,0.0,0.0,2.8097,2.8097,2.8097,0.0,0.0,0.0,0.0,0.0,0.0,0.0,0.0,0.0,3.0959,3.1813,3.4653,3.6284,3.7663,4.0224,4.1731,4.2939,4.4874,4.5472,4.5874,4.723,4.7299,4.7023,4.7023,4.7023,4.6321,4.3642,4.3363,4.2961,4.0249,3.9697,4.0074,4.1252,4.1026,4.1229,4.2986,4.3441,4.4597,4.7631,4.8686,5.0527,5.417,5.4597,5.5024,5.6118,5.6219,5.6219,5.6219,5.6219,5.6219,5.6219,5.6659,5.6935,5.6985,5.7499,5.7499,5.701,5.7499,5.7474,5.6935,5.7499,5.775,5.7725,5.7161,5.6935,5.6885,5.642,5.6219,5.6219,5.6219,5.6219,5.6269,5.6734,5.6935,5.6985,5.7549,5.7775,5.7725,0.0,0.0,0.0,0.0,0.0,0.0,1.8157,1.7574,1.7136,1.6947,1.7671,1.8204,1.8204,1.9158,1.9811,1.9811,0.0,0.0,0.0,0.0,0.0,0.0,0.0,0.0,0.0,0.0,2.3738,2.4315,2.4315,0.0,0.0,0.0,0.0,0.0,0.0,2.7135,2.7135,2.7135,0.0,0.0,0.0,0.0,0.0,0.0,0.0,0.0,0.0,0.0,3.1165,3.2921,3.4073,3.5125,3.7337,3.8341,3.9221,4.1731,4.3915,4.5472,4.5447,4.6502,4.7575,4.7575,4.7324,4.6471,4.4041,4.3388,4.261,4.0199,3.9697,3.9823,4.0275,4.0174,4.035,4.1329,4.261,4.4518,4.7481,4.8987,5.1071,5.4672,5.4798,5.4773,5.5225,5.5817,5.6219,5.6219,5.6219,5.6369,5.6659,5.6885,5.7311,5.7989,5.7951,5.7951,5.8014,5.7951,5.7775,5.7549,5.7801,5.7901,5.7901,5.765,5.7549,5.7549,5.7323,5.7223,5.7223,5.7223,5.7022,5.6684,5.691,5.6985,5.7035,5.7261,5.76,5.7801,0.0,0.0,0.0,0.0,0.0,1.8722,1.8606,1.7898,1.7334,1.722,1.7784,1.8204,1.8204,1.9158,1.9736,1.9572,1.9208,0.0,0.0,0.0,0.0,0.0,0.0,0.0,0.0,0.0,2.3296,2.3712,2.3712,2.4089,0.0,0.0,2.5536,2.5879,0.0,0.0,0.0,0.0,0.0,0.0,0.0,0.0,0.0,0.0,0.0,0.0,0.0,0.0,0.0,0.0,0.0,3.3366,3.4926,3.5855,3.6984,3.9872,4.2434,4.4342,4.4694,4.6075,4.7556,4.8033,4.7531,4.6321,4.4267,4.3112,4.1957,4.0074,3.9572,3.9522,3.9672,3.9697,3.9873,4.0399,4.193,4.4141,4.7224,4.8837,5.0921,5.426,5.431,5.4245,5.4572,5.5566,5.6219,5.6219,5.6219,5.652,5.7211,5.7261,5.7688,5.8641,5.8504,5.8478,5.8691,5.8478,5.8303,5.8152,5.8303,5.8378,5.8378,5.8202,5.8152,5.8127,5.7976,5.7901,5.7901,5.7901,5.765,5.7261,5.7437,5.7487,5.7512,5.7663,5.8027,5.8303,0.0,0.0,0.0,0.0,0.0,0.0,1.8674,1.8137,1.7646,1.7251,1.7784,1.8204,1.8204,1.9158,1.9572,1.9058,1.9008,0.0,0.0,0.0,0.0,0.0,0.0,0.0,0.0,0.0,2.3095,2.312,2.312,2.3697,2.4816,2.4816,2.541,2.6474,0.0,0.0,0.0,0.0,0.0,0.0,0.0,0.0,2.7361,0.0,0.0,0.0,0.0,0.0,0.0,0.0,0.0,0.0,0.0,3.4625,3.7037,4.0349,4.1327,4.2181,4.602,4.6697,4.6728,4.8391,4.7531,4.5874,4.4192,4.2507,4.1026,3.9923,3.9296,3.907,3.9597,3.9697,3.9873,4.0399,4.0976,4.2682,4.6572,4.7575,4.9188,5.2519,5.292,5.3356,5.4496,5.5566,5.6219,5.6219,5.6219,5.6696,5.7826,5.7901,5.8152,5.8666,5.9207,5.9232,5.8691,5.9232,5.9232,5.8691,5.9232,5.9483,5.9458,5.8956,5.8666,5.8641,5.8127,5.7901,5.7901,5.7901,5.7901,5.7951,5.8504,5.8666,5.8755,5.9282,5.9483,5.9408,0.0,0.0,0.0,0.0,0.0,0.0,1.9167,1.8635,1.8117,1.7666,1.7874,1.811,1.8177,1.8493,1.8631,1.8468,1.8443,0.0,0.0,0.0,0.0,0.0,0.0,0.0,0.0,2.2558,2.3296,2.3728,2.3728,2.4313,2.5484,2.5903,2.6281,2.666,2.7486,2.7499,0.0,0.0,0.0,0.0,0.0,2.698,2.8096,0.0,0.0,0.0,0.0,0.0,0.0,0.0,0.0,0.0,0.0,0.0,0.0,3.7186,3.9295,4.1026,4.2256,4.3313,4.4195,4.4698,4.417,4.3165,4.1856,4.0852,3.9898,3.8768,3.8743,3.8944,3.912,3.9446,3.9747,3.9923,4.07,4.2682,4.6547,4.755,4.9565,5.4084,5.4285,5.4486,5.5591,5.5315,5.539,5.6143,5.6219,5.6721,5.7851,5.7901,5.8152,5.8666,5.9232,5.9257,5.8691,5.9232,5.9408,5.9257,5.9408,5.9483,5.9483,5.9332,5.9257,5.9232,5.9056,5.8981,5.8956,5.8579,5.8227,5.7926,5.8102,5.8152,5.8227,5.878,5.8956,5.888,0.0,0.0,0.0,0.0,0.0,0.0,1.94,1.8903,1.8393,1.8098,1.8166,1.8313,1.8389,1.8576,1.8602,1.8406,1.838,0.0,0.0,0.0,0.0,0.0,0.0,0.0,2.285,2.3701,2.4464,2.5091,2.5091,2.5568,2.6525,2.6913,2.7205,2.7418,2.8152,2.819,0.0,0.0,0.0,0.0,2.6226,2.6888,2.8295,0.0,0.0,0.0,0.0,0.0,0.0,0.0,0.0,0.0,0.0,0.0,0.0,0.0,3.6483,3.8617,4.0098,4.1254,4.2208,4.2838,4.2286,4.1354,4.0676,3.9597,3.8693,3.8391,3.8442,3.8693,3.912,3.9471,3.9898,4.0552,4.1028,4.2682,4.6547,4.7199,4.8937,5.3306,5.4295,5.4873,5.5516,5.534,5.5465,5.6168,5.6219,5.662,5.7524,5.7775,5.8052,5.8403,5.893,5.9056,5.8691,5.9031,5.9207,5.9207,5.9408,5.9483,5.9483,5.9483,5.9483,5.9483,5.9483,5.9483,0.0,5.9131,5.8805,5.8504,5.8504,5.8504,5.8554,5.888,5.8842,5.8641,0.0,0.0,0.0,0.0,0.0,0.0,0.0,1.8922,1.8519,1.849,1.8614,1.869,1.8713,1.9119,1.919,1.8729,1.8648,0.0,0.0,0.0,0.0,0.0,0.0,0.0,2.5064,2.5675,2.6328,2.7012,2.7042,2.737,2.7974,2.7962,2.8204,2.8675,2.8696,2.8424,0.0,0.0,0.0,0.0,2.542,2.6342,0.0,0.0,0.0,0.0,0.0,0.0,0.0,0.0,0.0,0.0,0.0,0.0,0.0,0.0,0.0,0.0,0.0,4.0098,4.0551,4.2135,4.1354,4.0224,4.0224,3.8642,0.0,3.8567,3.8391,3.8391,3.9446,3.9772,4.0376,4.1833,4.1731,4.2783,4.6471,4.6848,4.7933,5.1021,5.3366,5.4723,5.4723,5.5616,5.6219,5.6219,5.6219,5.6408,5.696,5.7549,5.7851,5.7901,5.8353,5.8591,5.8691,5.8755,5.878,5.8742,5.9257,5.9483,5.9483,5.9483,5.9483,5.9483,5.9483,5.9483,5.9483,5.9458,5.9433,5.9433,5.9433,5.9408,5.9382,5.9433,5.9106,5.8654,0.0,0.0,0.0,0.0,0.0,0.0,0.0,0.0,0.0,0.0,1.8543,1.8584,1.869,1.8383,1.8329,0.0,0.0,0.0,0.0,0.0,0.0,0.0,0.0,0.0,2.5078,2.6113,2.716,2.8196,2.8353,2.922,3.0745,3.0393,3.0287,3.04,3.0453,2.987,0.0,0.0,0.0,0.0,2.6889,2.7712,0.0,0.0,0.0,0.0,3.0402,3.067,0.0,0.0,0.0,0.0,0.0,0.0,0.0,0.0,3.3165,3.3847,3.5581,0.0,3.6886,3.7738,3.7637,3.7361,0.0,3.7286,3.7286,3.7562,3.819,3.8768,3.9044,4.0477,4.1456,4.0978,4.2208,4.384,4.5623,4.9038,5.164,5.2418,5.4486,5.5817,5.5817,5.6068,5.6219,5.6219,5.6219,5.6408,5.696,5.7136,5.7412,5.7876,5.7562,5.7813,5.8666,5.9106,5.9307,5.9307,5.9433,5.9483,5.9483,5.9483,5.9483,5.9483,5.9483,5.9483,5.9458,5.9056,5.8905,5.8905,5.8905,5.8654,5.8328,5.8755,5.8554,5.8027,0.0,0.0,0.0,0.0,0.0,0.0,0.0,0.0,0.0,0.0,1.8884,1.8874,1.8871,1.8579,0.0,0.0,0.0,0.0,0.0,0.0,0.0,0.0,0.0,2.5868,2.6411,2.7908,2.9166,3.0145,3.057,3.1305,3.2282,3.2046,3.1758,3.1454,3.1279,3.0408,0.0,0.0,0.0,2.7722,2.7058,0.0,0.0,0.0,0.0,0.0,3.078,3.1098,0.0,3.1272,3.1011,3.0872,0.0,0.0,0.0,0.0,3.211,3.2742,3.3093,3.4327,3.5583,3.5906,3.6205,3.6405,3.6405,3.6808,3.7286,3.7513,3.8291,3.8969,3.922,4.0451,4.163,4.2281,4.3385,4.492,4.7079,5.0569,5.297,5.3256,5.5013,5.6219,5.6219,5.6219,5.6219,5.6219,5.6219,5.6408,5.696,5.6985,5.7261,5.7876,5.76,5.7562,5.7914,5.8478,5.8755,5.878,5.9257,5.9483,5.9483,5.9483,5.9483,5.9483,5.9483,5.9483,5.9483,5.9207,5.893,5.8691,5.8691,5.8378,5.7926,5.8227,5.7976,5.7449,0.0,0.0,0.0,0.0,0.0,0.0,0.0,0.0,0.0,0.0,0.0,0.0,0.0,0.0,0.0,0.0,0.0,0.0,0.0,0.0,0.0,0.0,2.5595,2.7226,2.8433,3.0104,3.1424,3.2326,3.2904,3.3244,3.3333,3.3276,3.2832,3.2077,3.1649,3.0625,2.9121,2.8289,2.7718,2.7395,2.6805,0.0,0.0,0.0,0.0,0.0,0.0,0.0,0.0,3.1751,3.1388,3.1098,3.1093,0.0,0.0,0.0,0.0,0.0,3.1512,3.3348,3.5408,3.5583,3.5956,3.6356,3.6683,3.706,3.7487,3.8015,3.8743,3.9421,3.9848,4.0752,4.208,4.4238,4.4865,4.615,4.9063,5.1473,5.3046,5.3532,5.5139,5.6219,5.6219,5.6219,5.6219,5.6219,5.6219,5.642,5.6835,5.6885,5.7136,5.775,5.7775,5.7575,5.7136,5.765,5.7901,5.7901,5.8805,5.9282,5.9382,5.9382,5.9408,5.9483,5.9483,5.9458,5.9382,5.9382,5.9056,5.8604,5.8604,5.8252,5.7775,5.7775,5.7399,5.6885,0.0,0.0,0.0,0.0,0.0,0.0,0.0,0.0,0.0,0.0,0.0,0.0,0.0,0.0,0.0,0.0,0.0,0.0,0.0,0.0,0.0,2.5678,2.7626,2.9265,3.0587,3.1412,3.2413,3.3683,3.3915,3.4305,3.4853,3.4465,3.3602,3.2408,3.2348,3.1287,2.951,2.9355,2.862,2.7547,2.7457,0.0,0.0,0.0,0.0,0.0,0.0,0.0,0.0,3.2245,3.2234,3.2062,3.1947,0.0,0.0,0.0,0.0,0.0,3.1411,3.3093,3.5054,3.6029,3.5956,3.6133,3.809,3.8165,3.804,3.8642,3.9923,4.0951,4.1051,4.3435,4.5246,4.469,4.617,4.7757,4.8793,5.1222,5.292,5.2995,5.4913,5.6219,5.6219,5.6219,5.6219,5.6219,5.6219,5.6244,5.6344,5.6344,5.6559,5.7111,5.7136,5.7336,5.775,5.7851,5.7901,5.7901,5.8077,5.8378,5.8792,5.8792,5.9081,5.9483,5.9483,5.9257,5.8792,5.8792,5.8529,5.8027,5.8027,5.7675,5.7136,5.7136,5.6784,5.6344,0.0,0.0,0.0,0.0,0.0,0.0,0.0,0.0,0.0,0.0,0.0,0.0,0.0,0.0,0.0,0.0,0.0,0.0,0.0,0.0,2.4551,2.6764,2.8472,2.9792,3.0686,3.2019,3.3221,3.4266,3.4687,3.5061,3.5359,3.4769,3.3979,3.3036,3.2662,3.1599,3.0043,2.9728,2.9039,2.8111,0.0,0.0,0.0,0.0,0.0,0.0,0.0,0.0,0.0,0.0,3.2327,3.2376,3.2243,0.0,0.0,0.0,0.0,0.0,3.106,3.2591,3.4751,3.6759,3.7513,3.804,3.9094,4.0275,4.0701,3.922,4.0451,4.1781,4.1781,4.3288,4.5121,4.7004,4.8912,5.0569,5.1783,5.3005,5.4034,5.4601,5.5591,5.6219,5.6219,5.6219,5.6219,5.6219,5.6219,5.6344,5.6609,5.6369,5.647,5.6985,5.6985,5.6985,5.6997,5.7273,5.76,5.7901,5.8478,5.8755,5.8691,5.9006,5.9282,5.9483,5.9207,5.8956,5.8704,5.8403,5.7951,5.7387,5.7387,5.7097,5.6559,5.6559,5.642,5.6219,0.0,0.0,0.0,0.0,0.0,0.0,0.0,0.0,0.0,0.0,0.0,0.0,0.0,0.0,0.0,0.0,0.0,0.0,0.0,2.2807,2.4761,2.7318,2.8837,3.0089,3.1096,3.2586,3.3795,3.4727,3.525,3.5519,3.5489,3.4951,3.4368,3.3709,3.3036,3.1974,3.0687,3.0073,2.9325,2.8547,0.0,0.0,0.0,0.0,0.0,0.0,0.0,0.0,0.0,0.0,0.0,0.0,0.0,0.0,0.0,3.1193,3.1551,3.1788,3.0839,3.2591,3.5177,3.7287,3.8567,3.9572,4.0601,4.2283,4.2936,4.0552,4.1708,4.3115,4.2989,4.3617,4.5401,4.9163,5.087,5.2327,5.4145,5.4396,5.4798,5.5892,5.6018,5.6068,5.6194,5.6219,5.6219,5.6219,5.6344,5.6559,5.6985,5.6584,5.6634,5.7186,5.706,5.691,5.6796,5.7186,5.7487,5.77,5.8529,5.8855,5.8691,5.9006,5.9182,5.9282,5.8755,5.8415,5.8265,5.7876,5.7349,5.6809,5.6809,5.6533,5.6219,5.6219,5.6219,5.6219,0.0,0.0,0.0,0.0,0.0,0.0,0.0,0.0,0.0,0.0,0.0,0.0,0.0,0.0,0.0,0.0,0.0,0.0,2.1585,2.2881,2.4777,2.7482,2.8889,3.0746,3.3215,3.3409,3.4127,3.5429,3.5489,3.5519,3.5519,3.5459,3.507,3.4398,3.3739,3.2662,3.1391,3.0717,2.9714,2.8607,2.8547,0.0,0.0,0.0,0.0,0.0,0.0,0.0,0.0,0.0,0.0,0.0,0.0,0.0,3.2001,3.2001,3.2822,3.3269,3.1165,3.3721,3.7009,3.721,3.7688,3.9195,4.331,4.3639,4.314,4.3388,4.4819,4.5849,4.5347,4.6502,4.8159,5.0042,5.0436,5.1297,5.3457,5.3758,5.4185,5.5315,5.544,5.5641,5.6168,5.6219,5.6219,5.6219,5.6659,5.696,5.6985,5.696,5.7211,5.7826,5.7286,5.7487,5.8491,5.8541,5.8064,5.706,5.7136,5.7713,5.8666,5.8227,5.8303,5.8755,5.8202,5.765,5.7111,5.7085,5.6734,5.6269,5.6269,5.6244,5.6219,5.6219,5.6219,5.6219,0.0,0.0,0.0,0.0,0.0,0.0,0.0,0.0,0.0,0.0,0.0,0.0,0.0,0.0,0.0,0.0,0.0,0.0,2.2243,2.3509,2.5423,2.8111,2.9099,3.0626,3.2826,3.3275,3.4173,3.5519,3.5519,3.5519,3.5519,3.5519,3.513,3.4458,3.3799,3.3006,3.2049,3.0957,3.0013,2.9189,2.8757,2.8201,0.0,0.0,0.0,0.0,0.0,0.0,0.0,0.0,3.1663,3.2363,3.2849,3.258,3.2092,3.2092,3.2221,3.224,3.1717,3.46,3.7939,3.8994,4.0174,4.163,4.3639,4.5121,4.5723,4.4543,4.5372,4.6451,4.6903,4.8083,4.9515,5.1197,5.1473,5.2126,5.4019,5.4536,5.5039,5.5817,5.5892,5.5993,5.6194,5.6219,5.6219,5.6219,5.6684,5.6985,5.6985,5.7336,5.7675,5.7901,5.8027,5.7914,5.7637,5.8027,5.7801,5.701,5.7713,5.8127,5.8202,5.8001,5.8001,5.8177,5.76,5.7186,5.696,5.6634,5.6358,5.6219,5.6219,5.6219,5.6219,5.6219,5.6219,5.6219,0.0,0.0,0.0,0.0,0.0,0.0,0.0,0.0,0.0,0.0,0.0,0.0,0.0,0.0,0.0,0.0,0.0,0.0,2.2613,2.3898,2.5693,2.8171,2.9129,3.0402,3.2153,3.3066,3.4053,3.519,3.54,3.5519,3.5519,3.5519,3.525,3.4787,3.3889,3.3245,3.2721,3.1375,3.0342,2.9548,2.9099,2.838,0.0,0.0,0.0,0.0,0.0,0.0,0.0,0.0,3.1235,3.2028,3.2252,3.2083,3.1811,3.2037,3.2031,3.1984,3.2164,3.5303,3.8818,3.9973,4.2032,4.3944,4.4468,4.5648,4.6326,4.5317,4.6326,4.7581,4.8309,4.9213,5.0293,5.1624,5.2,5.2628,5.412,5.4823,5.534,5.5892,5.5942,5.6018,5.6194,5.6219,5.6219,5.6219,5.6684,5.6985,5.6985,5.7387,5.7625,5.7625,5.7826,5.7612,5.701,5.7387,5.7524,5.7286,5.7863,5.8077,5.7901,5.77,5.7625,5.76,5.6985,5.6734,5.6709,5.6369,5.6219,5.6219,5.6219,5.6219,5.6219,5.6219,5.6219,5.6219,0.0,0.0,0.0,0.0,0.0,0.0,0.0,0.0,0.0,0.0,0.0,0.0,0.0,0.0,0.0,0.0,0.0,0.0,2.2613,2.3898,2.5513,2.7495,2.8873,3.0193,3.1481,3.2811,3.3829,3.4488,3.516,3.5519,3.5519,3.5519,3.5519,3.5429,3.4113,3.3484,3.3395,3.2063,3.0747,2.9608,2.9608,2.8813,2.7585,0.0,0.0,0.0,0.0,0.0,0.0,0.0,3.038,3.1925,3.1603,3.1331,3.1225,3.1938,3.2587,3.2989,3.2416,3.5906,3.9722,3.9747,4.2635,4.5648,4.6175,4.502,4.4292,4.5949,4.8058,4.9615,4.959,5.0042,5.0619,5.1197,5.1749,5.2477,5.3557,5.4245,5.4823,5.534,5.539,5.5616,5.6168,5.6219,5.6219,5.6219,5.6684,5.6985,5.6985,5.701,5.701,5.701,5.6483,5.6495,5.6985,5.6985,5.7286,5.7876,5.7261,5.7286,5.7876,5.7261,5.6985,5.696,5.6408,5.6219,5.6219,5.6219,5.6219,5.6219,5.6219,5.6219,5.6219,5.6219,5.6219,5.6219,0.0,0.0,0.0,0.0,0.0,0.0,0.0,0.0,0.0,0.0,0.0,0.0,0.0,0.0,0.0,0.0,0.0,0.0,2.2643,2.4328,2.6004,2.7525,2.8873,2.9967,3.0777,3.2557,3.4053,3.519,3.54,3.5519,3.5519,3.5519,3.525,3.4757,3.3889,3.3245,3.2721,3.1869,3.0747,2.9608,2.9608,2.8813,2.7585,0.0,0.0,0.0,0.0,0.0,0.0,0.0,0.0,0.0,3.1464,3.1446,3.1451,3.3317,3.3781,3.4048,3.5805,3.9094,4.2183,4.2961,4.4618,4.61,4.6276,4.5924,4.5598,4.5698,4.8109,5.0067,4.9665,5.0042,5.0971,5.2703,5.2829,5.3206,5.4687,5.5365,5.5792,5.5942,5.5968,5.6043,5.6194,5.6219,5.6219,5.6219,5.6684,5.6985,5.6985,5.7387,5.765,5.765,5.7474,5.7273,5.6985,5.6725,5.6625,5.6721,5.6251,5.645,5.7236,5.6684,5.6433,5.6408,5.6294,5.6219,5.6219,5.6219,5.6219,5.6219,5.6219,5.6219,5.6219,5.6219,5.6219,5.6219,0.0,0.0,0.0,0.0,0.0,0.0,0.0,0.0,0.0,0.0,1.9708,1.9708,0.0,0.0,0.0,0.0,0.0,0.0,2.2643,2.4268,2.5794,2.7123,2.847,2.9744,3.0867,3.2333,3.3754,3.51,3.537,3.5519,3.5519,3.5519,3.513,3.4458,3.3799,3.3125,3.2452,3.178,3.0897,2.9937,2.9698,2.8949,2.7974,0.0,0.0,0.0,0.0,0.0,0.0,0.0,0.0,0.0,3.1317,3.1537,3.1667,3.3182,3.4048,3.4929,3.686,4.0124,4.3391,4.4865,4.6301,4.7179,4.6697,4.6622,4.6552,4.62,4.8611,5.072,5.0619,5.1046,5.1891,5.3457,5.3632,5.3934,5.4913,5.5717,5.6118,5.5917,5.6068,5.6219,5.6219,5.6072,5.5962,5.5962,5.6115,5.6203,5.6203,5.6564,5.6813,5.6962,5.7,5.6787,5.6462,5.6363,5.6214,5.5962,5.5889,5.6137,5.6659,5.6369,5.6219,5.6219,5.6219,5.6219,5.6219,5.6219,5.6219,5.6219,5.6219,5.6219,5.6219,5.6219,5.6219,5.6219,0.0,0.0,1.9708,0.0,0.0,0.0,0.0,0.0,0.0,1.9708,1.9708,1.9708,0.0,0.0,0.0,1.9708,2.0318,2.1216,2.2433,2.3778,2.5083,2.6363,2.7829,2.9491,3.1361,3.2063,3.3036,3.4324,3.504,3.5459,3.5519,3.5519,3.51,3.4368,3.3769,3.3125,3.2452,3.178,3.1166,3.0552,2.9937,2.9279,2.8607,2.7944,0.0,0.0,0.0,0.0,0.0,0.0,0.0,0.0,3.1107,3.1528,3.173,3.2128,3.3683,3.5483,3.6485,3.9772,4.3492,4.5874,4.7657,4.8592,4.75,4.7299,4.7274,4.7074,4.9314,5.1423,5.1875,5.2443,5.3071,5.3683,5.4245,5.4622,5.4677,5.5566,5.5981,5.548,5.5881,5.6219,5.6219,5.5852,5.5595,5.5595,5.5226,5.5004,5.5004,5.5004,5.5189,5.5521,5.5558,5.5558,5.5558,5.5926,5.5926,5.5595,5.5962,5.6182,5.6219,5.6219,5.6219,5.6219,5.6219,5.6219,5.6219,5.6219,5.6219,5.6219,5.6219,5.6219,5.6219,5.6219,5.6219,5.6219,0.0,0.0,1.9708,1.9708,0.0,0.0,0.0,0.0,1.9708,1.9708,1.9708,1.9708,1.9708,1.9708,0.0,1.9708,2.0318,2.0808,2.1116,2.2821,2.4167,2.4993,2.7308,2.9265,3.0687,3.1361,3.2108,3.2946,3.4128,3.4981,3.5519,3.5519,3.4861,3.3709,3.3544,3.3125,3.2452,3.178,3.1421,3.1241,3.0568,2.9924,2.9309,2.8637,2.871,0.0,0.0,0.0,0.0,0.0,0.0,0.0,3.0643,3.0684,3.0911,3.2728,3.3454,3.45,3.8542,4.0953,4.3215,4.6677,4.851,4.9238,4.8592,4.8761,4.8586,4.6853,4.9038,5.1172,5.0845,5.1916,5.3256,5.4245,5.4522,5.4791,5.5306,5.5849,5.6059,5.5605,5.5961,5.6219,5.6219,5.5852,5.5595,5.5595,5.5226,5.5004,5.5004,5.5004,5.5041,5.5152,5.5152,5.5152,5.5152,5.5226,5.5374,5.5595,5.5705,5.5889,5.6219,5.6219,5.6219,5.6219,5.6219,5.6219,5.6219,5.6219,5.6219,5.6219,5.6219,5.6219,5.6219,5.6219,5.6219,5.6219,0.0,0.0,0.0,0.0,0.0,0.0,0.0,0.0,2.0049,1.9729,1.9708,1.9708,1.9708,1.9708,0.0,0.0,2.0019,2.0348,2.0698,2.2263,2.3879,2.5483,2.72,2.8577,2.9564,3.0538,3.1331,3.2019,3.3036,3.4053,3.5011,3.534,3.4951,3.3979,3.3979,3.3604,3.2976,3.2602,3.2273,3.1899,3.1256,3.0612,2.9967,2.9325,2.9309,2.9548,2.9189,0.0,0.0,0.0,0.0,0.0,0.0,0.0,3.1074,3.1747,3.3245,3.5426,3.8793,4.1331,4.3843,4.7405,4.8962,4.9439,4.8919,4.9188,4.9264,4.8134,4.969,5.1348,5.1574,5.2293,5.3246,5.4421,5.4455,5.4616,5.5483,5.4918,5.4658,5.5238,5.4806,5.4745,5.5558,5.5238,5.5016,5.5016,5.4645,5.4421,5.4421,5.4421,5.4496,5.4719,5.4719,5.4719,5.4719,5.493,5.5004,5.5016,5.5448,5.5816,5.6219,5.6219,5.6219,5.6219,5.6219,5.6219,5.6219,5.6219,5.6219,5.6219,5.6219,5.6219,5.6219,5.6219,5.6219,5.6219,0.0,0.0,0.0,0.0,0.0,0.0,0.0,0.0,0.0,1.9759,1.9708,1.9708,1.9708,1.9708,1.9708,0.0,0.0,0.0,2.0488,2.1794,2.3601,2.5986,2.6836,2.7602,2.8397,2.9564,3.0538,3.1331,3.2004,3.2946,3.4158,3.4831,3.4801,3.4158,3.4278,3.4009,3.3484,3.3484,3.3245,3.2796,3.1989,3.1346,3.0761,3.0027,2.9817,2.9907,2.9788,2.9736,2.9701,2.9507,0.0,0.0,0.0,0.0,3.1316,3.024,3.2449,3.5678,3.7637,4.0978,4.4744,4.8115,4.9264,4.9439,4.8919,4.9145,4.949,4.9565,5.0494,5.1599,5.25,5.2785,5.3246,5.4315,5.4277,5.4329,5.4955,5.3637,5.2935,5.3924,5.2859,5.2708,5.4397,5.421,5.4098,5.436,5.4047,5.3785,5.3785,5.3785,5.3972,5.4309,5.4309,5.4309,5.4309,5.4682,5.4719,5.4397,5.5127,5.5705,5.6109,5.6109,5.6146,5.6219,5.6219,5.6219,5.6219,5.6219,5.6219,5.6219,5.6219,5.6219,5.6219,5.6219,5.6219,5.6219,0.0,0.0,0.0,0.0,0.0,0.0,0.0,0.0,0.0,0.0,1.9708,1.9708,1.9708,1.9708,1.9708,1.9708,1.9708,1.9738,1.9828,0.0,0.0,2.3939,2.5196,2.6452,2.7705,2.847,2.9445,3.0628,3.1301,3.2019,3.2781,3.3455,3.3425,3.2781,3.3365,3.3574,3.3484,3.3484,3.3784,3.4128,3.2871,3.2303,3.2093,3.0851,3.0747,3.1152,3.0582,3.0677,3.101,3.088,3.0764,0.0,0.0,0.0,3.025,2.9469,2.9921,3.1336,3.4449,3.9772,4.5292,4.8661,4.954,4.9439,4.8919,4.8868,4.9044,4.949,5.0494,5.1406,5.1668,5.2338,5.3142,5.396,5.4313,5.4124,5.3056,5.2973,5.2319,5.0375,5.0281,5.0978,5.267,5.248,5.2821,5.4285,5.4047,5.3785,5.3785,5.3785,5.3822,5.3897,5.3897,5.3897,5.3897,5.4272,5.4434,5.4397,5.4868,5.53,5.5705,5.5705,5.5889,5.6219,5.6219,5.6219,5.6219,5.6219,5.6219,5.6219,5.6219,5.6219,5.6219,5.6219,5.6219,5.6219,0.0,0.0,0.0,0.0,0.0,0.0,0.0,0.0,0.0,0.0,0.0,1.9708,1.9708,1.9708,1.9708,1.9708,1.9708,1.9848,2.0228,2.0827,2.1724,2.3032,2.4347,2.5483,2.6465,2.7859,2.9056,2.9997,3.0628,3.1286,3.1959,3.2243,3.2632,3.3095,3.3769,3.4069,3.4069,3.4472,3.4578,3.4428,3.3859,3.3395,3.3006,3.2407,3.2362,3.2572,3.2287,3.2273,3.2228,3.1383,3.0936,3.0472,2.8957,0.0,0.0,0.0,2.9346,3.106,3.4675,3.9797,4.4669,4.6778,4.846,4.954,4.9289,4.9019,4.8805,4.8864,4.9506,5.0364,5.1342,5.1205,5.143,5.2946,5.2438,5.2127,5.2987,5.2283,5.1331,5.0569,4.9775,4.9618,5.0381,5.0242,5.0498,5.1193,5.1969,5.2389,5.2389,5.3309,5.3785,5.3785,5.3785,5.3785,5.3785,5.3972,5.4197,5.4397,5.457,5.4868,5.5263,5.5485,5.5816,5.6219,5.6219,5.6219,5.6219,5.6219,5.6219,5.6219,5.6219,5.6219,5.6219,5.6219,5.6219,5.6219,0.0,0.0,0.0,0.0,0.0,0.0,0.0,0.0,0.0,0.0,0.0,2.0217,2.0217,0.0,0.0,0.0,1.9789,1.9908,2.0399,2.0458,2.0976,2.2124,2.343,2.4496,2.5334,2.7141,2.8487,2.9338,2.9967,3.0598,3.1241,3.1421,3.2019,3.3036,3.3889,3.4248,3.4308,3.513,3.522,3.4727,3.4548,3.4188,3.3739,3.3544,3.3469,3.3423,3.3423,3.3269,3.2919,3.1854,3.1228,3.0536,2.8677,2.8658,0.0,0.0,0.0,3.1391,3.4979,3.8994,4.2635,4.4744,4.7029,4.883,4.9192,4.9031,4.8641,4.8047,4.809,4.8592,4.9839,4.9586,4.9759,5.1583,5.0336,4.9725,5.1338,5.033,4.9349,4.9223,4.8176,4.7666,4.8104,4.8143,4.8342,4.8776,4.9953,5.0869,5.1293,5.2489,5.3346,5.3785,5.3785,5.3785,5.3785,5.3785,5.3972,5.4272,5.4272,5.4496,5.5004,5.53,5.5742,5.6219,5.6219,5.6219,5.6219,5.6219,5.6219,5.6219,5.6219,5.6219,5.6219,5.6219,5.6219,5.6219,0.0,0.0,0.0,0.0,0.0,0.0,0.0,0.0,0.0,0.0,0.0,2.1615,2.1615,2.1027,2.0638,2.0638,2.0088,1.9708,1.9738,1.9759,2.0088,2.0778,2.2094,0.0,2.4623,2.6004,2.732,2.8637,2.9309,2.9967,3.0582,3.1182,3.154,3.166,3.2976,3.3544,3.3649,3.4951,3.5489,3.54,3.4757,3.4474,3.4384,3.3739,3.3377,3.3238,3.3238,3.3005,3.2692,3.2634,3.2015,3.1053,2.9789,2.9659,2.971,0.0,0.0,0.0,3.4025,3.6132,3.8693,4.3463,4.5568,4.6812,4.8074,4.8589,4.8453,4.7227,4.6351,4.5837,4.6056,4.7468,4.8908,4.9723,4.8813,4.752,4.6215,4.6272,4.5699,4.3776,4.3785,4.4617,4.6264,4.6405,4.7088,4.8697,4.8895,4.9601,5.1216,5.137,5.216,5.3747,5.3785,5.3785,5.3785,5.3785,5.3822,5.3822,5.3822,5.4234,5.5004,5.5041,5.5448,5.6219,5.6219,5.6219,5.6219,5.6219,5.6219,5.6219,5.6219,5.6219,5.6219,5.6219,5.6219,5.6219,0.0,0.0,0.0,0.0,0.0,0.0,0.0,0.0,0.0,0.0,0.0,0.0,0.0,2.2712,2.2562,2.2562,2.2323,2.1854,2.1046,2.0986,2.0717,2.0088,2.1345,2.2652,2.3928,2.5274,2.6841,2.8607,2.8846,2.9309,2.9937,3.0568,3.0867,3.0927,3.2243,3.3095,3.3544,3.4488,3.51,3.5653,3.7524,3.8167,3.8026,3.7811,3.7581,3.7281,3.6494,3.6039,3.5828,3.6049,3.4748,3.2846,3.1329,3.0125,2.9269,2.9202,2.9603,3.0382,3.1692,3.4051,3.671,3.922,4.1783,4.3933,4.4937,4.5759,4.616,4.5717,4.5143,4.4929,4.5388,4.4728,4.4705,4.6555,4.5644,4.5047,4.616,4.6419,4.5979,4.4494,4.4439,4.4441,4.4259,4.4259,4.4602,4.5474,4.6566,4.7488,4.8064,5.0109,5.1562,5.216,5.3233,5.3785,5.3785,5.3785,5.3785,5.3785,5.3785,5.4085,5.4608,5.4892,5.53,5.5852,5.6109,5.6219,5.6219,5.6219,5.6219,5.6219,5.6219,5.6219,5.6219,5.6219,5.6219,5.6219,0.0,0.0,0.0,0.0,0.0,0.0,0.0,0.0,0.0,2.4597,0.0,0.0,0.0,0.0,2.4088,2.364,2.361,2.3251,2.2383,2.2323,2.1764,2.0417,2.1435,2.2543,2.358,2.4477,2.6033,2.8248,2.8248,2.862,2.9279,3.0103,3.0492,3.0552,3.1884,3.2871,3.3544,3.4458,3.507,3.5682,3.7814,3.8674,3.8779,3.9176,3.9453,3.9594,3.9183,3.9037,3.9011,3.9038,3.7144,3.4446,3.2941,3.0842,2.9032,2.9628,2.9804,2.988,3.0231,3.2194,3.4527,3.6207,3.8667,4.1066,4.2577,4.4027,4.4864,4.4103,4.3898,4.3766,4.3575,4.1686,4.107,4.3833,4.2939,4.2536,4.4378,4.4761,4.4614,4.4004,4.4051,4.3778,4.2953,4.2851,4.2969,4.3242,4.4987,4.6056,4.6056,4.9395,5.1562,5.2122,5.3233,5.3785,5.3785,5.3785,5.386,5.401,5.401,5.4272,5.4831,5.5053,5.5411,5.5816,5.6072,5.6219,5.6219,5.6219,5.6219,5.6219,5.6219,5.6219,5.6219,5.6219,5.6219,5.6219,0.0,0.0,0.0,0.0,0.0,0.0,0.0,0.0,2.6704,2.6704,0.0,0.0,0.0,0.0,0.0,2.3879,2.3759,2.3729,2.3699,2.367,2.3101,2.1824,2.2363,2.3032,2.364,2.367,2.4968,2.7585,2.7585,2.7931,2.8607,2.9894,3.0462,3.0522,3.1914,3.2871,3.3574,3.4905,3.5473,3.5487,3.5456,3.5848,3.6509,3.7641,3.8714,3.9818,4.0935,4.1664,4.1952,4.1492,3.8932,3.5743,3.4469,3.1707,2.9057,2.9628,2.9804,2.9804,0.0,0.0,0.0,3.4705,3.6419,3.8238,4.1176,4.3531,4.456,4.2563,4.2478,4.2211,4.0396,3.8548,3.8387,4.1563,4.0816,4.0019,4.0411,4.0859,4.1328,4.1699,4.2109,4.2343,4.2343,4.2402,4.2382,4.2382,4.4359,4.558,4.558,4.9196,5.206,5.3747,5.3785,5.3785,5.3785,5.3822,5.401,5.4397,5.4397,5.4831,5.5595,5.5595,5.5816,5.6219,5.6219,5.6219,5.6219,5.6219,5.6219,5.6219,5.6219,5.6219,5.6219,5.6219,5.6219,5.6219,0.0,0.0,0.0,0.0,0.0,2.7769,2.7769,2.8351,2.877,0.0,0.0,0.0,0.0,0.0,2.8351,2.7961,2.7512,2.6811,2.5836,2.5315,2.4477,2.3131,2.3251,2.3879,2.5005,2.5046,2.5896,2.7585,2.7585,2.7705,2.7914,2.9219,2.9847,2.9937,3.2198,3.3229,3.3359,3.4193,3.4847,3.5634,3.9713,4.108,4.0927,4.3165,4.3835,4.3475,4.2943,4.2806,4.3018,4.3972,4.1209,3.6609,3.2363,3.0332,2.9578,2.9754,2.9804,2.9804,2.9804,0.0,0.0,0.0,0.0,0.0,3.7782,3.8535,3.958,4.299,4.1238,3.9687,4.1783,3.9733,3.8151,3.941,3.9256,3.9199,3.9961,4.0176,4.0293,4.041,4.0801,4.1172,4.1484,4.1797,4.2109,4.2362,4.4036,4.5006,4.5006,4.8648,5.1673,5.3723,5.3785,5.3785,5.3785,5.4085,5.4285,5.4397,5.4682,5.5115,5.5595,5.5595,5.5816,5.6219,5.6219,5.6219,5.6219,5.6219,5.6219,5.6219,5.6219,5.6219,5.6219,5.6219,5.6219,5.6219,0.0,0.0,2.7106,2.7393,2.8068,2.8697,2.8966,2.9804,3.0402,0.0,0.0,0.0,0.0,0.0,0.0,2.9967,2.9398,2.868,2.7902,2.723,2.6243,2.4908,2.4597,2.4807,2.5573,2.5334,2.5974,2.7585,2.7315,2.7315,2.7615,2.8883,2.947,2.9589,3.2139,3.3222,3.3173,3.4026,3.5313,3.6879,3.8962,4.0273,4.123,4.3245,4.4044,4.4232,4.522,4.556,4.5679,4.659,4.3685,3.8566,3.2171,3.0608,3.1004,3.0055,2.9804,2.9804,2.9804,3.003,3.0387,3.0833,0.0,0.0,3.4511,3.5245,3.6677,4.0873,3.9214,3.7945,4.0759,3.8541,3.6641,3.7653,3.7637,3.8008,3.9414,3.9609,3.9668,3.9883,4.0273,4.0547,4.0625,4.1614,4.2339,4.2599,4.4479,4.5988,4.6874,4.8386,5.0505,5.3411,5.351,5.3606,5.3785,5.4197,5.4472,5.4645,5.5078,5.5448,5.5852,5.5852,5.5999,5.6219,5.6219,5.6219,5.6219,5.6219,5.6219,5.6219,5.6219,5.6219,5.6219,5.6219,5.6219,5.6219,0.0,0.0,2.7902,2.8577,2.8757,2.9026,2.9728,3.0837,3.163,0.0,3.2751,3.3275,0.0,0.0,0.0,0.0,3.0253,2.9907,2.9907,2.9205,2.8278,2.7093,2.6333,2.5932,2.5932,2.5274,2.5812,2.7585,2.6991,2.6979,2.759,2.875,2.9292,2.9397,3.1884,3.3003,3.306,3.4296,3.6312,3.8501,3.6065,3.6885,3.9725,4.1005,4.2252,4.3763,4.7328,4.8669,4.8631,4.8053,4.5477,4.113,3.347,3.2114,3.2964,3.0803,3.003,2.988,2.9804,2.9804,0.0,3.0124,3.0424,0.0,3.1855,3.322,3.4986,3.7569,3.6869,3.6426,3.8447,3.6176,3.4596,3.6318,3.624,3.6699,3.8652,3.8926,3.9082,3.9492,3.9902,4.0078,3.9844,4.1476,4.262,4.2807,4.5272,4.7738,4.997,4.8658,4.9435,5.2882,5.3066,5.3293,5.3726,5.4149,5.4608,5.5004,5.5411,5.5816,5.6219,5.6219,5.6219,5.6219,5.6219,5.6219,5.6219,5.6219,5.6219,5.6219,5.6219,5.6219,5.6219,5.6219,5.6219,5.6219,2.8278,2.8397,2.862,2.9279,2.9804,3.0358,3.1046,3.1794,3.2512,3.3036,3.3335,3.3455,3.3335,0.0,0.0,0.0,3.2317,3.1914,3.1914,3.0807,3.0013,2.9744,2.8637,2.8008,2.8008,2.7363,2.7225,2.7585,2.7369,2.7306,2.7454,2.8616,2.9139,2.9243,3.1839,3.2895,3.287,3.4668,3.6443,3.8178,3.9368,4.0922,4.2784,4.5513,4.6694,4.7002,4.7749,4.8072,4.746,4.3473,4.3037,4.2936,3.6058,3.4427,3.4703,3.2943,3.1486,3.0337,2.9905,2.9804,2.9765,2.9607,2.9836,0.0,3.2264,3.1761,3.2288,3.7029,3.5127,3.377,3.7628,3.5717,3.4056,3.5642,3.5971,3.6289,3.7086,3.7203,3.7242,3.732,3.7676,3.8301,3.9238,4.0046,4.0958,4.2146,4.5428,4.848,5.1056,5.0886,5.1233,5.2427,5.2873,5.3138,5.3258,5.4016,5.4608,5.5004,5.5411,5.5816,5.6219,5.6219,5.6219,5.6219,5.6219,5.6219,5.6219,5.6219,5.6219,5.6219,5.6219,5.6219,5.6219,5.6219,5.6219,5.6219,2.8517,2.8876,2.9309,2.9924,3.0582,3.1226,3.1914,3.2841,3.362,3.3949,3.4578,3.4877,3.4532,3.4502,0.0,0.0,0.0,0.0,3.2869,3.1901,3.1259,3.1017,3.0059,2.9209,2.8515,2.817,2.7803,2.7412,2.7335,2.7462,2.7761,2.8601,2.9142,2.9419,3.1303,3.2062,3.2084,3.476,3.6764,3.8266,3.9491,4.078,4.2268,4.55,4.6531,4.6476,4.8159,4.8912,4.8535,4.4392,4.3915,4.4242,3.9496,3.7037,3.573,3.4625,3.2742,3.0884,3.0357,3.0005,2.9702,2.9346,2.9386,0.0,0.0,2.9929,3.0468,3.474,3.3016,3.1896,3.569,3.4402,3.3044,3.3918,3.4347,3.4465,3.4159,3.6309,3.7851,3.7672,3.7988,3.8418,3.8848,4.0034,4.1482,4.317,4.5002,4.7017,4.939,4.9509,5.0245,5.185,5.2139,5.244,5.2705,5.358,5.4193,5.4623,5.5262,5.5816,5.6219,5.6219,5.6219,5.6219,5.6219,5.6219,5.6219,5.6219,5.6219,5.6219,5.6219,5.6219,5.6219,5.6219,5.6219,5.6219,2.8966,2.9385,3.0027,3.0761,3.1346,3.1959,3.2751,3.3903,3.4787,3.5027,3.5982,3.6606,3.6542,3.6078,3.5667,3.5475,0.0,0.0,3.3739,3.3086,3.2495,3.2005,3.1229,3.0203,2.8934,2.8772,2.8346,2.7578,2.7551,2.779,2.828,2.8788,2.9218,2.9607,3.0776,3.1357,3.1649,3.4989,3.7175,3.8499,3.9706,4.0619,4.1646,4.502,4.5799,4.5468,4.851,4.9891,4.9791,4.6803,4.6075,4.5874,4.2632,3.9798,3.7436,3.6183,3.3875,3.1607,3.106,3.0392,2.9818,2.9382,2.9165,2.8955,0.0,0.0,0.0,3.1923,3.0969,3.0575,3.3499,3.268,3.1662,3.2007,3.2669,3.2757,3.1658,3.556,3.8256,3.7453,3.7715,3.8135,3.8616,4.108,4.302,4.3961,4.4992,4.6132,4.7421,4.7765,4.8967,5.1117,5.1393,5.1706,5.2115,5.295,5.3668,5.4217,5.4978,5.5618,5.6219,5.6219,5.6219,5.6219,5.6219,5.6219,5.6219,5.6219,5.6219,5.6219,5.6219,5.6219,5.6219,5.6219,5.6219,5.6194,3.0283,3.0342,3.0791,3.2063,3.2333,3.2811,3.4069,3.4891,3.5789,3.6926,3.7054,3.7884,4.0132,3.8138,3.7559,3.978,3.7776,3.6173,3.5647,3.4981,3.4332,3.3731,3.2489,3.1471,3.0719,3.0115,2.9526,2.8891,2.8783,2.8743,2.8817,2.9304,2.9486,2.9491,3.0727,3.1809,3.2801,3.5811,3.759,3.8791,4.328,4.4696,4.4515,4.7869,4.8184,4.7048,4.8937,4.964,4.9414,4.7525,4.8203,4.9038,4.4292,4.2562,4.1557,3.804,3.5075,3.2788,3.219,3.1163,3.0189,2.9948,2.936,2.8781,2.8543,0.0,2.9319,2.9678,0.0,2.9826,3.1698,0.0,0.0,3.0738,3.2175,3.2809,3.1736,3.4233,3.5376,3.3198,3.3262,3.4945,3.852,4.3363,4.5252,4.2643,4.6722,4.8744,4.7551,4.885,4.9787,5.0081,5.0984,5.1513,5.1586,5.2163,5.3047,5.418,5.4327,5.5025,5.6219,5.6219,5.6219,5.6219,5.6219,5.6219,5.6219,5.6219,5.6219,5.6219,5.6219,5.6219,5.6219,5.6219,5.6219,5.6143,3.0731,3.112,3.1824,3.2392,3.3034,3.3854,3.4905,3.6168,3.7151,3.7594,3.8197,3.9147,4.0653,3.9416,3.9332,4.1444,3.9665,3.8758,3.9576,3.8005,3.7113,3.7311,3.499,3.3322,3.2568,3.1203,3.0119,2.9375,2.8982,2.8969,2.9304,2.9129,2.9305,2.9942,3.1685,3.3001,3.4155,3.834,4.0105,4.044,4.4506,4.5316,4.4443,4.7099,4.7701,4.7274,4.8636,4.9314,4.949,4.8786,4.8504,4.8328,4.7556,4.4869,4.1831,4.0827,3.7688,3.4502,3.4622,3.3463,3.2158,3.1902,3.1297,3.0493,2.9648,2.9605,2.9677,2.9364,0.0,0.0,0.0,0.0,0.0,0.0,3.0678,3.0968,2.9888,3.1228,3.2827,3.4185,3.4499,3.5541,3.7917,3.9793,4.0998,4.1321,4.3349,4.515,4.6486,4.7288,4.8376,4.9854,5.0346,5.0696,5.1032,5.1562,5.2296,5.3282,5.3885,5.4766,5.5742,5.6068,5.6219,5.6219,5.6219,5.6219,5.6219,5.6219,5.6219,5.6219,5.6219,5.6219,5.6219,5.6219,5.6018,5.5691,3.1527,3.2034,3.2736,3.293,3.3612,3.4588,3.5935,3.7349,3.8422,3.8819,3.9646,4.0813,4.2555,4.1044,4.1044,4.3821,4.1613,4.0803,4.2371,4.0479,3.9605,4.0302,3.7408,3.5455,3.4686,3.2964,3.1517,3.0393,2.9784,2.9681,3.0063,2.9392,2.9479,3.0209,3.1722,3.3439,3.5454,3.9547,4.1907,4.3134,4.5899,4.5974,4.4669,4.6271,4.6973,4.7249,4.8385,4.8837,4.8987,4.9439,4.8786,4.7914,4.8665,4.5746,4.2037,4.1907,3.9172,3.6254,3.675,3.5368,3.3958,3.4507,3.3196,3.167,3.1258,3.0615,0.0,0.0,0.0,0.0,0.0,0.0,0.0,0.0,0.0,2.9642,2.8589,2.9278,3.0984,3.3991,3.5374,3.6324,3.6853,3.7838,3.8915,4.0105,4.1142,4.274,4.5122,4.5355,4.6688,4.9363,4.9362,4.9661,5.0479,5.1008,5.1679,5.2441,5.2937,5.3849,5.5246,5.5319,5.5641,5.6219,5.6219,5.6219,5.6219,5.6219,5.6219,5.6219,5.6219,5.6118,5.5993,5.5993,5.5742,5.534,3.3133,3.3133,3.3371,3.401,3.4077,3.485,3.7352,3.8307,3.9456,4.1342,4.1438,4.2994,4.7407,4.343,4.2654,4.8017,4.4116,4.1796,4.2906,4.1749,4.1288,4.1914,3.9457,3.7816,3.7209,3.5911,3.4317,3.2409,3.1742,3.1352,3.1225,3.062,3.0214,3.0004,3.009,3.2433,3.6457,3.824,4.2057,4.7023,4.8209,4.7707,4.6225,4.6301,4.6647,4.7249,4.8385,4.8109,4.7425,4.9063,4.9565,0.0,0.0,4.4597,4.3357,4.0007,3.8455,3.7843,3.8014,3.6252,3.5011,3.7589,3.4558,3.1436,3.3453,3.1915,2.9962,0.0,0.0,0.0,0.0,0.0,0.0,0.0,0.0,0.0,0.0,2.9405,3.0169,3.0367,3.4045,3.6205,3.5262,4.0072,4.2079,0.0,4.2206,4.3994,4.3595,4.371,4.5176,4.8257,4.7983,4.845,4.9902,5.0455,5.1198,5.2074,5.0973,5.1958,5.4776,5.3668,5.4292,5.6219,5.6219,5.6219,5.6219,5.6219,5.6219,5.6219,5.6219,5.5892,5.5415,5.5415,5.539,5.5239,3.4205,3.4188,3.4178,3.4072,3.462,3.5744,3.7766,3.8706,4.0139,4.2747,4.3194,4.4602,4.8058,4.6136,4.5867,4.9024,4.6684,4.5696,4.7271,4.6276,4.5644,4.5766,4.3381,4.1128,3.9199,3.7063,3.5055,3.3167,3.1956,3.1338,3.1271,3.011,2.9715,3.0053,3.1431,3.4467,3.8718,4.0753,4.394,4.7682,4.8058,4.723,4.5974,4.7782,4.7933,4.7269,4.85,4.9089,0.0,4.9355,4.8943,4.8061,4.6445,4.4421,4.2267,4.0729,3.9081,3.7991,0.0,0.0,3.74,3.7992,3.5817,3.3649,3.4028,3.2294,0.0,0.0,0.0,0.0,0.0,0.0,0.0,0.0,0.0,0.0,0.0,2.9221,2.9896,3.0301,3.2039,3.3566,3.441,0.0,0.0,0.0,3.9373,0.0,4.2954,4.3113,4.4757,4.8185,4.8519,4.9043,4.9889,5.0431,5.0969,5.1503,5.1713,5.2506,5.3744,5.3984,5.4508,5.5175,5.5516,5.5666,5.5691,5.6068,5.5993,5.5666,5.5666,5.534,5.4924,5.5265,5.4913,5.416,3.4218,3.4152,3.4077,3.4117,3.4968,3.6295,3.8193,3.9593,4.1249,4.3427,4.4691,4.6087,4.7919,4.7157,4.745,4.975,4.8124,4.7799,4.9764,4.8586,4.8069,4.8635,4.6072,4.3751,4.1869,3.8825,3.6335,3.4443,3.2309,3.1199,3.1116,2.9962,2.9588,3.0001,3.1534,3.4572,3.8693,4.1279,4.4066,4.6753,4.6954,4.6232,4.5232,4.7073,4.6942,4.6013,0.0,4.7929,4.7476,4.7237,4.6715,4.597,4.5074,4.3287,4.1383,4.0583,3.9372,3.8444,3.9519,3.9061,0.0,3.9498,3.7613,0.0,3.6274,0.0,3.3044,0.0,0.0,0.0,0.0,0.0,0.0,0.0,0.0,0.0,0.0,2.8967,2.9423,2.9788,3.0754,3.2089,0.0,0.0,0.0,0.0,0.0,3.9273,0.0,4.2156,4.3668,4.7897,4.7307,4.7526,4.8742,4.9322,4.9783,5.0163,5.0925,5.189,5.2996,5.3201,5.3758,5.4622,5.4974,5.5125,5.5114,5.5491,5.5415,5.5125,5.5125,5.4773,5.4346,5.4662,5.421,5.3381,3.335,3.322,3.3254,3.4182,3.5206,3.6653,3.8772,4.0931,4.2628,4.3471,4.5874,4.7457,4.7298,4.679,4.7571,5.0388,4.8564,4.8153,5.026,4.884,4.8625,5.0301,4.76,4.5766,4.5057,4.1152,3.8167,3.624,3.2818,3.1055,3.0869,3.028,2.9931,2.9804,3.0357,3.2742,3.6606,3.9772,4.2532,4.4761,4.5438,4.5123,4.4301,4.4468,4.4033,4.3576,4.587,4.4879,4.2572,4.3141,4.3297,4.3057,4.1994,4.1355,4.0752,3.9542,3.9195,3.9233,3.9333,3.8542,3.8465,4.1826,3.9594,0.0,0.0,0.0,3.6707,0.0,0.0,0.0,0.0,0.0,0.0,0.0,0.0,0.0,0.0,0.0,0.0,0.0,0.0,0.0,0.0,0.0,0.0,0.0,0.0,3.8818,4.2477,4.0881,4.2164,4.7248,4.4641,4.4264,4.6562,4.7277,4.7806,4.8085,4.8647,5.0175,5.2392,5.1405,5.2269,5.4486,5.4476,5.4476,5.4572,5.4394,5.4394,5.444,5.444,5.4125,5.3658,5.3658,5.3287,5.2792,3.3602,3.3777,3.4088,3.4782,3.6471,3.8285,4.0011,4.1012,4.234,4.4488,4.5522,4.6656,4.8221,4.9341,5.0293,5.1035,5.0161,4.9784,5.0361,5.0464,5.0312,4.983,4.9932,4.8587,4.5675,4.2531,3.9572,3.6795,3.327,3.1307,3.0895,3.0196,2.9846,2.9804,3.0357,3.2742,3.6505,3.814,4.1643,4.6251,4.8209,4.7392,4.5155,4.6496,4.4767,4.1917,4.4202,4.493,4.4776,4.4405,4.3488,4.2316,4.1487,4.0274,3.9177,3.8826,3.8992,3.9146,3.8885,3.8806,3.8862,3.9109,3.7646,3.6535,0.0,0.0,0.0,0.0,0.0,0.0,0.0,0.0,0.0,0.0,0.0,0.0,0.0,0.0,0.0,2.8578,0.0,0.0,0.0,0.0,0.0,0.0,0.0,3.831,4.086,4.1643,4.314,4.5638,4.5746,4.5602,4.5297,4.6288,4.6215,4.5141,4.8008,4.9532,4.9901,5.1371,5.2346,5.2939,5.2441,5.2861,5.3758,5.1885,5.1559,5.2231,5.2231,5.2576,5.3096,5.3096,5.2313,5.1198,3.386,3.4464,3.509,3.5564,3.7678,3.9848,4.1459,4.312,4.4792,4.6542,4.7724,4.856,4.9095,5.0451,5.1306,5.1306,5.0971,5.0896,5.1147,5.1059,5.0825,5.0351,5.0518,4.9611,4.7499,4.4465,4.1459,3.852,3.4817,3.2234,3.0759,3.0345,3.0156,3.0206,3.1235,3.2975,3.5292,3.7693,4.1087,4.5011,4.6135,4.5172,0.0,4.4123,4.2964,4.0927,4.2027,4.2777,4.3112,4.2716,4.1819,4.0829,4.059,3.9636,3.8611,3.8611,3.8613,3.8594,3.8359,3.8613,3.8848,3.8555,3.7949,3.7602,3.8416,3.7834,3.7303,0.0,3.7247,3.6635,0.0,0.0,0.0,0.0,0.0,0.0,0.0,0.0,0.0,0.0,0.0,0.0,0.0,0.0,0.0,0.0,0.0,0.0,4.1079,4.1252,4.2517,4.5349,4.5204,4.4402,4.306,4.5174,4.5114,4.2992,4.6487,4.8081,4.7877,4.9402,5.0151,5.0293,5.0115,5.0544,5.121,4.9803,4.9537,5.0041,5.0041,5.0413,5.0882,5.0882,5.0776,5.0505,3.4349,3.5335,3.6196,3.6548,3.8894,4.1329,4.3137,4.5799,4.7857,4.8592,5.0469,5.1247,4.9866,5.0845,5.1624,5.1733,5.1682,5.1774,5.2176,5.1222,5.0795,5.1147,5.0293,4.9741,4.959,4.6552,4.351,4.06,3.6861,3.3574,3.0814,3.0738,3.0738,3.0864,3.2369,3.3361,3.4147,3.8016,4.0789,4.2552,4.2387,4.1562,4.0454,4.0495,4.0525,4.045,4.0176,4.0,3.9902,3.9902,3.9629,3.9355,3.9766,3.9414,3.8865,3.8806,3.8516,3.8186,3.803,3.8281,3.8689,3.9023,3.9121,3.9238,3.9707,3.9838,3.9891,3.9812,3.8663,3.7624,0.0,0.0,0.0,0.0,0.0,0.0,0.0,0.0,0.0,0.0,0.0,0.0,0.0,0.0,0.0,0.0,0.0,0.0,4.1472,4.0165,4.1039,4.4824,4.3482,4.2091,4.0891,4.3846,4.4113,4.1731,4.4819,4.6211,4.6152,4.6802,4.7279,4.7526,4.784,4.8118,4.8263,4.7863,4.779,4.8009,4.8009,4.8118,4.8263,4.8045,4.884,4.9807,3.5991,3.6519,3.7152,3.7637,4.0049,4.2763,4.5321,4.5824,4.6426,4.7883,4.9213,5.0092,5.0243,5.2076,5.3457,5.3994,5.3557,5.313,5.277,5.2176,5.1448,5.0594,5.0845,5.0544,4.9615,4.7651,4.4865,4.1177,3.8216,3.5102,3.1893,3.1461,3.1512,3.1943,3.2504,3.3947,3.6142,3.8852,4.0723,4.2016,4.3464,4.3322,4.2266,4.2733,4.1877,4.0566,4.084,4.0488,3.9902,3.9902,3.9844,3.9785,3.9863,4.0019,4.0117,3.9766,3.9863,3.9824,3.875,3.8552,3.863,3.8708,3.8728,3.8789,3.9219,3.9325,3.9338,3.9351,3.8832,3.8626,3.9295,0.0,0.0,0.0,0.0,0.0,0.0,0.0,0.0,0.0,0.0,0.0,0.0,0.0,0.0,0.0,0.0,0.0,0.0,3.9342,3.985,3.9878,4.1,4.1465,0.0,0.0,4.2384,4.2266,4.4199,4.4704,4.41,4.6137,4.7118,4.7169,4.6581,4.7059,4.8081,4.5512,4.5175,4.6322,4.6322,4.7133,4.8154,4.6802,4.6507,4.6692,3.7236,3.7914,3.8567,3.8843,4.1178,4.384,4.6321,4.7481,4.8837,5.1071,5.1574,5.2051,5.2904,5.3683,5.4295,5.4572,5.4346,5.4059,5.3783,5.3005,5.2243,5.1716,5.1147,5.072,5.0469,4.9113,4.6471,4.2582,4.0399,3.7337,3.3473,3.2814,3.2625,3.2909,3.3715,3.529,3.7488,3.9258,4.0212,4.0733,4.2535,4.2712,4.1973,4.2454,4.2129,4.1465,4.1504,4.123,4.084,4.0625,4.041,4.0215,4.0215,4.0215,4.0156,3.9961,4.0039,4.0059,3.9434,3.9258,3.9199,3.8965,3.873,3.8669,3.8828,3.8887,3.8945,3.916,3.9043,3.8874,3.8719,3.9125,0.0,0.0,0.0,0.0,0.0,0.0,0.0,0.0,0.0,0.0,0.0,0.0,0.0,0.0,0.0,0.0,0.0,3.837,3.8755,3.9673,0.0,0.0,3.8637,0.0,4.1476,3.9782,4.1878,4.2663,4.235,4.3743,4.4327,4.4327,4.4386,4.4838,4.5453,4.4163,4.405,4.4687,4.4687,4.5175,4.5751,4.4988,4.4687,4.4687,3.9346,4.0224,4.0953,4.1078,4.2986,4.5271,4.745,4.9382,5.1523,5.4069,5.421,5.4411,5.529,5.525,5.5074,5.4974,5.5013,5.4974,5.4622,5.3858,5.3196,5.2744,5.1565,5.1046,5.1306,5.0419,4.8127,4.4402,4.268,3.9394,3.4719,3.4833,3.4929,3.509,3.6027,3.7149,3.8288,3.9311,3.9664,3.9742,4.1285,4.1693,4.1367,4.1875,4.2168,4.2226,4.2031,4.1816,4.1621,4.1328,4.0937,4.0664,4.0664,4.043,4.0156,4.0059,4.0019,4.0019,3.9922,3.9902,3.9824,3.9551,3.916,3.8904,3.8904,3.8747,3.8708,3.9004,3.9141,3.9096,3.8792,4.0388,0.0,0.0,0.0,0.0,0.0,0.0,0.0,0.0,0.0,0.0,0.0,0.0,0.0,0.0,0.0,0.0,3.9133,3.7866,3.7965,3.9923,4.0302,3.9254,3.6664,0.0,4.0863,3.87,4.0325,4.1126,4.1211,4.1618,4.1811,4.185,4.2659,4.3042,4.3157,4.3462,4.3615,4.3615,4.3615,4.3615,4.3615,4.3615,4.3615,4.3615,4.3714,4.4518,4.5095,4.5598,4.6296,4.7525,4.9733,5.072,5.1825,5.3557,5.4637,5.5265,5.539,5.6244,5.6559,5.6093,5.6483,5.6168,5.4697,5.4974,5.426,5.2277,5.2468,5.2251,5.1297,5.1205,4.9554,4.6339,4.4498,4.0563,3.4856,3.7887,3.9551,4.0045,4.0292,3.9591,3.8344,3.8924,3.9445,3.9951,4.0894,4.1484,4.1836,4.2656,4.25,4.1894,4.2246,4.1875,4.1269,4.123,4.1191,4.1113,4.1113,4.1132,4.0976,4.0586,4.043,4.0333,4.0,3.9902,3.998,4.0312,4.0078,3.9766,3.9766,3.9197,3.863,3.8669,3.8945,3.9875,4.2089,4.1488,4.0727,0.0,0.0,0.0,0.0,0.0,0.0,0.0,0.0,0.0,0.0,0.0,0.0,0.0,3.5203,0.0,0.0,3.8492,3.7819,3.7627,3.7694,3.8074,3.8725,3.8934,4.0375,4.3084,4.1748,4.1126,4.1211,4.1618,4.1811,4.185,4.2659,4.3195,4.3539,4.3577,4.3615,4.3615,4.3615,4.3615,4.3615,4.3615,4.3615,4.3615,4.5719,4.6296,4.6652,4.7179,4.8396,4.9559,5.0431,5.246,5.4006,5.4306,5.5246,5.6018,5.6344,5.7072,5.7474,5.7248,5.7424,5.7011,5.5753,5.5279,5.4373,5.2932,5.2164,5.1579,5.1132,5.0751,4.9347,4.6766,0.0,4.263,4.0526,3.9172,3.8741,3.9125,3.9292,3.9133,3.8807,3.9345,3.984,4.0332,4.0976,4.1582,4.2246,4.2851,4.3027,4.293,4.2851,4.2441,4.1894,4.1641,4.1387,4.1211,4.1211,4.1211,4.1172,4.0976,4.0918,4.0879,4.0703,4.0469,4.0312,4.045,4.0215,3.9902,3.9902,3.9629,3.9297,3.9004,3.9082,3.9362,3.9845,4.0863,4.1583,4.143,0.0,0.0,0.0,0.0,0.0,0.0,0.0,0.0,0.0,0.0,0.0,0.0,0.0,0.0,0.0,3.8829,3.8871,3.8177,3.8459,3.8391,3.798,3.7882,3.8763,4.0612,4.0451,4.0661,4.1211,4.1366,4.1579,4.185,4.239,4.2889,4.3272,4.35,4.3615,4.3615,4.3615,4.3615,4.3615,4.3615,4.3615,4.3615,4.7746,4.8326,4.8661,4.9185,5.0505,5.155,5.1723,5.3827,5.5312,5.5126,5.5942,5.6638,5.6799,5.7512,5.785,5.7524,5.7648,5.7261,5.6067,5.5299,5.4337,5.3222,5.2091,5.1403,5.1255,5.0656,4.9557,4.7938,4.5877,4.4305,4.315,3.9607,3.8649,3.9917,3.973,3.9616,3.954,3.9924,4.0332,4.0762,4.1308,4.1973,4.2656,4.3105,4.3359,4.3457,4.3047,4.2617,4.2168,4.1758,4.1426,4.1211,4.1211,4.1211,4.1211,4.1211,4.1211,4.1211,4.1211,4.0957,4.0723,4.0723,4.0391,4.0078,4.0078,3.998,3.9805,3.9473,3.9199,3.8867,3.8379,4.0258,4.1629,4.0716,0.0,0.0,0.0,0.0,0.0,0.0,0.0,0.0,0.0,0.0,0.0,0.0,0.0,0.0,0.0,0.0,3.9217,3.8306,0.0,0.0,3.6696,3.6832,3.7617,3.9002,3.959,4.0351,4.1211,4.1211,4.1444,4.1811,4.212,4.2447,4.2851,4.3272,4.3424,4.3424,4.3539,4.3615,4.3577,4.3462,4.3424,4.3424,5.034,5.1225,5.1919,5.246,5.3025,5.353,5.407,5.4635,5.52,5.5716,5.6723,5.7147,5.6476,5.7421,5.7676,5.6712,5.7092,5.6723,5.5127,5.5004,5.4267,5.267,5.2583,5.2312,5.182,5.128,5.0754,5.036,4.8517,4.519,4.0417,3.9326,4.0719,4.4185,4.3259,4.1985,4.0488,4.0508,4.0762,4.1269,4.207,4.2676,4.3166,4.3535,4.3437,4.3027,4.2598,4.2168,4.1738,4.1328,4.1211,4.1211,4.1211,4.1211,4.1211,4.1211,4.1211,4.1211,4.1211,4.1211,4.1211,4.1211,4.084,4.0469,4.0469,4.0195,3.9902,3.9883,3.9236,3.8747,3.9101,4.0085,4.0294,3.8712,0.0,0.0,0.0,0.0,0.0,0.0,0.0,0.0,4.1947,0.0,0.0,0.0,0.0,0.0,0.0,0.0,0.0,3.7353,3.6566,0.0,3.5237,3.574,3.7324,3.9883,3.9883,4.0351,4.1211,4.1211,4.1444,4.1811,4.1811,4.2043,4.2447,4.2851,4.3024,4.3042,4.3424,4.3615,4.3539,4.3157,4.3024,4.2927,5.1575,5.2161,5.2498,5.3038,5.3655,5.4156,5.4327,5.5399,5.5723,5.4285,5.6371,5.7214,5.5074,5.6848,5.8122,5.7794,5.7942,5.7383,5.5841,5.5426,5.435,5.249,5.2078,5.1582,5.1073,5.1243,5.0941,5.0063,4.7664,4.4392,4.043,4.1586,4.1986,4.1687,4.1428,4.1162,4.0976,4.1269,4.1641,4.207,4.2637,4.2949,4.3125,4.3555,4.3613,4.3496,4.334,4.2832,4.2207,4.207,4.1641,4.1211,4.1211,4.1211,4.1211,4.1211,4.1211,4.1211,4.1211,4.1211,4.1211,4.1211,4.1113,4.0976,4.0976,4.0625,4.0234,3.9961,3.9668,3.9414,3.9238,3.9251,3.9093,3.8487,3.9904,0.0,3.9901,0.0,4.3013,0.0,0.0,0.0,0.0,4.3003,0.0,0.0,0.0,0.0,4.0531,0.0,0.0,0.0,3.9728,0.0,3.7952,3.7223,3.791,3.9902,3.9902,4.0351,4.1211,4.1211,4.1288,4.1405,4.1657,4.1889,4.2043,4.2428,4.26,4.2639,4.3042,4.3004,4.2792,4.2927,4.2812,4.2562,5.1561,5.1778,5.1714,5.141,5.1864,5.2275,5.2275,5.346,5.379,5.2315,5.4307,5.5141,5.3378,5.4789,5.635,5.7695,5.7813,5.7233,5.5907,5.5325,5.4316,5.268,5.1874,5.107,5.0102,5.022,4.965,4.8399,4.6128,4.3918,4.183,4.2476,4.2117,4.0996,4.0996,4.125,4.166,4.1933,4.2285,4.2695,4.2969,4.3183,4.334,4.3594,4.3711,4.3691,4.3535,4.3125,4.2656,4.244,4.207,4.1621,4.1465,4.1445,4.1426,4.125,4.1211,4.1211,4.1211,4.1211,4.1211,4.1211,4.1211,4.1211,4.1211,4.084,4.0449,4.0195,4.0,3.9746,3.9297,3.8984,3.875,3.8523,3.9578,4.0255,3.9788,0.0,4.2489,0.0,0.0,0.0,0.0,4.4264,4.4038,0.0,0.0,4.3681,4.1667,0.0,4.1839,4.0607,3.9908,3.9148,3.8278,3.7617,3.8164,3.9902,4.0215,4.0664,4.1211,4.1211,4.1211,4.1211,4.1483,4.1579,4.1618,4.2005,4.2177,4.2216,4.2621,4.2621,4.2408,4.2505,4.239,4.2139,5.0388,5.0229,4.985,4.825,4.8492,4.886,4.886,4.965,5.0202,5.008,5.1009,5.164,5.1514,5.164,5.3011,5.6358,5.6614,5.6136,5.5108,5.4535,5.3794,5.2804,5.1787,5.0537,4.8956,4.8484,4.7451,4.5838,4.4315,4.3745,4.4045,4.2167,4.1465,4.1836,4.1836,4.207,4.244,4.244,4.2715,4.3125,4.3125,4.3359,4.3711,4.3711,4.3711,4.3652,4.3262,4.3105,4.3008,4.2617,4.2421,4.2323,4.1973,4.1836,4.1758,4.1348,4.1211,4.1211,4.1211,4.1211,4.1211,4.1211,4.1211,4.1211,4.1211,4.0859,4.0528,4.0528,4.0234,3.9805,3.9375,3.9277,3.9121,3.8728,3.9806,4.0174,3.8678,4.0907,4.1658,0.0,0.0,0.0,0.0,4.4243,4.5047,0.0,0.0,4.3616,4.3369,0.0,4.1366,3.8973,3.7914,3.7199,3.6832,3.7226,3.8281,3.9941,4.082,4.1211,4.1211,4.1211,4.1211,4.1211,4.1211,4.1211,4.1211,4.1618,4.1773,4.1811,4.2216,4.237,4.2254,4.1927,4.1773,4.1695,4.8021,4.8305,4.8443,4.8056,4.8755,4.9402,4.9402,5.0193,5.0333,4.8923,5.0477,5.1179,4.9786,5.0885,5.2057,5.2887,5.2611,5.2141,5.1474,5.0999,5.0283,4.9243,4.8975,4.8316,4.7244,4.7465,4.6839,4.5226,4.4429,4.362,4.2803,4.2327,4.2187,4.2285,4.2285,4.2519,4.293,4.293,4.3164,4.3555,4.3555,4.3613,4.3711,4.3711,4.3711,4.3691,4.3594,4.3359,4.3066,4.2949,4.2695,4.2362,4.2305,4.2285,4.2129,4.1387,4.1211,4.1211,4.1211,4.1211,4.1211,4.1211,4.1211,4.1211,4.1211,4.1094,4.1016,4.1016,4.0664,4.0332,4.0196,3.9941,3.959,3.9121,3.9338,3.9518,3.9268,3.9371,3.9837,0.0,4.1133,4.1661,4.2865,4.4357,4.4731,0.0,0.0,4.4897,4.2195,4.2282,4.194,4.0857,3.9855,3.8948,3.8161,3.8535,3.9297,4.0333,4.0918,4.1211,4.1211,4.1211,4.1211,4.1211,4.1211,4.1211,4.1211,4.1618,4.1618,4.1405,4.21,4.2043,4.1502,4.1734,4.1618,4.1327,4.6958,4.6993,4.6987,4.6151,4.6527,4.688,4.688,4.7692,4.7919,4.6929,4.82,4.8868,4.7857,4.8469,4.8941,4.8941,5.0394,5.0983,5.0243,4.9978,4.9428,4.8388,4.8148,4.7428,4.6159,4.618,4.555,4.4119,4.3596,4.3141,4.2715,4.2479,4.2499,4.2715,4.2715,4.2969,4.3359,4.3359,4.3496,4.3711,4.3711,4.3711,4.3711,4.3711,4.3711,4.3711,4.3711,4.3555,4.3359,4.3359,4.3203,4.2969,4.2793,4.2715,4.2558,4.1719,4.1465,4.1426,4.1269,4.1211,4.1211,4.1211,4.1211,4.1211,4.1211,4.1211,4.1211,4.1211,4.0976,4.0762,4.0566,4.0332,4.0039,3.959,3.9004,3.8649,3.8769,3.8251,3.8347,3.9605,4.0356,4.1047,4.1918,4.3344,4.3893,4.3018,4.3848,0.0,4.1682,4.1165,4.082,4.0607,3.978,3.9094,3.8611,3.9199,3.9863,4.0489,4.0976,4.1211,4.1211,4.1211,4.1211,4.1211,4.1211,4.1211,4.1211,4.1444,4.1405,4.125,4.1657,4.1579,4.1211,4.1444,4.1405,4.1211,4.6184,4.59,4.5454,4.3939,4.3711,4.3711,4.3711,4.4394,4.4961,4.4977,4.5723,4.623,4.6289,4.5918,4.5703,4.5805,4.8877,5.0412,4.9489,4.9424,4.9016,4.8175,4.7752,4.6844,4.5365,4.4856,4.416,4.3183,4.2793,4.2812,4.3164,4.2793,4.2812,4.3183,4.3183,4.3359,4.3711,4.3711,4.3711,4.3711,4.3711,4.3711,4.3711,4.3789,4.3808,4.3808,4.3887,4.3906,4.3887,4.3828,4.3808,4.373,4.3301,4.3166,4.293,4.2129,4.1855,4.1699,4.1328,4.1211,4.1211,4.1211,4.1211,4.1211,4.1211,4.1211,4.1211,4.1211,4.1211,4.1055,4.0684,4.0625,4.0449,3.9883,3.8848,3.8011,3.7851,3.7578,3.7402,3.7402,3.9191,4.0463,4.0463,4.1806,4.2683,4.2683,4.1878,4.1348,4.1203,3.9868,3.9155,3.9246,3.8807,3.8669,3.8806,3.959,4.0195,4.0625,4.0996,4.1211,4.1211,4.1211,4.1211,4.1211,4.1211,4.1211,4.1211,4.125,4.125,4.1211,4.125,4.125,4.1211,4.1211,4.1211,4.1211,4.4145,4.4103,4.4021,4.3752,4.3711,4.3711,4.3711,4.416,4.4629,4.498,4.5469,4.5918,4.6269,4.5918,4.582,4.6172,4.6481,4.6385,4.5825,4.5805,4.5586,4.5111,4.5328,4.5024,4.4025,4.3885,4.3782,4.3613,4.3535,4.3535,4.3613,4.3535,4.3535,4.3613,4.3613,4.3633,4.3711,4.3711,4.3711,4.3711,4.3711,4.3711,4.375,4.4141,4.4297,4.4336,4.4687,4.4824,4.4766,4.4414,4.4297,4.4219,4.375,4.3359,4.3029,4.248,4.207,4.1699,4.1328,4.1211,4.1211,4.1211,4.1211,4.1211,4.1211,4.1211,4.1211,4.1211,4.1211,4.1191,4.1074,4.1074,4.0684,3.9492,3.9141,3.8633,3.7539,3.7637,3.7832,3.7832,3.8478,3.8918,3.8918,4.0284,4.1155,4.1155,4.0994,4.059,3.9855,3.9084,3.8527,3.8153,3.8445,3.8945,3.9687,4.0176,4.0644,4.1074,4.1191,4.1211,4.1211,4.1211,4.1211,4.1211,4.1211,4.1211,4.1211,4.156,4.1521,4.1211,4.1579,4.1521,4.1211,4.1211,4.1211,4.1211,4.3711,4.3711,4.3711,4.3711,4.3711,4.3711,4.3711,4.4101,4.4473,4.4668,4.5273,4.5664,4.5625,4.5644,4.5664,4.5625,4.5644,4.5586,4.5391,4.5371,4.5176,4.4746,4.4879,4.4801,4.4414,4.4414,4.4414,4.4414,4.4414,4.4414,4.4414,4.418,4.4082,4.4062,4.3808,4.3711,4.3711,4.3711,4.3848,4.4082,4.4082,4.4219,4.4433,4.4648,4.4726,4.4766,4.4918,4.4977,4.4957,4.4805,4.459,4.4355,4.4141,4.3613,4.2988,4.2558,4.1973,4.1465,4.1269,4.1211,4.1211,4.1211,4.1211,4.1211,4.1211,4.1211,4.1211,4.1211,4.1211,4.1211,4.1211,4.1211,4.082,3.9746,3.9355,3.8828,3.7773,3.8008,3.8281,3.8281,3.8867,3.9297,3.9297,3.9923,4.0328,4.0328,4.0328,4.0148,3.9726,3.9468,3.9199,3.8984,3.918,3.959,4.0234,4.043,4.0742,4.1211,4.1211,4.1211,4.1211,4.1211,4.1211,4.1211,4.1211,4.1211,4.1211,4.1405,4.1366,4.1211,4.1405,4.1366,4.1211,4.1211,4.1211,4.1211,4.3711,4.3711,4.3711,4.3711,4.3711,4.3711,4.3711,4.4004,4.4316,4.4512,4.5117,4.5469,4.5332,4.5527,4.5586,4.5351,4.5547,4.5766,4.582,4.582,4.5625,4.5195,4.5176,4.5234,4.5312,4.5312,4.5273,4.5176,4.5176,4.5117,4.4977,4.4687,4.4551,4.4531,4.416,4.4004,4.4004,4.4004,4.4219,4.4551,4.4551,4.4726,4.4996,4.5137,4.5176,4.5195,4.5293,4.5312,4.5312,4.5215,4.4902,4.4531,4.4433,4.3789,4.2988,4.2558,4.1836,4.1211,4.1211,4.1211,4.1211,4.1211,4.1211,4.1211,4.1211,4.1211,4.1211,4.1211,4.1211,4.1211,4.1211,4.1211,4.0898,4.0039,3.959,3.9141,3.8476,3.8574,3.8789,3.9004,3.9531,3.9902,3.9902,3.9902,3.9902,3.9902,3.9902,3.9902,3.9902,3.9902,3.9941,4.0039,4.0039,4.0195,4.0527,4.0625,4.084,4.1211,4.1211,4.1211,4.1211,4.1211,4.1211,4.1211,4.1211,4.1211,4.1211,4.1211,4.1211,4.1211,4.1211,4.1211,4.1211,4.1211,4.1211,4.1211,4.3711,4.3711,4.3711,4.3711,4.3711,4.3711,4.3711,4.373,4.4043,4.4863,4.4996,4.5371,4.6133,4.5898,4.582,4.6172,4.5879,4.584,4.623,4.625,4.6074,4.5688,4.5625,4.5801,4.6191,4.6211,4.6016,4.5625,4.5625,4.543,4.4977,4.4957,4.498,4.4938,4.4899,4.4879,4.4879,4.4879,4.4899,4.498,4.498,4.4957,4.5058,4.5469,4.5625,4.5683,4.6074,4.6211,4.6152,4.5762,4.5332,4.4902,4.4531,4.3789,4.2988,4.2558,4.1836,4.1211,4.1211,4.1211,4.1211,4.1211,4.1211,4.1211,4.1211,4.1211,4.1211,4.1211,4.1211,4.1211,4.1211,4.1211,4.0898,4.0039,3.9863,3.9824,3.9766,3.9414,3.9453,4.0235,4.0098,3.9902,3.9902,3.9902,3.9902,3.9902,3.9902,3.9902,3.9902,3.9902,4.0078,4.043,4.0469,4.045,4.0489,4.0918,4.1191,4.1211,4.1211,4.1211,4.1211,4.1211,4.1211,4.1211,4.1211,4.1211,4.1211,4.1211,4.1211,4.1211,4.1211,4.1211,4.1211,4.1211,4.1211,4.1211,4.3711,4.3711,4.3711,4.3711,4.3711,4.3711,4.3711,4.3945,4.4258,4.459,4.5098,4.5449,4.5508,4.584,4.6016,4.5918,4.6016,4.6133,4.6289,4.6055,4.5957,4.6055,4.6055,4.6133,4.6289,4.6308,4.623,4.6055,4.6055,4.5976,4.5801,4.5547,4.543,4.541,4.5137,4.4977,4.4977,4.4977,4.5176,4.543,4.543,4.5586,4.584,4.5996,4.6055,4.6094,4.625,4.6308,4.6289,4.6113,4.5605,4.4957,4.4844,4.4004,4.2949,4.2246,4.1621,4.1211,4.1211,4.1211,4.1211,4.1211,4.1211,4.1211,4.1211,4.1211,4.1211,4.1211,4.1211,4.1211,4.1211,4.1211,4.0898,4.0039,4.0351,4.0508,3.998,4.0195,4.0547,4.0879,4.0781,4.0722,4.0722,4.0722,4.0722,4.0722,4.0722,4.0722,4.0722,4.0722,4.0762,4.0918,4.0918,4.0918,4.0918,4.1094,4.1211,4.1211,4.1211,4.1211,4.1211,4.1211,4.1211,4.1211,4.1211,4.1211,4.1211,4.1211,4.1211,4.1211,4.1211,4.1211,4.1211,4.1211,4.1211,4.1211,4.3711,4.3711,4.375,4.3887,4.3808,4.3789,4.4082,4.4277,4.4492,4.4766,4.5312,4.5625,4.5449,4.5957,4.6191,4.5898,4.6133,4.6308,4.6308,4.6035,4.5937,4.6094,4.6113,4.6172,4.6289,4.6308,4.6308,4.6308,4.6308,4.6308,4.6289,4.6016,4.5879,4.5859,4.5566,4.543,4.543,4.543,4.5605,4.5879,4.5879,4.6055,4.6308,4.6308,4.6308,4.6308,4.6308,4.6308,4.6308,4.6308,4.5742,4.4977,4.4977,4.4043,4.2754,4.2168,4.1601,4.1211,4.1211,4.1211,4.1211,4.1211,4.1211,4.1211,4.1211,4.1211,4.1211,4.1211,4.1211,4.1211,4.1211,4.1211,4.0976,4.0391,4.082,4.1015,4.0371,4.0801,4.1211,4.1211,4.1211,4.1211,4.1211,4.1211,4.1211,4.1211,4.1211,4.1211,4.1211,4.1211,4.1211,4.1211,4.1211,4.1211,4.1211,4.1211,4.1211,4.1211,4.1211,4.1211,4.1211,4.1211,4.1211,4.1211,4.1211,4.1211,4.1211,4.1211,4.1211,4.1211,4.1211,4.1211,4.1211,4.1211,4.1211,4.1211,4.3711,4.3711,4.3848,4.4316,4.4023,4.4004,4.484,4.4668,4.4707,4.5609,4.5683,4.584,4.625,4.6308,4.6308,4.6308,4.6308,4.6308,4.6289,4.6289,4.6113,4.5746,4.5683,4.5879,4.6289,4.6308,4.6308,4.6308,4.6308,4.6308,4.6308,4.6308,4.6308,4.6308,4.6308,4.6308,4.6308,4.6308,4.6308,4.6308,4.6308,4.6308,4.6308,4.6308,4.6308,4.6308,4.6308,4.6308,4.6308,4.6308,4.5742,4.4977,4.4977,4.3787,4.2382,4.2382,4.1836,4.1211,4.1211,4.1211,4.1211,4.1211,4.1211,4.1211,4.1211,4.1211,4.1211,4.1211,4.1211,4.1211,4.1211,4.1211,4.1211,4.1211,4.1211,4.1211,4.1211,4.1211,4.1211,4.1211,4.1211,4.1211,4.1211,4.1211,4.1211,4.1211,4.1211,4.1211,4.1211,4.1211,4.1211,4.1211,4.1211,4.1211,4.1211,4.1211,4.1211,4.1211,4.1211,4.1211,4.1211,4.1211,4.1211,4.1211,4.1211,4.1211,4.1211,4.1211,4.1211,4.1211,4.1211,4.1211,4.1211,4.1211,4.1211,4.1211,4.3711,4.3711,4.375,4.3887,4.4062,4.4277,4.4551,4.5,4.5433,4.5688,4.5937,4.6172,4.6289,4.6308,4.6308,4.6308,4.6308,4.6172,4.5879,4.5859,4.5801,4.5727,4.5957,4.6172,4.6308,4.6308,4.6308,4.6308,4.6308,4.6308,4.6308,4.6308,4.6308,4.6308,4.6308,4.6308,4.6308,4.6308,4.6308,4.6308,4.6308,4.6308,4.6308,4.6308,4.6308,4.6308,4.6308,4.6308,4.6308,4.6308,4.5742,4.4879,4.4297,4.332,4.2382,4.2382,4.1836,4.1211,4.1211,4.1211,4.1211,4.1211,4.1211,4.1211,4.1211,4.1211,4.1211,4.1211,4.1211,4.1211,4.1211,4.1211,4.1211,4.1211,4.1211,4.1211,4.1211,4.1211,4.1211,4.1211,4.1211,4.1211,4.1211,4.1211,4.1211,4.1211,4.1211,4.1211,4.1211,4.1211,4.1211,4.1211,4.1211,4.1211,4.1211,4.1211,4.1211,4.1211,4.1211,4.1211,4.1211,4.1211,4.1211,4.1211,4.1211,4.1211,4.1211,4.1211,4.1211,4.1211,4.1211,4.1211,4.1211,4.1211,4.1211,4.1211,4.3984,4.3984,4.4043,4.4199,4.4316,4.457,4.5078,4.5449,4.5785,4.5898,4.6152,4.6308,4.6308,4.6308,4.6308,4.6308,4.6308,4.6191,4.5937,4.5918,4.5918,4.5918,4.6172,4.6308,4.6308,4.6308,4.6308,4.6308,4.6308,4.6308,4.6308,4.6308,4.6308,4.6308,4.6308,4.6308,4.6308,4.6308,4.6308,4.6308,4.6308,4.6308,4.6308,4.6308,4.6308,4.6308,4.6308,4.6308,4.6289,4.6113,4.5488,4.4648,4.3926,4.3125,4.2421,4.2637,4.1973,4.125,4.1387,4.1348,4.1211,4.1211,4.1211,4.1211,4.1211,4.1211,4.1211,4.1211,4.1211,4.1211,4.1211,4.1211,4.1211,4.1211,4.1211,4.1211,4.1211,4.1211,4.1211,4.1211,4.1211,4.1211,4.1211,4.1211,4.1211,4.1211,4.1211,4.1211,4.1211,4.1211,4.1211,4.1211,4.1211,4.1211,4.1211,4.1211,4.1211,4.1211,4.1211,4.1211,4.1211,4.1211,4.1211,4.1211,4.1211,4.1211,4.1211,4.1211,4.1211,4.1211,4.1211,4.1211,4.1211,4.1211,4.1211,4.1211,4.4394,4.4394,4.4531,4.4961,4.4746,4.4902,4.6074,4.5957,4.5879,4.625,4.6308,4.6308,4.6308,4.6308,4.6308,4.6308,4.6308,4.6308,4.6308,4.6308,4.6308,4.6308,4.6308,4.6308,4.6308,4.6308,4.6308,4.6308,4.6308,4.6308,4.6308,4.6308,4.6308,4.6308,4.6308,4.6308,4.6308,4.6308,4.6308,4.6308,4.6308,4.6308,4.6308,4.6308,4.6308,4.6308,4.6308,4.6289,4.6172,4.5723,4.5039,4.4316,4.3848,4.3144,4.2558,4.2949,4.2247,4.1348,4.1699,4.1484,4.1211,4.1211,4.1211,4.1211,4.1211,4.1211,4.1211,4.1211,4.1211,4.1211,4.1211,4.1211,4.1211,4.1211,4.1211,4.1211,4.1211,4.1211,4.1211,4.1211,4.1211,4.1211,4.1211,4.1211,4.1211,4.1211,4.1211,4.1211,4.1211,4.1211,4.1211,4.1211,4.1211,4.1211,4.1211,4.1211,4.1211,4.1211,4.1211,4.1211,4.1211,4.1211,4.1211,4.1211,4.1211,4.1211,4.1211,4.1211,4.1211,4.1211,4.1211,4.1211,4.1211,4.1211,4.1211,4.1211,4.4336,4.4394,4.4531,4.4961,4.5234,4.5488,4.5781,4.6016,4.6191,4.6289,4.6308,4.6308,4.6308,4.6308,4.6308,4.6308,4.6308,4.6308,4.6308,4.6308,4.6308,4.6308,4.6308,4.6308,4.6308,4.6308,4.6308,4.6308,4.6308,4.6308,4.6308,4.6308,4.6308,4.6308,4.6308,4.6308,4.6308,4.6308,4.6308,4.6308,4.6308,4.6308,4.6308,4.6308,4.6308,4.6308,4.6308,4.6094,4.5703,4.4941,4.4551,4.4316,4.3848,4.334,4.2949,4.3087,4.2402,4.168,4.1777,4.1484,4.1211,4.1211,4.1211,4.1211,4.1211,4.1211,4.1211,4.1211,4.1211,4.1211,4.1211,4.1211,4.1211,4.1211,4.1211,4.1211,4.1211,4.1211,4.1211,4.1211,4.1211,4.1211,4.1211,4.1211,4.1211,4.1211,4.1211,4.1211,4.1211,4.1211,4.1211,4.1211,4.1211,4.1211,4.1211,4.1211,4.1211,4.1211,4.1211,4.1211,4.1211,4.1211,4.1211,4.1211,4.1211,4.1211,4.1211,4.1211,4.1211,4.1211,4.1211,4.1211,4.1211,4.1211,4.1211,4.1211,4.4648,4.4863,4.5078,4.5293,4.5527,4.5742,4.5937,4.6152,4.6308,4.6308,4.6308,4.6308,4.6308,4.6308,4.6308,4.6308,4.6308,4.6308,4.6308,4.6308,4.6308,4.6308,4.6308,4.6308,4.6308,4.6308,4.6308,4.6308,4.6308,4.6308,4.6308,4.6308,4.6308,4.6308,4.6308,4.6308,4.6308,4.6308,4.6308,4.6308,4.6308,4.6308,4.6308,4.6308,4.6308,4.6269,4.6074,4.5605,4.5,4.4551,4.4258,4.4023,4.3789,4.3418,4.3166,4.332,4.2773,4.2148,4.2344,4.1953,4.1465,4.1465,4.1328,4.1211,4.1211,4.1211,4.1211,4.1211,4.1211,4.1211,4.1211,4.1211,4.1211,4.1211,4.1211,4.1211,4.1211,4.1211,4.1211,4.1211,4.1211,4.1211,4.1211,4.1211,4.1211,4.1211,4.1211,4.1211,4.1211,4.1211,4.1211,4.1211,4.1211,4.1211,4.1211,4.1211,4.1211,4.1211,4.1211,4.1211,4.1211,4.1211,4.1211,4.1211,4.1211,4.1211,4.1211,4.1211,4.1211,4.1211,4.1211,4.1211,4.1211,4.1211,4.1211,4.1211,4.5117,4.543,4.5703,4.5781,4.5781,4.5898,4.625,4.6308,4.6308,4.6308,4.6308,4.6308,4.6308,4.6308,4.6308,4.6308,4.6308,4.6308,4.6308,4.6308,4.6308,4.6308,4.6308,4.6308,4.6308,4.6308,4.6308,4.6308,4.6308,4.6308,4.6308,4.6308,4.6308,4.6308,4.6308,4.6308,4.6308,4.6308,4.6308,4.6289,4.623,4.6191,4.6191,4.6113,4.6074,4.6035,4.5683,4.5058,4.4394,4.4316,4.4023,4.3711,4.3711,4.3457,4.3262,4.3594,4.3144,4.2617,4.2969,4.2441,4.1797,4.1797,4.1484,4.1211,4.1211,4.1211,4.1211,4.1211,4.1211,4.1211,4.1211,4.1211,4.1211,4.1211,4.1211,4.1211,4.1211,4.1211,4.1211,4.1211,4.1211,4.1211,4.1211,4.1211,4.1211,4.1211,4.1211,4.1211,4.1211,4.1211,4.1211,4.1211,4.1211,4.1211,4.1211,4.1211,4.1211,4.1211,4.1211,4.1211,4.1211,4.1211,4.1211,4.1211,4.1211,4.1211,4.1211,4.1211,4.1211,4.1211,4.1211,4.1211,4.1211,4.1211,4.1211,4.1211,4.5508,4.5688,4.5781,4.6152,4.6211,4.623,4.6289,4.6308,4.6308,4.6308,4.6308,4.6308,4.6308,4.6308,4.6308,4.6308,4.6308,4.6308,4.6308,4.6308,4.6308,4.6308,4.6308,4.6308,4.6308,4.6308,4.6308,4.6308,4.6308,4.6308,4.6308,4.6308,4.6308,4.6308,4.6308,4.6308,4.6308,4.6308,4.6308,4.6269,4.5918,4.5762,4.5723,4.5332,4.5195,4.5195,4.5137,4.4805,4.4336,4.3926,4.375,4.3711,4.3711,4.3672,4.3633,4.3691,4.3359,4.3008,4.3066,4.2441,4.1797,4.1797,4.1484,4.1211,4.1211,4.1211,4.1211,4.1211,4.1211,4.1211,4.1211,4.1211,4.1211,4.1211,4.1211,4.1211,4.1211,4.1211,4.1211,4.1211,4.1211,4.1211,4.1211,4.1211,4.1211,4.1211,4.1211,4.1211,4.1211,4.1211,4.1211,4.1211,4.1211,4.1211,4.1211,4.1211,4.1211,4.1211,4.1211,4.1211,4.1211,4.1211,4.1211,4.1211,4.1211,4.1211,4.1211,4.1211,4.1211,4.1211,4.1211,4.1211,4.1211,4.1211,4.1211,4.1211,4.5644,4.5859,4.6094,4.6269,4.6308,4.6308,4.6308,4.6308,4.6308,4.6308,4.6308,4.6308,4.6308,4.6308,4.6308,4.6308,4.6308,4.6308,4.6308,4.6308,4.6308,4.6308,4.6308,4.6308,4.6308,4.6308,4.6308,4.6308,4.6308,4.6308,4.6308,4.6308,4.6172,4.5957,4.5957,4.582,4.5586,4.5586,4.5586,4.5566,4.5391,4.5312,4.5293,4.5098,4.4977,4.4957,4.4766,4.4394,4.3984,4.3769,4.3711,4.3711,4.3711,4.3711,4.3711,4.3711,4.3574,4.3418,4.3418,4.2812,4.2148,4.2148,4.166,4.1211,4.1211,4.1211,4.1211,4.1211,4.1211,4.1211,4.1211,4.1211,4.1211,4.1211,4.1211,4.1211,4.1211,4.1211,4.1211,4.1211,4.1211,4.1211,4.1211,4.1211,4.1211,4.1211,4.1211,4.1211,4.1211,4.1211,4.1211,4.1211,4.1211,4.1211,4.1211,4.1211,4.1211,4.1211,4.1211,4.1211,4.1211,4.1211,4.1211,4.1211,4.1211,4.1211,4.1211,4.1211,4.1211,4.1211,4.1211,4.1211,4.1211,4.1211,4.1211,4.1211]},{"header":{"parameterUnit":"m.s-1","parameterCategory":1,"la1":30.6,"la2":28.766,"lo1":-90.7593,"lo2":-88.6598,"dx":0.0162,"dy":0.0183,"nx":116,"ny":114,"refTime":"2022-11-09T06:00:00:Z","depth":0,"parameterNumber":3,"parameterNumberName":"V-component_of_WINDS"},"data":[0.0,0.0,0.0,0.0,0.0,0.0,0.0,0.0,0.0,0.0,0.0,0.0,0.0,0.0,0.0,0.0,0.0,0.0,0.0,0.0,0.0,0.0,0.0,0.0,0.0,0.0,0.0,0.0,0.0,0.0,0.0,0.0,0.0,0.0,0.0,0.0,0.0,0.0,0.0,0.0,0.0,0.0,0.0,0.0,0.0,0.0,0.0,0.0,0.0,0.0,0.0,0.0,0.0,0.0,0.0,0.0,0.0,0.0,0.0,0.0,0.0,0.0,0.0,0.0,0.0,0.0,0.0,0.0,0.0,0.0,0.0,0.0,0.0,0.0,0.0,0.0,0.0,0.0,0.0,0.0,0.0,0.0,0.0,0.0,0.0,0.0,0.0,0.0,0.0,0.0,0.0,0.0,0.0,0.0,0.0,0.0,0.0,0.0,0.0,0.0,0.0,0.0,0.0,0.0,0.0,0.0,0.0,0.0,0.0,0.0,0.0,0.0,0.0,0.0,0.0,0.0,0.0,0.0,0.0,0.0,0.0,0.0,0.0,0.0,0.0,0.0,0.0,0.0,0.0,0.0,0.0,0.0,0.0,0.0,0.0,0.0,0.0,0.0,0.0,0.0,0.0,0.0,0.0,0.0,0.0,0.0,0.0,0.0,0.0,0.0,0.0,0.0,0.0,0.0,0.0,0.0,0.0,0.0,0.0,0.0,0.0,0.0,0.0,0.0,0.0,0.0,0.0,0.0,0.0,0.0,0.0,0.0,0.0,0.0,0.0,0.0,0.0,0.0,0.0,0.0,0.0,0.0,0.0,0.0,0.0,0.0,0.0,0.0,0.0,0.0,0.0,0.0,0.0,0.0,0.0,0.0,0.0,0.0,0.0,0.0,0.0,0.0,0.0,0.0,0.0,0.0,0.0,0.0,0.0,0.0,0.0,0.0,0.0,0.0,0.0,0.0,0.0,0.0,0.0,0.0,0.0,0.0,0.0,0.0,0.0,0.0,0.0,0.0,0.0,0.0,0.0,0.0,0.0,0.0,0.0,0.0,0.0,0.0,0.0,0.0,0.0,0.0,0.0,0.0,0.0,0.0,0.0,0.0,0.0,0.0,0.0,0.0,0.0,0.0,0.0,0.0,0.0,0.0,0.0,0.0,0.0,0.0,0.0,0.0,0.0,0.0,0.0,0.0,0.0,0.0,0.0,0.0,0.0,0.0,0.0,0.0,0.0,0.0,0.0,0.0,0.0,0.0,0.0,0.0,0.0,0.0,0.0,0.0,0.0,0.0,0.0,0.0,0.0,0.0,0.0,0.0,0.0,0.0,0.0,0.0,0.0,0.0,0.0,0.0,0.0,0.0,0.0,0.0,0.0,0.0,0.0,0.0,0.0,0.0,0.0,0.0,0.0,0.0,0.0,0.0,0.0,0.0,0.0,0.0,0.0,0.0,0.0,0.0,0.0,0.0,0.0,0.0,0.0,0.0,0.0,0.0,0.0,0.0,0.0,0.0,0.0,0.0,0.0,0.0,0.0,0.0,0.0,0.0,0.0,0.0,0.0,0.0,0.0,0.0,0.0,0.0,0.0,0.0,0.0,0.0,0.0,0.0,0.0,0.0,0.0,0.0,0.0,0.0,0.0,0.0,0.0,0.0,0.0,0.0,0.0,0.0,0.0,0.0,0.0,0.0,0.0,0.0,0.0,0.0,0.0,0.0,0.0,0.0,0.0,0.0,0.0,0.0,0.0,0.0,0.0,0.0,0.0,0.0,0.0,0.0,0.0,0.0,0.0,0.0,0.0,0.0,0.0,0.0,0.0,0.0,0.0,0.0,0.0,0.0,0.0,0.0,0.0,0.0,0.0,0.0,0.0,0.0,0.0,0.0,0.0,0.0,0.0,0.0,0.0,0.0,0.0,0.0,0.0,0.0,0.0,0.0,0.0,0.0,0.0,0.0,0.0,0.0,0.0,0.0,0.0,0.0,0.0,0.0,0.0,0.0,0.0,0.0,0.0,0.0,0.0,0.0,0.0,0.0,0.0,0.0,0.0,0.0,0.0,0.0,0.0,0.0,0.0,0.0,0.0,0.0,0.0,0.0,0.0,0.0,0.0,0.0,0.0,0.0,0.0,0.0,0.0,0.0,0.0,0.0,0.0,0.0,0.0,0.0,0.0,0.0,0.0,0.0,0.0,0.0,0.0,0.0,0.0,0.0,0.0,0.0,0.0,0.0,0.0,0.0,0.0,0.0,0.0,0.0,0.0,0.0,0.0,0.0,0.0,0.0,0.0,0.0,0.0,0.0,0.0,0.0,0.0,0.0,0.0,0.0,0.0,0.0,0.0,0.0,0.0,0.0,0.0,0.0,0.0,0.0,0.0,0.0,0.0,0.0,0.0,0.0,0.0,0.0,0.0,0.0,0.0,0.0,0.0,0.0,0.0,0.0,0.0,0.0,0.0,0.0,0.0,0.0,0.0,0.0,0.0,0.0,0.0,0.0,0.0,0.0,0.0,0.0,0.0,0.0,0.0,0.0,0.0,0.0,0.0,0.0,0.0,0.0,0.0,0.0,0.0,0.0,0.0,0.0,0.0,0.0,0.0,0.0,0.0,0.0,0.0,0.0,0.0,0.0,0.0,0.0,0.0,0.0,0.0,0.0,0.0,0.0,0.0,0.0,0.0,0.0,0.0,0.0,0.0,0.0,0.0,0.0,0.0,0.0,0.0,0.0,0.0,0.0,0.0,0.0,0.0,0.0,0.0,0.0,0.0,0.0,0.0,0.0,0.0,0.0,0.0,0.0,0.0,0.0,0.0,0.0,0.0,0.0,0.0,0.0,0.0,0.0,0.0,0.0,0.0,0.0,0.0,0.0,0.0,0.0,0.0,0.0,0.0,0.0,0.0,0.0,0.0,0.0,0.0,0.0,0.0,0.0,0.0,0.0,0.0,0.0,0.0,0.0,0.0,0.0,0.0,0.0,0.0,0.0,0.0,0.0,0.0,0.0,0.0,0.0,0.0,0.0,0.0,0.0,0.0,0.0,0.0,0.0,0.0,0.0,0.0,0.0,0.0,0.0,0.0,0.0,0.0,0.0,0.0,0.0,0.0,0.0,0.0,0.0,0.0,0.0,0.0,0.0,0.0,0.0,0.0,0.0,0.0,0.0,0.0,0.0,0.0,0.0,0.0,0.0,0.0,0.0,0.0,0.0,0.0,0.0,0.0,0.0,0.0,0.0,0.0,0.0,0.0,0.0,0.0,0.0,0.0,0.0,0.0,0.0,0.0,0.0,0.0,0.0,0.0,0.0,0.0,0.0,0.0,0.0,0.0,0.0,0.0,0.0,0.0,0.0,0.0,0.0,0.0,0.0,0.0,0.0,0.0,0.0,0.0,0.0,0.0,0.0,0.0,0.0,0.0,0.0,0.0,0.0,0.0,0.0,0.0,0.0,0.0,0.0,0.0,0.0,0.0,0.0,0.0,0.0,0.0,0.0,0.0,0.0,0.0,0.0,0.0,0.0,0.0,0.0,0.0,0.0,0.0,0.0,0.0,0.0,0.0,0.0,0.0,0.0,0.0,0.0,0.0,0.0,0.0,0.0,0.0,0.0,0.0,0.0,0.0,0.0,0.0,0.0,0.0,0.0,0.0,0.0,0.0,0.0,0.0,0.0,0.0,0.0,0.0,0.0,0.0,0.0,0.0,0.0,0.0,0.0,0.0,0.0,0.0,0.0,0.0,0.0,0.0,0.0,0.0,0.0,0.0,0.0,0.0,0.0,0.0,0.0,0.0,0.0,0.0,0.0,0.0,0.0,0.0,0.0,0.0,0.0,0.0,0.0,0.0,0.0,0.0,0.0,0.0,0.0,0.0,0.0,0.0,0.0,0.0,0.0,0.0,0.0,0.0,0.0,0.0,0.0,0.0,0.0,0.0,0.0,0.0,0.0,0.0,0.0,0.0,0.0,0.0,0.0,0.0,0.0,0.0,0.0,0.0,0.0,0.0,0.0,0.0,0.0,0.0,0.0,0.0,0.0,0.0,0.0,0.0,0.0,0.0,0.0,0.0,0.0,0.0,0.0,0.0,0.0,0.0,0.0,0.0,0.0,0.0,0.0,0.0,0.0,0.0,0.0,0.0,0.0,0.0,0.0,0.0,0.0,0.0,0.0,0.0,0.0,0.0,0.0,0.0,0.0,0.0,0.0,0.0,0.0,0.0,0.0,0.0,0.0,0.0,0.0,0.0,0.0,0.0,0.0,0.0,0.0,0.0,0.0,0.0,0.0,0.0,0.0,0.0,0.0,0.0,0.0,0.0,0.0,0.0,0.0,0.0,0.0,0.0,0.0,0.0,0.0,0.0,0.0,0.0,0.0,0.0,0.0,0.0,0.0,0.0,0.0,0.0,0.0,0.0,0.0,0.0,0.0,0.0,0.0,0.0,0.0,0.0,0.0,0.0,0.0,0.0,0.0,0.0,0.0,0.0,0.0,0.0,0.0,0.0,0.0,0.0,0.0,0.0,0.0,0.0,0.0,0.0,0.0,0.0,0.0,0.0,0.0,0.0,0.0,0.0,0.0,0.0,0.0,0.0,0.0,0.0,0.0,0.0,0.0,0.0,0.0,0.0,0.0,0.0,0.0,0.0,0.0,0.0,0.0,0.0,0.0,0.0,0.0,0.0,0.0,0.0,0.0,0.0,0.0,0.0,0.0,0.0,0.0,0.0,0.0,0.0,0.0,0.0,0.0,0.0,0.0,0.0,0.0,0.0,0.0,0.0,0.0,0.0,0.0,0.0,0.0,0.0,0.0,0.0,0.0,0.0,0.0,0.0,0.0,0.0,0.0,0.0,0.0,0.0,0.0,0.0,0.0,0.0,0.0,0.0,0.0,0.0,0.0,0.0,0.0,0.0,0.0,0.0,0.0,0.0,0.0,0.0,0.0,0.0,0.0,0.0,0.0,0.0,0.0,0.0,0.0,0.0,0.0,0.0,0.0,0.0,0.0,0.0,0.0,0.0,0.0,0.0,0.0,0.0,0.0,0.0,0.0,0.0,0.0,0.0,0.0,0.0,0.0,0.0,0.0,0.0,0.0,0.0,0.0,0.0,0.0,0.0,0.0,0.0,0.0,0.0,0.0,0.0,0.0,0.0,0.0,0.0,0.0,0.0,0.0,0.0,0.0,0.0,0.0,0.0,0.0,0.0,0.0,0.0,0.0,0.0,0.0,0.0,0.0,0.0,0.0,0.0,0.0,0.0,0.0,0.0,0.0,0.0,0.0,0.0,0.0,0.0,0.0,0.0,0.0,0.0,0.0,0.0,0.0,0.0,0.0,0.0,0.0,0.0,0.0,0.0,0.0,0.0,0.0,0.0,0.0,0.0,0.0,0.0,0.0,0.0,0.0,0.0,0.0,0.0,0.0,0.0,0.0,0.0,0.0,0.0,0.0,0.0,0.0,0.0,0.0,0.0,0.0,0.0,0.0,0.0,0.0,0.0,0.0,0.0,0.0,0.0,0.0,0.0,0.0,0.0,0.0,0.0,0.0,0.0,0.0,0.0,0.0,0.0,0.0,0.0,0.0,0.0,0.0,0.0,0.0,0.0,0.0,0.0,0.0,0.0,0.0,0.0,0.0,0.0,0.0,0.0,0.0,0.0,0.0,0.0,0.0,0.0,0.0,0.0,0.0,0.0,0.0,0.0,0.0,0.0,0.0,0.0,0.0,0.0,0.0,0.0,0.0,0.0,0.0,0.0,0.0,0.0,0.0,0.0,0.0,0.0,0.0,0.0,0.0,0.0,0.0,0.0,0.0,0.0,0.0,0.0,0.0,0.0,0.0,0.0,0.0,0.0,0.0,0.0,0.0,0.0,0.0,0.0,0.0,0.0,0.0,0.0,0.0,0.0,0.0,0.0,0.0,0.0,0.0,0.0,0.0,0.0,0.0,0.0,0.0,0.0,0.0,0.0,0.0,0.0,0.0,0.0,0.0,0.0,0.0,0.0,0.0,0.0,0.0,0.0,0.0,0.0,0.0,0.0,0.0,0.0,0.0,0.0,0.0,0.0,0.0,0.0,0.0,0.0,0.0,0.0,0.0,0.0,0.0,0.0,0.0,0.0,0.0,0.0,0.0,3.0102,2.6379,0.0,0.0,0.0,0.0,0.0,0.0,0.0,0.0,0.0,0.0,0.0,0.0,0.0,0.0,0.0,0.0,0.0,0.0,0.0,0.0,0.0,0.0,0.0,1.7997,1.8185,1.8185,1.8484,0.0,0.0,0.0,0.0,0.0,0.0,0.0,0.0,0.0,1.9934,2.1145,2.2227,2.4523,2.7906,2.564,2.4077,2.3138,0.0,0.0,0.0,0.0,0.0,0.0,0.0,0.0,0.0,0.0,0.0,0.0,0.0,0.0,0.0,0.0,0.0,0.0,0.0,0.0,0.0,0.0,0.0,0.0,0.0,0.0,0.0,0.0,0.0,0.0,0.0,0.0,0.0,0.0,0.0,0.0,0.0,0.0,0.0,0.0,0.0,0.0,0.0,0.0,0.0,0.0,0.0,0.0,0.0,0.0,0.0,0.0,0.0,0.0,0.0,0.0,0.0,0.0,0.0,0.0,0.0,0.0,0.0,0.0,0.0,0.0,0.0,0.0,0.0,0.0,3.229,3.0161,0.0,0.0,0.0,0.0,0.0,0.0,0.0,0.0,0.0,0.0,0.0,0.0,0.0,0.0,0.0,0.0,0.0,0.0,0.0,0.0,0.0,1.7929,1.8027,1.8664,1.9053,1.9053,1.966,2.0058,2.0058,2.0058,0.0,0.0,0.0,0.0,2.1027,2.1057,2.1934,2.3721,2.6363,2.9042,3.1719,3.1839,3.0647,2.8284,2.5671,0.0,0.0,0.0,0.0,0.0,0.0,0.0,0.0,0.0,0.0,0.0,0.0,0.0,0.0,0.0,0.0,0.0,0.0,0.0,0.0,0.0,0.0,0.0,0.0,0.0,0.0,0.0,0.0,0.0,0.0,0.0,0.0,0.0,0.0,0.0,0.0,0.0,0.0,0.0,0.0,0.0,0.0,0.0,0.0,0.0,0.0,0.0,0.0,0.0,0.0,0.0,0.0,0.0,0.0,0.0,0.0,0.0,0.0,0.0,0.0,0.0,0.0,0.0,3.5002,3.533,3.5857,3.5857,3.6108,3.6386,3.4276,3.4226,3.5355,3.1235,0.0,0.0,0.0,0.0,0.0,0.0,0.0,0.0,0.0,0.0,0.0,0.0,0.0,0.0,0.0,0.0,0.0,0.0,0.0,1.8792,1.9369,2.004,2.0449,2.0449,2.1066,2.1435,2.1435,2.1435,0.0,0.0,0.0,0.0,2.2433,2.2433,2.42,2.7829,3.3215,3.6088,3.649,3.7075,3.7165,3.6623,3.2288,2.9052,2.6827,0.0,0.0,0.0,0.0,0.0,0.0,0.0,0.0,0.0,0.0,0.0,0.0,0.0,0.0,0.0,0.0,0.0,0.0,0.0,0.0,0.0,0.0,0.0,0.0,0.0,0.0,0.0,0.0,0.0,0.0,0.0,0.0,0.0,0.0,0.0,0.0,0.0,0.0,0.0,0.0,0.0,2.5084,2.8599,0.0,0.0,0.0,0.0,0.0,0.0,0.0,0.0,0.0,0.0,0.0,0.0,0.0,3.3825,3.4831,3.6056,3.7436,3.8944,3.9421,3.9897,4.0449,4.0449,4.0474,4.0449,3.8743,0.0,3.623,3.56,0.0,0.0,0.0,0.0,0.0,0.0,0.0,0.0,0.0,0.0,0.0,0.0,0.0,0.0,0.0,0.0,0.0,0.0,0.0,0.0,0.0,2.1834,2.29,2.29,2.4526,2.5106,2.3969,2.4238,0.0,0.0,0.0,2.3251,2.4298,2.5447,2.8487,3.3544,3.6507,3.8721,4.0206,4.0505,4.0834,4.1066,3.9062,3.5653,3.1478,3.1478,0.0,0.0,0.0,0.0,0.0,0.0,0.0,0.0,0.0,0.0,0.0,0.0,0.0,0.0,0.0,0.0,0.0,0.0,0.0,0.0,0.0,0.0,0.0,0.0,0.0,0.0,0.0,0.0,0.0,0.0,0.0,0.0,0.0,0.0,0.0,0.0,0.0,0.0,0.0,2.5385,2.7519,3.0758,3.0387,2.9634,0.0,0.0,0.0,0.0,0.0,0.0,0.0,0.0,0.0,3.6281,3.6257,3.7011,3.8743,3.9245,3.9872,4.06,4.1178,4.1582,4.1806,4.2133,4.2434,4.2632,4.163,4.0954,4.0376,3.7889,3.6607,3.6056,0.0,0.0,0.0,0.0,3.2796,3.2717,0.0,0.0,0.0,0.0,0.0,0.0,0.0,0.0,0.0,0.0,0.0,0.0,2.1705,2.4335,2.604,2.5902,2.7996,2.8564,2.6739,2.7081,2.6554,2.4698,2.4608,2.5255,2.6602,2.9415,3.3245,3.8182,3.917,4.0666,4.2631,4.281,4.314,4.3579,4.3758,4.0905,3.6014,3.6014,3.3829,3.0313,0.0,0.0,0.0,0.0,0.0,0.0,0.0,0.0,0.0,0.0,0.0,0.0,0.0,0.0,0.0,0.0,0.0,0.0,0.0,0.0,0.0,0.0,0.0,0.0,0.0,0.0,0.0,0.0,0.0,0.0,0.0,0.0,0.0,0.0,0.0,0.0,0.0,2.9026,3.0407,3.3169,3.3147,3.2667,0.0,0.0,0.0,0.0,0.0,0.0,3.6309,3.5983,3.6985,3.9647,3.9321,3.9923,4.1704,4.1729,4.1804,4.1955,4.2384,4.2688,4.2838,4.324,4.3614,4.3991,4.3589,4.3564,4.3514,3.9949,3.8617,3.8743,3.7512,3.6431,3.5606,3.6158,3.6108,3.5956,0.0,0.0,0.0,0.0,0.0,0.0,0.0,0.0,0.0,0.0,0.0,2.4395,2.4395,2.7876,2.9983,2.9398,3.0568,3.0807,2.9488,2.9428,2.8843,2.7465,2.7405,2.8034,2.9368,3.4352,3.8033,4.0247,4.2143,4.311,4.326,4.3908,4.4207,4.4267,4.4915,4.3299,4.0098,4.0098,3.8182,3.4981,3.305,0.0,0.0,0.0,0.0,0.0,0.0,0.0,0.0,0.0,0.0,0.0,0.0,0.0,0.0,0.0,0.0,0.0,0.0,0.0,0.0,0.0,0.0,0.0,0.0,0.0,0.0,0.0,0.0,0.0,0.0,0.0,0.0,0.0,0.0,0.0,0.0,0.0,0.0,3.6632,3.8316,0.0,0.0,0.0,0.0,3.618,3.5682,3.6384,3.8617,3.8693,3.9723,4.1961,4.2011,4.2286,4.2914,4.2914,4.3162,4.3664,4.3714,4.3991,4.4464,4.4489,4.4514,4.4564,4.4514,4.4267,4.3689,4.2462,4.163,4.0976,3.9371,3.8391,3.7914,3.8517,3.8718,3.8919,0.0,0.0,0.0,0.0,0.0,1.8574,1.925,1.9899,2.0428,2.0668,2.3349,2.5423,2.5854,2.9804,3.2512,3.2721,3.5084,3.5682,3.3544,3.3799,3.3051,3.0851,3.0342,3.1719,3.5206,3.835,4.1145,4.3539,4.4257,4.5014,4.5882,4.6561,4.71,4.754,4.778,4.7211,4.6014,4.4307,4.1893,3.923,3.8529,3.5759,0.0,0.0,0.0,0.0,0.0,0.0,0.0,0.0,0.0,0.0,0.0,0.0,0.0,0.0,0.0,0.0,0.0,0.0,0.0,0.0,0.0,0.0,0.0,0.0,0.0,0.0,0.0,0.0,0.0,0.0,0.0,0.0,0.0,0.0,0.0,0.0,0.0,3.6431,3.7814,0.0,3.7538,3.86,3.9234,3.9045,4.0543,4.1746,4.2512,4.2971,4.3385,4.3743,4.4147,4.4252,4.4041,4.4786,4.4888,4.4342,4.5479,4.5758,4.5196,4.5547,4.5668,4.5668,4.5668,4.5397,4.4819,4.4066,4.3011,4.1781,4.0827,4.0551,4.0778,4.1331,4.1758,4.2183,0.0,0.0,0.0,0.0,1.8395,1.9001,1.9899,2.0399,2.1116,2.2223,2.5214,2.7679,2.883,3.3066,3.5908,3.6118,3.8362,3.8703,3.6297,3.6374,3.54,3.2931,3.326,3.5443,3.9667,4.1493,4.3449,4.5633,4.5873,4.6441,4.7309,4.7967,4.8528,4.8977,4.9187,4.9277,4.9157,4.7391,4.5385,4.3319,4.2421,3.9409,3.534,0.0,0.0,0.0,0.0,0.0,0.0,0.0,0.0,0.0,0.0,0.0,0.0,0.0,0.0,0.0,0.0,0.0,0.0,0.0,0.0,0.0,0.0,0.0,0.0,0.0,0.0,0.0,0.0,0.0,0.0,0.0,0.0,0.0,0.0,3.3997,3.5842,3.733,3.8962,4.0056,4.0327,4.1676,4.2699,4.3097,4.465,4.5678,4.5835,4.6279,4.6387,4.6117,4.6542,4.6754,4.674,4.7516,4.7622,4.7024,4.8258,4.8178,4.6989,4.7346,4.7177,4.6572,4.6572,4.6175,4.5472,4.507,4.4166,4.2939,4.2183,4.2108,4.2512,4.2864,4.3212,4.3589,0.0,0.0,0.0,1.8574,1.8732,1.9181,2.0518,2.0728,2.1924,2.5214,2.8487,3.127,3.3335,3.7644,4.0127,3.9481,4.0079,3.9619,3.7614,3.6926,3.5699,3.3694,3.6178,3.911,4.2381,4.3718,4.5044,4.639,4.7048,4.7399,4.7459,4.8117,4.8468,4.8498,4.9127,4.9396,4.9396,4.9396,4.8648,4.7189,4.4586,4.1953,3.9302,0.0,0.0,0.0,0.0,0.0,0.0,0.0,0.0,0.0,0.0,0.0,0.0,0.0,0.0,0.0,0.0,0.0,0.0,0.0,0.0,0.0,0.0,0.0,0.0,0.0,0.0,0.0,0.0,0.0,0.0,0.0,0.0,0.0,3.4287,3.645,3.8581,3.9745,4.2261,4.46,4.6373,4.6585,4.7075,4.8246,4.7809,4.7782,4.8355,4.8436,4.8682,4.917,4.9225,4.9797,5.0911,5.0967,5.1267,5.1838,5.1867,5.1194,4.9966,4.9966,4.8984,4.7246,4.7191,4.6562,4.5556,4.5527,4.5146,4.4489,4.3438,4.3065,4.309,4.3065,4.3065,4.3065,0.0,0.0,1.8484,1.8672,1.9091,1.972,2.0569,2.1116,2.2592,2.5884,2.8757,3.1629,3.4622,3.7776,3.978,4.0098,4.1575,4.1455,3.9002,3.914,3.8422,3.6417,3.9798,4.2372,4.3748,4.5544,4.713,4.8468,4.9082,4.965,5.0129,5.1289,5.1851,5.1851,5.2061,5.2121,5.2091,5.1612,5.09,4.992,4.7818,4.5633,4.3509,0.0,0.0,0.0,0.0,0.0,0.0,0.0,0.0,0.0,0.0,0.0,0.0,0.0,0.0,0.0,0.0,0.0,0.0,0.0,0.0,0.0,0.0,0.0,0.0,0.0,0.0,0.0,0.0,0.0,0.0,0.0,3.8425,3.96,3.9306,4.0285,4.1772,4.3739,4.5034,4.6137,4.7049,4.8253,4.8941,4.8899,4.9686,5.0235,5.046,5.1294,5.1683,5.1419,5.2014,5.2209,5.1912,5.2541,5.2624,5.2159,5.279,5.2446,5.1282,5.1282,5.0995,5.0425,4.9136,4.8121,4.7364,4.6037,4.5146,4.4564,4.4292,4.4443,4.4744,4.4317,4.4166,4.4166,0.0,1.8826,1.9121,1.9121,1.9429,2.0028,2.0967,2.1455,2.3281,2.7649,2.979,3.2512,3.6669,3.899,4.0516,4.1194,4.1773,4.1305,3.9511,3.9499,3.9768,4.0259,4.2791,4.4616,4.5544,4.7788,4.9194,4.9673,5.087,5.1678,5.2067,5.2839,5.3198,5.3198,5.3198,5.3198,5.3169,5.2785,5.2396,5.1917,5.0481,4.8057,4.5214,4.4466,4.2791,4.0666,3.9619,3.9176,3.8764,3.6452,0.0,0.0,0.0,0.0,0.0,0.0,0.0,0.0,0.0,0.0,0.0,0.0,0.0,0.0,0.0,0.0,0.0,0.0,0.0,0.0,0.0,0.0,0.0,0.0,4.1989,4.3937,4.5213,4.4595,4.4708,4.6639,4.7579,4.8564,4.9806,5.0803,5.1366,5.1272,5.2307,5.2925,5.2959,5.3901,5.43,5.4006,5.4451,5.4622,5.4403,5.5193,5.5366,5.4996,5.5766,5.545,5.4108,5.4108,5.3539,5.2486,5.1451,5.0185,4.8829,4.7773,4.681,4.5869,0.0,0.0,0.0,0.0,4.4589,4.4589,1.9483,1.9636,1.9708,1.9708,1.9708,2.0148,2.1495,2.1695,2.3849,2.9834,3.1122,3.3543,3.8943,4.0636,4.1673,4.2351,4.1313,4.0337,3.966,3.92,4.0546,4.4147,4.5095,4.6142,4.7489,4.992,5.0936,5.0428,5.2366,5.3318,5.3318,5.3408,5.3438,5.3438,5.3438,5.3438,5.3438,5.3438,5.3378,5.3258,5.2665,4.9793,4.5843,4.5783,4.4217,4.2002,4.1384,4.1175,4.1036,4.0051,0.0,0.0,0.0,0.0,0.0,0.0,0.0,0.0,0.0,0.0,0.0,0.0,0.0,0.0,0.0,0.0,0.0,0.0,0.0,0.0,0.0,0.0,0.0,0.0,4.5401,4.8007,5.0827,4.8946,4.7741,4.8991,5.0033,5.1414,5.3318,5.3567,5.3832,5.4363,5.5067,5.548,5.5594,5.6126,0.0,0.0,0.0,5.6954,5.766,5.8162,5.8555,5.8919,5.9388,5.8958,5.7628,5.7544,5.6299,5.4229,5.3942,5.2542,5.0439,5.0236,4.9425,4.814,4.5837,4.4941,4.4865,4.4865,4.484,4.479,1.9499,1.9636,1.9708,1.9708,1.9708,2.0148,2.1495,2.1695,2.4018,3.0464,3.1421,3.3723,3.9589,4.0905,4.1673,4.2351,4.2171,4.1733,4.1074,4.1844,4.2951,4.4237,4.5992,4.7549,4.8887,5.0421,5.1385,5.1828,5.3294,5.4012,5.4012,5.4551,5.479,5.479,5.479,5.479,5.479,5.479,5.4491,5.4012,5.3862,5.1983,4.9202,4.8686,4.754,4.6142,4.6022,4.5963,4.5672,4.3806,4.2627,4.1578,3.9247,3.7621,0.0,0.0,0.0,0.0,0.0,0.0,0.0,0.0,0.0,0.0,0.0,0.0,0.0,0.0,0.0,0.0,0.0,0.0,0.0,4.6083,4.8543,5.0666,5.1964,5.2109,5.2169,5.2423,5.2653,5.314,5.4042,5.4628,5.4982,5.51,5.5929,5.668,5.7215,5.7366,5.79,5.8995,5.8804,5.9072,5.9948,5.9338,5.9428,6.0219,5.9608,0.0,5.9595,5.9069,5.8575,5.8028,5.6023,5.4713,5.3888,5.2436,5.1519,5.0786,4.8263,4.6998,4.6622,4.6622,4.6346,4.5974,1.9465,1.9599,1.9708,1.9708,1.9708,2.0148,2.1495,2.1695,2.3699,2.9312,3.0059,3.2063,3.7375,3.8242,3.8978,4.0266,4.1014,4.1403,4.1403,4.291,4.4536,4.6232,4.76,4.8768,4.9733,5.1349,5.2366,5.2695,5.4042,5.488,5.5209,5.5564,5.5863,5.6137,5.6137,5.5957,5.5713,5.5713,5.5299,5.47,5.47,5.3503,5.1618,5.0631,4.9643,4.8693,4.8416,4.8087,4.7698,4.6954,4.6218,4.5443,4.4406,4.259,4.0424,0.0,0.0,0.0,0.0,0.0,0.0,0.0,0.0,0.0,0.0,0.0,0.0,0.0,0.0,4.1918,4.3381,0.0,4.7642,4.9164,5.0984,5.2578,5.3478,5.4154,5.4302,5.3676,5.4154,5.4738,5.5189,5.5812,5.6199,5.6199,5.7252,5.8047,5.8402,5.9031,5.9538,5.9894,5.9755,5.9698,5.9838,5.9727,5.9971,6.0596,6.0453,6.0666,6.1143,6.0789,6.0494,6.0111,5.8895,5.7398,5.5734,5.3749,5.2795,5.2528,5.1205,4.9793,4.8517,4.8517,4.7912,4.7196,1.9363,1.9536,1.9681,1.9708,1.9708,2.0148,2.1495,2.1695,2.331,2.7812,2.8517,3.0253,3.4651,3.534,3.6178,3.7883,3.9828,4.1085,4.1373,4.3599,4.5903,4.8199,4.8947,4.9583,5.0196,5.2187,5.3198,5.3198,5.4521,5.5504,5.6013,5.6132,5.6402,5.6735,5.6855,5.6555,5.6013,5.6013,5.5713,5.5179,5.5179,5.4551,5.3468,5.2247,5.1116,5.0159,4.9643,4.8798,4.8027,4.8977,4.8678,4.8057,4.9007,4.7037,4.4083,4.2611,3.9868,0.0,0.0,0.0,0.0,0.0,0.0,0.0,0.0,4.0264,4.0694,4.2643,4.4072,4.5399,4.6761,4.884,5.0709,5.1851,5.2955,5.3981,5.4943,5.5474,5.5444,5.4547,5.5355,5.6083,5.6346,5.6915,5.7363,5.7483,5.862,5.9368,5.9488,6.0535,6.0924,6.0475,6.0475,6.0266,5.9877,6.0266,6.0693,6.1096,6.1512,6.1932,6.2292,6.2174,6.1819,6.1374,6.117,5.9713,5.7395,5.5561,5.4801,5.4801,5.4801,5.3449,5.1476,5.0812,4.9915,4.9117,1.9157,1.9483,1.9638,1.969,1.9708,2.0148,2.1495,2.1695,2.3141,2.7195,2.8231,2.9924,3.3335,3.4801,3.5818,3.6643,4.0625,4.2581,4.1463,4.4885,4.7369,4.8259,4.8947,4.9583,5.0196,5.2187,5.3198,5.3198,5.4521,5.5239,5.5299,5.5923,5.5923,5.5418,5.6042,5.5923,5.5299,5.5299,5.5294,5.5179,5.5179,5.5089,5.488,5.4162,5.2342,5.0196,5.0129,4.8574,4.6809,4.8678,4.8057,4.6839,4.8708,4.7782,4.5645,4.3716,4.1632,3.9369,3.6613,3.7577,3.961,4.0318,4.2113,4.4179,0.0,4.6852,4.8049,5.03,5.1076,5.166,5.2699,5.2925,5.3182,5.3779,5.4309,5.4973,5.5906,5.6111,5.629,5.6679,5.6859,5.6948,5.7004,5.7603,5.8234,5.883,5.9548,6.0236,6.0837,6.1044,6.1343,6.1852,6.1882,6.2121,6.2659,6.2121,6.2211,6.2811,6.2302,6.2393,6.2962,6.2394,6.2037,6.1948,6.1038,6.0484,6.0137,5.965,5.9449,5.9449,5.9449,5.861,5.7005,5.4156,5.2991,5.2901,1.8769,1.9026,1.9241,1.9563,1.9672,2.0028,2.0967,2.1455,2.2562,2.4968,2.5854,2.7248,2.9788,3.1914,3.3439,3.4113,3.8751,4.1564,4.1403,4.5095,4.7608,4.8289,4.8947,4.9583,5.0196,5.1798,5.2606,5.2606,5.3952,5.482,5.5209,5.5893,5.6252,5.6316,5.6585,5.6372,5.5803,5.5803,5.5564,5.5179,5.5179,5.5179,5.5119,5.4461,5.3264,5.1798,5.0637,4.9022,0.0,4.8887,4.8738,4.8409,5.0384,4.9636,4.7728,4.6091,4.3938,4.2136,4.2295,4.2262,4.2963,4.6166,4.6823,4.7199,4.9245,4.9805,5.036,5.2103,5.2886,5.3361,5.3933,5.427,5.4509,5.4765,5.4899,5.5291,5.6077,5.6492,5.712,5.8141,5.859,5.868,5.8291,5.9221,5.9939,6.0236,6.0894,6.1373,6.1672,6.2061,6.2211,6.2091,6.2091,6.2061,6.1942,6.1672,6.1852,6.251,6.2241,6.245,6.3108,6.2808,6.266,6.263,6.1629,6.1189,6.1131,6.049,6.0199,6.0199,6.0199,5.9855,5.9132,5.7064,5.5795,5.5224,1.8461,1.8664,1.8922,1.9455,1.9629,1.9902,2.0598,2.1116,2.1874,2.3161,2.3928,2.5154,2.7375,2.9475,3.1092,3.2153,3.6596,3.9846,4.1044,4.4466,4.695,4.7967,4.8678,4.9337,4.992,5.1259,5.2007,5.2187,5.3354,5.4162,5.467,5.5534,5.6072,5.6316,5.6675,5.6521,5.5923,5.5923,5.5653,5.5179,5.5179,5.5089,5.488,5.4401,5.3443,5.2187,5.0727,4.9142,4.7848,4.8528,4.8379,4.8259,5.0212,4.9494,4.778,4.698,4.5104,4.3808,4.6117,4.6117,4.6453,5.0668,5.0846,5.0375,5.1787,5.2056,5.2226,5.2926,5.366,5.4295,5.4675,5.4999,5.5299,5.5658,5.5568,5.5773,5.6611,5.7094,5.7872,5.9219,5.9967,6.0266,5.9967,6.0655,6.1194,6.1373,6.1822,6.2241,6.26,6.2928,6.2958,6.263,6.245,6.2121,6.1672,6.1642,6.1912,6.2361,6.2361,6.2629,6.3108,6.3108,6.3108,6.3049,6.2311,6.2016,6.1957,6.1281,6.1017,6.1017,6.1017,6.1017,6.0873,5.9947,5.8659,5.7512,1.8324,1.8548,1.8769,1.9297,1.952,1.9867,2.0589,2.0728,2.1206,2.2553,2.3261,2.4638,2.7315,2.8261,2.9461,3.1361,3.4651,3.7704,4.0247,4.294,4.5254,4.7249,4.7967,4.8648,4.9307,5.0571,5.1535,5.2187,5.2875,5.3258,5.3288,5.461,5.488,5.4341,5.5653,5.5863,5.5209,5.5209,5.5209,5.5179,5.5179,5.482,5.4251,5.4221,5.2582,5.0285,5.0226,4.8544,4.645,4.7108,4.6082,4.4805,4.683,4.6082,4.4566,4.5185,4.4386,4.3738,4.5771,4.7698,4.9636,5.1678,5.3593,5.4745,5.3927,5.4435,5.4804,5.3957,5.4525,5.5359,5.6013,5.5623,5.5598,5.6825,5.6551,5.6611,5.7846,5.8055,5.859,5.9907,6.0655,6.1313,6.1942,6.1463,6.1373,6.2032,6.2091,6.263,6.3887,6.3407,6.3377,6.3917,6.3348,6.3078,6.3048,6.3048,6.3048,6.3078,6.3078,6.3078,6.3108,6.3108,6.3108,6.3108,6.3078,6.3049,6.3049,6.3019,6.3019,6.3019,6.3019,6.3019,6.3019,6.299,6.1723,6.0085,1.7978,1.8187,1.8471,1.9391,1.9565,1.9689,1.998,2.0399,2.0877,2.1306,2.2682,0.0,0.0,0.0,0.0,0.0,3.3021,3.5745,3.7075,4.1265,4.3988,4.4625,4.698,4.8409,4.8648,4.9486,5.0242,5.0877,5.1535,5.2097,5.2546,5.3443,5.3743,5.3563,5.4007,5.4097,5.3887,5.3887,5.3887,5.3887,5.3887,5.2935,5.1505,5.1109,4.9553,4.7437,0.0,4.5642,4.5663,4.5903,4.5813,4.5882,4.7459,4.7189,4.6352,4.6561,4.6322,4.657,4.9434,5.072,5.1678,5.3683,5.47,5.5094,5.4809,5.4979,5.5094,5.4779,5.5338,5.5923,5.6162,5.6342,5.6466,5.6492,5.6671,5.6971,5.7393,5.8201,5.9279,6.0595,6.1373,6.2032,6.2718,6.254,6.269,6.3318,6.2989,6.3138,6.3947,6.3437,6.3197,6.3407,6.3227,6.3108,6.3108,6.3108,6.3108,6.3108,6.3108,6.3108,6.3108,6.3108,6.3108,6.3108,6.3108,6.3108,6.3108,6.3108,6.3108,6.3108,6.3108,6.3108,6.3108,6.3108,6.2665,6.2104,1.7544,1.7737,1.8088,1.9129,1.9325,0.0,0.0,0.0,0.0,0.0,0.0,0.0,0.0,0.0,0.0,0.0,0.0,3.344,3.504,3.8542,4.1085,4.2203,4.4317,4.5714,4.6163,4.6612,4.7151,4.7714,4.8903,4.965,5.0152,5.1738,5.2486,5.2516,5.2989,5.3198,5.3198,5.3198,5.3079,5.2785,5.2306,5.096,4.9112,4.8476,4.6852,0.0,4.3698,4.3549,4.3928,4.4187,4.4706,4.5493,4.71,4.7608,4.7758,4.8185,4.8177,4.8686,5.1708,5.2546,5.2965,5.476,5.5179,5.5179,5.5179,5.5179,5.5294,5.5534,5.5893,5.6342,5.6821,5.7004,5.7184,5.7539,5.7723,5.7992,5.8471,5.9279,6.0236,6.1343,6.1852,6.245,6.3318,6.3408,6.3558,6.3977,6.3857,6.3947,6.4336,6.3767,6.3408,6.3408,6.3227,6.3197,6.3437,6.3408,6.3528,6.3767,6.3767,6.3767,6.3767,6.3767,6.3767,6.3767,6.3767,6.3767,6.3767,6.3527,6.3408,6.3378,6.3197,6.3108,6.3108,6.3108,6.3108,6.3108,1.7115,1.7266,1.7609,0.0,0.0,0.0,0.0,0.0,0.0,0.0,0.0,0.0,0.0,0.0,0.0,0.0,0.0,0.0,3.3979,3.4981,3.6836,3.9948,4.0277,4.1014,4.2261,4.2321,4.2661,4.325,4.5164,4.6121,4.6211,4.9351,5.0787,5.0847,5.2127,5.269,5.269,5.269,5.2306,5.1648,5.0368,4.8693,4.689,4.6241,4.4377,4.2211,4.2831,4.2293,4.1403,4.2141,4.2851,4.3818,4.5912,4.7429,4.8716,5.0039,5.0032,5.0145,5.263,5.3348,5.3648,5.488,5.5179,5.5179,5.5179,5.5174,5.5269,5.5953,5.6072,5.6432,5.7666,5.7453,5.7693,5.9605,5.9488,5.9578,6.0835,6.1076,6.1403,6.2032,6.2121,6.263,6.3887,6.4036,6.4066,6.4096,6.4635,6.4994,6.4964,6.4395,6.4036,6.4006,6.3468,6.3468,6.4036,6.4066,6.4366,6.4994,6.4994,6.4994,6.4994,6.4994,6.4994,6.4994,6.4994,6.4994,6.4964,6.4306,6.4066,6.4006,6.3408,6.3197,6.3197,6.3168,6.3168,6.3138,0.0,0.0,0.0,0.0,0.0,0.0,0.0,0.0,0.0,0.0,0.0,0.0,0.0,0.0,0.0,0.0,0.0,0.0,3.0027,3.3021,3.5116,3.5955,3.8811,4.0546,4.0894,4.1403,4.1972,4.2631,4.314,4.3648,4.4167,4.5005,4.5364,4.5343,4.5723,4.5873,4.5822,4.5822,4.5732,4.5553,4.5224,4.3878,4.2132,4.1983,4.0576,3.8751,3.9409,3.9768,4.0157,4.1822,4.3798,4.6061,4.9022,5.0189,5.084,5.2641,5.3414,5.3857,5.4516,5.5055,5.5414,5.5239,5.5179,5.5179,5.5179,5.4426,5.3917,5.4581,5.4311,5.4216,5.5059,5.6256,5.7124,5.718,5.8707,5.9787,5.9638,6.0894,6.1912,6.2061,6.254,6.3139,6.3917,6.4426,6.4934,6.5473,6.5174,6.4785,6.4276,6.4575,6.4545,6.4006,6.4336,6.4575,6.4725,6.4725,6.4815,6.4994,6.4994,6.4994,6.4994,6.4994,6.4994,6.4994,6.4994,6.4994,6.4994,6.4815,6.4725,6.4725,6.4575,6.4516,6.4485,6.3947,6.3767,6.3707,0.0,0.0,0.0,0.0,0.0,0.0,0.0,0.0,0.0,0.0,0.0,0.0,0.0,0.0,0.0,0.0,0.0,0.0,0.0,3.0506,3.2287,3.3155,3.5294,3.6776,3.7345,3.802,3.8409,3.8499,3.9936,4.0685,4.0786,4.2271,4.296,4.291,4.324,4.3359,4.329,4.329,4.316,0.0,0.0,4.1006,3.9499,3.92,3.8212,3.7075,3.7734,3.8601,3.993,4.3409,4.5924,4.8087,5.081,5.1858,5.2426,5.4132,5.4491,5.4456,5.5029,5.5448,5.5683,5.5269,5.5179,5.5029,5.4486,5.3737,5.3228,5.3294,5.3025,5.3324,5.5149,5.6137,5.709,5.8171,5.9578,6.0505,6.0446,6.1642,6.263,6.2899,6.3258,6.3857,6.4784,6.5233,6.5592,6.5981,6.5922,6.5592,6.4904,6.5203,6.5114,6.4485,6.4785,6.5144,6.5443,6.5742,6.5892,6.5892,6.5892,6.5892,6.5892,6.5892,6.5892,6.5892,6.5892,6.5892,6.5862,6.5562,6.5443,6.5413,6.5114,6.4994,6.4964,6.4575,6.4455,6.4366,0.0,0.0,0.0,0.0,0.0,0.0,0.0,0.0,0.0,1.9708,1.9789,2.0297,2.1555,2.2313,0.0,0.0,0.0,0.0,0.0,0.0,2.9235,3.0913,3.1241,3.1944,3.3215,3.3889,3.3979,3.3484,3.6357,3.7434,3.6956,3.9936,4.1362,4.1392,4.2062,4.2312,4.2243,4.2243,4.1953,4.1392,4.0217,3.905,3.7943,0.0,3.6836,3.6464,3.7165,3.8255,4.0199,4.5493,4.8117,4.9576,5.2001,5.3114,5.3827,5.497,5.4576,5.3947,5.491,5.5239,5.5299,5.5209,5.5179,5.485,5.3528,5.3079,5.2725,5.2067,5.1798,5.2636,5.5748,5.5983,5.6671,5.9697,6.0388,6.0835,6.1583,6.2361,6.3109,6.3917,6.4006,6.4545,6.5892,6.6011,6.6041,6.6131,6.667,6.667,6.5922,6.6041,6.5892,6.5263,6.5263,6.5532,6.6131,6.67,6.6999,6.6999,6.6999,6.6999,6.6999,6.6999,6.6999,6.6999,6.6999,6.6999,6.6939,6.637,6.6131,6.6071,6.5473,6.5263,6.5233,6.5174,6.5144,6.5024,0.0,0.0,0.0,0.0,0.0,0.0,0.0,0.0,0.0,0.0,2.0168,2.0817,0.0,0.0,0.0,0.0,0.0,0.0,0.0,0.0,0.0,2.8261,2.9834,3.1046,3.1839,3.2512,3.3066,3.3484,3.4053,3.4292,3.4203,3.5326,3.5881,3.5911,3.6567,3.6866,3.6849,3.6849,3.6806,3.6686,3.6447,3.6207,3.5998,3.5878,3.5759,0.0,3.6969,3.8255,4.0199,4.5493,4.7818,4.9307,5.4007,5.5593,5.5743,5.5953,5.6222,5.6226,5.5418,5.5623,5.5893,5.5354,5.5179,5.485,5.3528,5.2336,5.1355,5.0697,4.9733,4.9643,5.1804,5.2606,5.3443,5.5119,5.6765,5.8231,5.9458,6.0685,6.2091,6.3797,6.4006,6.4545,6.5892,6.6011,6.6221,6.6789,6.6939,6.646,6.5233,6.6221,6.6759,6.667,6.664,6.67,6.6819,6.6939,6.6999,6.6999,6.6999,6.6999,6.6999,6.6999,6.6999,6.6999,6.6999,6.6999,6.6969,6.6879,6.6819,6.6819,6.67,6.664,6.658,6.6041,6.5832,6.5742,0.0,0.0,0.0,0.0,0.0,0.0,0.0,1.9536,1.9708,1.9708,2.0587,2.1335,2.1665,2.2313,2.3082,0.0,0.0,0.0,0.0,0.0,0.0,2.7555,2.847,2.9488,3.0478,3.1136,3.1629,3.1928,0.0,3.2976,3.2991,3.3679,3.3979,3.4009,3.4322,3.4472,3.4472,3.4472,3.4472,3.4472,3.4472,3.4651,3.4997,3.4997,3.519,0.0,3.6596,3.7554,3.9062,4.3668,4.5642,4.7339,5.3677,5.5683,5.5564,5.4845,5.5354,5.5807,5.4491,5.4905,5.5623,5.5269,5.5179,5.467,5.2606,5.1678,5.0727,4.9052,4.8207,4.8476,5.0757,5.1176,5.1923,5.4341,5.6346,5.7992,5.8949,6.0864,6.272,6.4306,6.4516,6.5054,6.64,6.652,6.664,6.6969,6.6999,6.6729,6.6071,6.664,6.7148,6.7508,6.7178,6.7179,6.7538,6.7148,6.6999,6.6999,6.6999,6.6999,6.6999,6.6999,6.6999,6.6999,6.6999,6.6999,6.6999,6.6999,6.6999,6.6999,6.6999,6.6999,6.6939,6.664,6.6729,6.6879,0.0,0.0,0.0,0.0,0.0,0.0,1.895,1.9362,1.9608,1.9699,2.0866,2.1695,2.1695,2.2423,2.3082,0.0,0.0,0.0,0.0,0.0,0.0,0.0,0.0,0.0,2.9142,0.0,0.0,3.0313,3.1346,0.0,0.0,0.0,0.0,0.0,3.3425,3.3484,3.3484,3.3484,3.3484,0.0,0.0,3.3829,3.4308,0.0,0.0,0.0,0.0,3.6896,3.7985,4.1814,4.3638,4.5403,5.1738,5.3892,5.4042,5.3533,5.4162,5.485,5.4216,5.4725,5.5388,5.5388,5.5388,5.467,5.1834,5.1295,5.0607,4.7878,4.7309,4.8027,5.0361,5.0249,5.0787,5.3832,5.5602,5.7098,5.8471,6.0595,6.278,6.4755,6.4994,6.5503,6.6879,6.6999,6.6999,6.6999,6.6999,6.6999,6.6999,6.7119,6.7479,6.7987,6.7627,6.7628,6.7987,6.7597,6.7358,6.7239,6.7358,6.7418,6.7418,6.7268,6.7208,6.7209,6.7059,6.6999,6.6999,6.6999,6.6999,6.6999,6.7148,6.7208,6.7208,6.7358,6.7747,6.8047,0.0,0.0,0.0,0.0,0.0,0.0,1.8779,1.9044,1.9297,1.9654,2.0866,2.1695,2.1695,2.2782,2.355,0.0,0.0,0.0,0.0,0.0,0.0,0.0,0.0,0.0,0.0,0.0,0.0,2.9668,2.9817,0.0,0.0,0.0,0.0,0.0,0.0,3.3484,3.3484,3.3484,0.0,0.0,0.0,0.0,0.0,0.0,0.0,0.0,0.0,3.6896,3.7913,4.1343,4.3289,4.4835,4.7938,4.9733,5.1116,5.3419,5.4192,5.467,5.6286,5.6432,5.6102,5.6102,5.6102,5.5264,5.1953,5.1678,5.1199,4.7967,4.7309,4.7758,4.9217,4.8947,4.9134,5.1229,5.1714,5.309,5.6765,5.8022,6.0149,6.4486,6.4994,6.5503,6.6879,6.6999,6.6999,6.6999,6.6999,6.6999,6.6999,6.7598,6.7928,6.7987,6.8525,6.8525,6.8017,6.8525,6.8495,6.7928,6.8525,6.8824,6.8794,6.8197,6.7928,6.7868,6.7238,6.6999,6.6999,6.6999,6.6999,6.7059,6.7688,6.7928,6.7987,6.8585,6.8854,6.8794,0.0,0.0,0.0,0.0,0.0,0.0,1.8137,1.8703,1.9157,1.9325,2.0713,2.1695,2.1695,2.2832,2.361,2.361,0.0,0.0,0.0,0.0,0.0,0.0,0.0,0.0,0.0,0.0,2.8321,2.9009,2.9009,0.0,0.0,0.0,0.0,0.0,0.0,3.2303,3.2303,3.2303,0.0,0.0,0.0,0.0,0.0,0.0,0.0,0.0,0.0,0.0,3.7182,3.9278,4.0606,4.1814,4.4496,4.5693,4.6638,4.9733,5.2336,5.4192,5.4162,5.5418,5.6761,5.6761,5.6462,5.5444,5.2486,5.1708,5.078,4.7908,4.7309,4.7459,4.7997,4.7878,4.8087,4.9254,5.078,5.3054,5.6585,5.8381,6.0864,6.5084,6.5233,6.5203,6.5742,6.652,6.6999,6.6999,6.6999,6.7178,6.7598,6.7868,6.8377,6.9185,6.9064,6.9064,6.9215,6.9064,6.8854,6.8585,6.8884,6.9004,6.9004,6.8704,6.8585,6.8585,6.8315,6.8196,6.8196,6.8196,6.7956,6.7628,6.7898,6.7987,6.8047,6.8317,6.8645,6.8884,0.0,0.0,0.0,0.0,0.0,1.7554,1.7676,1.8393,1.8979,1.9082,2.0616,2.1695,2.1695,2.2832,2.352,2.3351,2.2942,0.0,0.0,0.0,0.0,0.0,0.0,0.0,0.0,0.0,2.7824,2.8291,2.8291,2.874,0.0,0.0,3.0432,3.0807,0.0,0.0,0.0,0.0,0.0,0.0,0.0,0.0,0.0,0.0,0.0,0.0,0.0,0.0,0.0,0.0,0.0,3.972,4.1624,4.2731,4.4027,4.757,5.0571,5.2845,5.3264,5.491,5.6675,5.7244,5.6645,5.5264,5.2755,5.1379,5.0002,4.7758,4.716,4.7048,4.7279,4.7309,4.7519,4.8199,5.0025,5.2606,5.6342,5.8201,6.0685,6.4665,6.4725,6.4575,6.4964,6.6221,6.6999,6.6999,6.6999,6.7358,6.8257,6.8317,6.8826,6.9963,6.9722,6.9692,7.0023,6.9692,6.9482,6.9303,6.9482,6.9572,6.9572,6.9363,6.9303,6.9273,6.9093,6.9004,6.9004,6.9004,6.8704,6.8317,6.8526,6.8586,6.8616,6.8796,6.9153,6.9482,0.0,0.0,0.0,0.0,0.0,0.0,1.7605,1.8157,1.8635,1.9054,2.0616,2.1695,2.1695,2.2832,2.3351,2.2763,2.2703,0.0,0.0,0.0,0.0,0.0,0.0,0.0,0.0,0.0,2.7585,2.7615,2.7615,2.8304,2.9608,2.9608,3.0283,3.1481,0.0,0.0,0.0,0.0,0.0,0.0,0.0,0.0,3.2572,0.0,0.0,0.0,0.0,0.0,0.0,0.0,0.0,0.0,0.0,4.1265,4.4187,4.8139,4.9307,5.0324,5.4905,5.5713,5.5688,5.7606,5.6645,5.467,5.2665,5.0714,4.8947,4.7578,4.6779,4.651,4.7189,4.7309,4.7519,4.8199,4.8887,5.0923,5.5564,5.6761,5.862,6.2659,6.3138,6.3588,6.4874,6.6221,6.6999,6.6999,6.6999,6.7567,6.8914,6.9004,6.9303,6.9993,7.056,7.059,7.0023,7.059,7.059,7.0023,7.059,7.0889,7.0859,7.026,6.9993,6.9963,6.9273,6.9004,6.9004,6.9004,6.9004,6.9064,6.9722,6.9993,7.0021,7.0649,7.0889,7.0799,0.0,0.0,0.0,0.0,0.0,0.0,1.7126,1.7646,1.8177,1.8616,1.9807,2.0902,2.1615,2.2064,2.2203,2.2034,2.2004,0.0,0.0,0.0,0.0,0.0,0.0,0.0,0.0,2.6914,2.7824,2.8278,2.8278,2.8499,2.8931,2.9343,2.9738,3.0134,3.0127,3.0274,0.0,0.0,0.0,0.0,0.0,3.0163,3.0628,0.0,0.0,0.0,0.0,0.0,0.0,0.0,0.0,0.0,0.0,0.0,0.0,4.4317,4.683,4.8947,5.0414,5.1618,5.2611,5.321,5.2582,5.1385,4.9883,4.8686,4.7549,4.6202,4.6121,4.636,4.657,4.701,4.7369,4.7578,4.8558,5.0923,5.5534,5.6731,5.9069,6.4455,6.4695,6.4934,6.6251,6.5922,6.6011,6.6909,6.6999,6.7597,6.8944,6.9004,6.9303,6.9993,7.059,7.062,7.0023,7.059,7.0799,7.062,7.0799,7.0889,7.0889,7.0709,7.062,7.059,7.038,7.029,7.026,6.9812,6.9393,6.9034,6.9243,6.9303,6.9393,7.0051,7.026,7.0171,0.0,0.0,0.0,0.0,0.0,0.0,1.692,1.7416,1.7898,1.8197,1.9164,2.0095,2.0762,2.1065,2.1095,2.085,2.0821,0.0,0.0,0.0,0.0,0.0,0.0,0.0,2.5629,2.6701,2.7591,2.8236,2.8236,2.8333,2.8569,2.8955,2.927,2.9499,2.9505,2.9577,0.0,0.0,0.0,0.0,2.8154,2.8551,2.9205,0.0,0.0,0.0,0.0,0.0,0.0,0.0,0.0,0.0,0.0,0.0,0.0,0.0,4.3479,4.6073,4.784,4.9164,5.0301,5.0996,5.0338,4.9284,4.8476,4.7189,4.6061,4.5753,4.5813,4.6061,4.657,4.704,4.7549,4.8274,4.8895,5.0923,5.5534,5.6312,5.8321,6.3528,6.4635,6.5323,6.6161,6.5951,6.6101,6.6939,6.6999,6.7478,6.8555,6.8854,6.9183,6.9602,7.0231,7.038,7.0023,7.035,7.056,7.056,7.0799,7.0889,7.0889,7.0889,7.0889,7.0889,7.0889,7.0889,0.0,7.047,7.0081,6.9722,6.9722,6.9722,6.9782,7.0171,7.0203,6.9963,0.0,0.0,0.0,0.0,0.0,0.0,0.0,1.7396,1.7767,1.7797,1.8675,1.9312,1.9399,1.9929,2.0024,1.9437,1.9353,0.0,0.0,0.0,0.0,0.0,0.0,0.0,2.57,2.6414,2.7086,2.7729,2.7699,2.8035,2.8591,2.8548,2.8858,2.9435,2.9361,2.8861,0.0,0.0,0.0,0.0,2.5953,2.6689,0.0,0.0,0.0,0.0,0.0,0.0,0.0,0.0,0.0,0.0,0.0,0.0,0.0,0.0,0.0,0.0,0.0,4.784,4.8327,5.0159,4.9284,4.7938,4.7938,4.6052,0.0,4.5912,4.5753,4.5753,4.701,4.7399,4.8065,4.98,4.9733,5.1043,5.5444,5.5893,5.7124,6.0805,6.3529,6.5144,6.5144,6.6281,6.6999,6.6999,6.6999,6.7299,6.7958,6.8585,6.8944,6.9004,6.9542,6.9903,7.0023,7.0021,7.0051,7.0083,7.062,7.0889,7.0889,7.0889,7.0889,7.0889,7.0889,7.0889,7.0889,7.0859,7.0829,7.0829,7.0829,7.0799,7.0769,7.0829,7.044,6.9901,0.0,0.0,0.0,0.0,0.0,0.0,0.0,0.0,0.0,0.0,1.8024,1.8483,1.9312,1.9119,1.9063,0.0,0.0,0.0,0.0,0.0,0.0,0.0,0.0,0.0,2.5687,2.6805,2.7911,2.8975,2.8821,2.9061,2.9625,2.9032,2.8804,2.8912,2.7997,2.7013,0.0,0.0,0.0,0.0,2.5405,2.6069,0.0,0.0,0.0,0.0,3.1243,3.2178,0.0,0.0,0.0,0.0,0.0,0.0,0.0,0.0,3.9481,4.0337,4.2451,0.0,4.4008,4.4925,4.4805,4.4476,0.0,4.4386,4.4386,4.4715,4.5463,4.6151,4.648,4.8185,4.9351,4.8835,5.0301,5.2247,5.4371,5.8441,6.1611,6.2539,6.4934,6.652,6.652,6.6819,6.6999,6.6999,6.6999,6.7299,6.7958,6.8167,6.8496,6.8974,6.8676,6.8975,6.9993,7.044,7.0679,7.0679,7.0829,7.0889,7.0889,7.0889,7.0889,7.0889,7.0889,7.0889,7.0859,7.038,7.0201,7.0201,7.0201,6.9901,6.9512,7.0021,6.9782,6.9153,0.0,0.0,0.0,0.0,0.0,0.0,0.0,0.0,0.0,0.0,1.7437,1.7677,1.8303,1.8099,0.0,0.0,0.0,0.0,0.0,0.0,0.0,0.0,0.0,2.5227,2.5228,2.6658,2.7829,2.8669,2.8789,2.9033,2.9355,2.8917,2.8595,2.829,2.731,2.6288,0.0,0.0,0.0,2.4019,2.4123,0.0,0.0,0.0,0.0,0.0,2.9757,3.0828,0.0,3.2953,3.3732,3.4438,0.0,0.0,0.0,0.0,3.8225,3.902,3.9439,4.0954,4.25,4.2791,4.31,4.329,4.329,4.3818,4.4386,4.4706,4.5583,4.639,4.6689,4.8155,4.9613,5.0444,5.1761,5.3533,5.6107,6.0266,6.3197,6.3468,6.5562,6.6999,6.6999,6.6999,6.6999,6.6999,6.6999,6.7299,6.7958,6.7987,6.8317,6.8974,6.8645,6.8676,6.9095,6.9692,7.0021,7.0051,7.062,7.0889,7.0889,7.0889,7.0889,7.0889,7.0889,7.0889,7.0889,7.056,7.0231,7.0023,7.0023,6.9572,6.9034,6.9393,6.9093,6.8465,0.0,0.0,0.0,0.0,0.0,0.0,0.0,0.0,0.0,0.0,0.0,0.0,0.0,0.0,0.0,0.0,0.0,0.0,0.0,0.0,0.0,0.0,2.3815,2.4812,2.5045,2.6517,2.7559,2.807,2.8477,2.874,2.8817,2.8704,2.8321,2.7701,2.7061,2.6214,2.5148,2.3896,2.3362,2.332,2.2868,0.0,0.0,0.0,0.0,0.0,0.0,0.0,0.0,3.1612,3.2788,3.3863,3.4081,0.0,0.0,0.0,0.0,0.0,3.7554,3.9787,4.2291,4.25,4.2851,4.328,4.3668,4.4117,4.4625,4.5304,4.6172,4.6929,4.7489,4.8566,5.0205,5.2779,5.3528,5.4999,5.8471,6.1343,6.3287,6.3797,6.5712,6.6999,6.6999,6.6999,6.6999,6.6999,6.6999,6.7238,6.7808,6.7868,6.8167,6.8824,6.8854,6.8615,6.8167,6.8704,6.9004,6.9004,7.0081,7.0649,7.0769,7.0769,7.0799,7.0889,7.0889,7.0859,7.0769,7.0769,7.038,6.9842,6.9842,6.9423,6.8854,6.8854,6.8405,6.7868,0.0,0.0,0.0,0.0,0.0,0.0,0.0,0.0,0.0,0.0,0.0,0.0,0.0,0.0,0.0,0.0,0.0,0.0,0.0,0.0,0.0,2.2618,2.4307,2.5637,2.6618,2.7336,2.8208,2.9248,2.9159,2.9364,2.9866,2.9176,2.8321,2.7374,2.7264,2.634,2.4872,2.4632,2.3988,2.314,2.3065,0.0,0.0,0.0,0.0,0.0,0.0,0.0,0.0,3.0599,3.14,3.1853,3.301,0.0,0.0,0.0,0.0,0.0,3.7434,3.9439,4.1822,4.2891,4.2851,4.311,4.5343,4.5484,4.5334,4.6001,4.7578,4.8858,4.8977,5.1821,5.3922,5.3318,5.5085,5.6915,5.8085,6.1044,6.3138,6.3227,6.5443,6.6999,6.6999,6.6999,6.6999,6.6999,6.6999,6.7029,6.7148,6.7148,6.7479,6.8137,6.8167,6.8407,6.8824,6.8944,6.9004,6.9004,6.9213,6.9572,7.0143,7.0143,7.041,7.0889,7.0889,7.062,7.0143,7.0143,6.9752,6.9153,6.9153,6.8734,6.8167,6.8167,6.7748,6.7148,0.0,0.0,0.0,0.0,0.0,0.0,0.0,0.0,0.0,0.0,0.0,0.0,0.0,0.0,0.0,0.0,0.0,0.0,0.0,0.0,2.0876,2.3036,2.4344,2.5445,2.6324,2.7529,2.8468,2.9169,2.9397,2.9681,2.9934,2.924,2.848,2.772,2.7437,2.6515,2.5209,2.4917,2.434,2.3562,0.0,0.0,0.0,0.0,0.0,0.0,0.0,0.0,0.0,0.0,3.0113,3.1197,3.1893,0.0,0.0,0.0,0.0,0.0,3.7015,3.8841,4.1414,4.3808,4.4706,4.5385,4.6591,4.7997,4.8506,4.6689,4.8155,4.9793,4.9793,5.1588,5.3773,5.6017,5.8291,6.0266,6.1644,6.3169,6.4395,6.5143,6.6251,6.6999,6.6999,6.6999,6.6999,6.6999,6.6999,6.7148,6.7538,6.7178,6.7298,6.7987,6.7987,6.7987,6.7926,6.8256,6.8645,6.9004,6.9692,7.0021,7.0023,7.032,7.0649,7.0889,7.056,7.026,6.9961,6.9602,6.9064,6.8466,6.8466,6.8046,6.7479,6.7479,6.7238,6.6999,0.0,0.0,0.0,0.0,0.0,0.0,0.0,0.0,0.0,0.0,0.0,0.0,0.0,0.0,0.0,0.0,0.0,0.0,0.0,1.9308,2.0869,2.3229,2.4277,2.5276,2.6324,2.7647,2.8578,2.9107,2.9578,2.9804,2.9779,2.9327,2.8806,2.8254,2.772,2.6859,2.5778,2.5234,2.4607,2.3954,0.0,0.0,0.0,0.0,0.0,0.0,0.0,0.0,0.0,0.0,0.0,0.0,0.0,0.0,0.0,3.4041,3.5977,3.7883,3.6793,3.8841,4.1923,4.4436,4.5963,4.716,4.8386,5.0391,5.1169,4.8274,4.965,5.1325,5.1176,5.1923,5.4047,5.859,6.0625,6.2361,6.4456,6.4755,6.5233,6.661,6.6759,6.6819,6.6969,6.6999,6.6999,6.6999,6.7148,6.7479,6.7987,6.7508,6.7568,6.8227,6.8077,6.7898,6.7687,6.8227,6.8586,6.8764,6.9752,7.0141,7.0023,7.032,7.053,7.0649,7.0021,6.9694,6.9514,6.8974,6.8345,6.7778,6.7778,6.7449,6.6999,6.6999,6.6999,6.6999,0.0,0.0,0.0,0.0,0.0,0.0,0.0,0.0,0.0,0.0,0.0,0.0,0.0,0.0,0.0,0.0,0.0,0.0,1.8152,1.9221,2.079,2.3035,2.4214,2.577,2.7871,2.8065,2.8668,2.9729,2.9779,2.9804,2.9804,2.9754,2.9428,2.8831,2.8279,2.7437,2.6399,2.5804,2.4933,2.4004,2.3954,0.0,0.0,0.0,0.0,0.0,0.0,0.0,0.0,0.0,0.0,0.0,0.0,0.0,3.3283,3.3283,3.6572,3.9649,3.7182,4.0187,4.4057,4.4296,4.4915,4.6711,5.1672,5.2007,5.1355,5.1708,5.3414,5.464,5.4042,5.5418,5.7393,5.9638,6.0174,6.1134,6.3707,6.4066,6.4575,6.5922,6.6071,6.6311,6.6939,6.6999,6.6999,6.6999,6.7598,6.7958,6.7987,6.7958,6.8257,6.8914,6.8347,6.8586,6.9784,6.9844,6.9275,6.8077,6.8167,6.8856,6.9993,6.9393,6.9482,7.0021,6.9363,6.8704,6.8137,6.8107,6.7688,6.7059,6.7059,6.7029,6.6999,6.6999,6.6999,6.6999,0.0,0.0,0.0,0.0,0.0,0.0,0.0,0.0,0.0,0.0,0.0,0.0,0.0,0.0,0.0,0.0,0.0,0.0,1.8644,1.9748,2.1356,2.3562,2.439,2.567,2.7544,2.7921,2.8674,2.9804,2.9804,2.9804,2.9804,2.9804,2.9478,2.8881,2.8329,2.7695,2.6952,2.6005,2.5184,2.4465,2.413,2.3637,0.0,0.0,0.0,0.0,0.0,0.0,0.0,0.0,2.7464,2.8444,2.9191,3.1154,3.3196,3.3196,3.5746,3.8422,3.7841,4.1235,4.5214,4.6471,4.7878,4.9613,5.2007,5.3773,5.4491,5.3084,5.4072,5.5359,5.5897,5.7304,5.9009,6.1014,6.1343,6.2121,6.4306,6.4994,6.5592,6.652,6.661,6.6729,6.6969,6.6999,6.6999,6.6999,6.7628,6.7987,6.7987,6.8407,6.8734,6.9004,6.9153,6.9095,6.8766,6.9153,6.8884,6.8017,6.8856,6.9273,6.9363,6.9123,6.9123,6.9333,6.8645,6.8227,6.7958,6.7568,6.7239,6.6999,6.6999,6.6999,6.6999,6.6999,6.6999,6.6999,0.0,0.0,0.0,0.0,0.0,0.0,0.0,0.0,0.0,0.0,0.0,0.0,0.0,0.0,0.0,0.0,0.0,0.0,1.8933,2.0075,2.1583,2.3612,2.4415,2.5511,2.701,2.7745,2.8574,2.9528,2.9704,2.9804,2.9804,2.9804,2.9578,2.9157,2.8405,2.7896,2.7487,2.6356,2.546,2.4766,2.439,2.3788,0.0,0.0,0.0,0.0,0.0,0.0,0.0,0.0,2.7003,2.7996,2.8628,3.0713,3.2978,3.314,3.5497,3.8075,3.8332,4.2073,4.6262,4.7638,5.0092,5.2312,5.2995,5.4401,5.5209,5.4067,5.5209,5.6705,5.7573,5.865,5.9937,6.1523,6.1972,6.272,6.4426,6.5263,6.5951,6.661,6.667,6.6759,6.6969,6.6999,6.6999,6.6999,6.7628,6.7987,6.7987,6.8466,6.8675,6.8675,6.8914,6.8736,6.8017,6.8466,6.8555,6.8347,6.9035,6.9213,6.9004,6.8764,6.8675,6.8645,6.7987,6.7688,6.7658,6.7178,6.6999,6.6999,6.6999,6.6999,6.6999,6.6999,6.6999,6.6999,0.0,0.0,0.0,0.0,0.0,0.0,0.0,0.0,0.0,0.0,0.0,0.0,0.0,0.0,0.0,0.0,0.0,0.0,1.8933,2.0075,2.1432,2.302,2.4173,2.5335,2.6474,2.7562,2.8355,2.8907,2.9503,2.9804,2.9804,2.9804,2.9804,2.9729,2.8624,2.8097,2.8021,2.6934,2.5829,2.4816,2.4816,2.4123,2.3095,0.0,0.0,0.0,0.0,0.0,0.0,0.0,2.6438,2.7936,2.83,3.0256,3.2512,3.3073,3.6152,3.9272,3.8631,4.2791,4.7339,4.7369,5.081,5.4401,5.5029,5.3653,5.2785,5.476,5.7274,5.9129,5.9099,5.9638,6.0326,6.1014,6.1672,6.254,6.3827,6.4575,6.5263,6.5951,6.6011,6.6281,6.6939,6.6999,6.6999,6.6999,6.7628,6.7987,6.7987,6.8017,6.8017,6.8017,6.7389,6.7328,6.7987,6.7987,6.8347,6.8974,6.8317,6.8347,6.8974,6.8317,6.7987,6.7958,6.7299,6.6999,6.6999,6.6999,6.6999,6.6999,6.6999,6.6999,6.6999,6.6999,6.6999,6.6999,0.0,0.0,0.0,0.0,0.0,0.0,0.0,0.0,0.0,0.0,0.0,0.0,0.0,0.0,0.0,0.0,0.0,0.0,1.8958,2.0413,2.182,2.3045,2.4173,2.5118,2.5854,2.7318,2.8574,2.9528,2.9704,2.9804,2.9804,2.9804,2.9578,2.9132,2.8405,2.7896,2.7487,2.6801,2.5829,2.4816,2.4816,2.4123,2.3095,0.0,0.0,0.0,0.0,0.0,0.0,0.0,0.0,0.0,2.7868,3.0136,3.2782,3.4727,3.76,4.0576,4.2671,4.6591,5.0272,5.1199,5.3174,5.494,5.5149,5.473,5.4341,5.4461,5.7334,5.9668,5.9189,5.9638,6.0745,6.281,6.2959,6.3408,6.5173,6.5981,6.649,6.667,6.67,6.6789,6.6969,6.6999,6.6999,6.6999,6.7628,6.7987,6.7987,6.8466,6.8704,6.8704,6.8495,6.8256,6.7987,6.8205,6.8084,6.7597,6.7634,6.7874,6.8287,6.7628,6.7329,6.7299,6.7089,6.6999,6.6999,6.6999,6.6999,6.6999,6.6999,6.6999,6.6999,6.6999,6.6999,6.6999,0.0,0.0,0.0,0.0,0.0,0.0,0.0,0.0,0.0,0.0,1.65,1.65,0.0,0.0,0.0,0.0,0.0,0.0,1.8958,2.0363,2.1644,2.2734,2.3863,2.4958,2.5929,2.716,2.8323,2.9453,2.9679,2.9804,2.9804,2.9804,2.9478,2.8881,2.8329,2.7795,2.7261,2.6725,2.5954,2.5093,2.4892,2.4264,2.3421,0.0,0.0,0.0,0.0,0.0,0.0,0.0,0.0,0.0,2.7798,3.0323,3.3116,3.4586,3.7939,4.1673,4.3928,4.7818,5.1654,5.3528,5.5179,5.6226,5.5713,5.5623,5.5478,5.5059,5.7932,6.0446,6.0326,6.0835,6.191,6.3707,6.3917,6.4276,6.5443,6.64,6.6879,6.664,6.6819,6.6999,6.6999,6.7121,6.7213,6.7213,6.7696,6.8028,6.8028,6.8389,6.8538,6.8414,6.8383,6.8204,6.7813,6.7845,6.7665,6.7213,6.7274,6.7423,6.7598,6.7178,6.6999,6.6999,6.6999,6.6999,6.6999,6.6999,6.6999,6.6999,6.6999,6.6999,6.6999,6.6999,6.6999,6.6999,0.0,0.0,1.65,0.0,0.0,0.0,0.0,0.0,0.0,1.65,1.65,1.65,0.0,0.0,0.0,1.65,1.7049,1.7802,1.8782,1.9974,2.1094,2.2121,2.3351,2.4773,2.6373,2.6934,2.772,2.8737,2.9402,2.9754,2.9804,2.9804,2.9453,2.8806,2.8304,2.7795,2.7261,2.6725,2.618,2.5636,2.5093,2.454,2.4004,2.3396,0.0,0.0,0.0,0.0,0.0,0.0,0.0,0.0,2.7917,3.0613,3.3327,3.3378,3.7532,4.2381,4.3529,4.7399,5.1774,5.467,5.6795,5.7846,5.6671,5.6432,5.6402,5.6162,5.877,6.1283,6.1822,6.2569,6.3317,6.3977,6.4575,6.5024,6.5233,6.6221,6.679,6.6191,6.667,6.6999,6.6999,6.7304,6.7517,6.7517,6.7819,6.8,6.8,6.8,6.785,6.7578,6.7548,6.7548,6.7548,6.7243,6.7243,6.7517,6.7213,6.7029,6.6999,6.6999,6.6999,6.6999,6.6999,6.6999,6.6999,6.6999,6.6999,6.6999,6.6999,6.6999,6.6999,6.6999,6.6999,6.6999,0.0,0.0,1.65,1.65,0.0,0.0,0.0,0.0,1.65,1.65,1.65,1.65,1.65,1.65,0.0,1.65,1.7049,1.7498,1.7738,1.917,2.0301,2.1018,2.2939,2.4556,2.5778,2.6373,2.7002,2.7645,2.8605,2.9352,2.9804,2.9804,2.9252,2.8254,2.8147,2.7795,2.7261,2.6725,2.6424,2.6273,2.5678,2.5109,2.4566,2.4029,2.4064,0.0,0.0,0.0,0.0,0.0,0.0,0.0,2.738,2.9631,3.2326,3.4263,3.7317,4.1115,4.5933,4.8805,5.1445,5.5628,5.7812,5.868,5.7846,5.8112,5.7902,5.5837,5.8441,6.0984,6.0595,6.194,6.3468,6.4575,6.4904,6.5443,6.6794,6.7002,6.7031,6.7155,6.7062,6.6999,6.6999,6.7304,6.7517,6.7517,6.7819,6.8,6.8,6.8,6.797,6.788,6.788,6.788,6.788,6.7819,6.7699,6.7517,6.7426,6.7274,6.6999,6.6999,6.6999,6.6999,6.6999,6.6999,6.6999,6.6999,6.6999,6.6999,6.6999,6.6999,6.6999,6.6999,6.6999,6.6999,0.0,0.0,0.0,0.0,0.0,0.0,0.0,0.0,1.6823,1.6536,1.65,1.65,1.65,1.65,0.0,0.0,1.6798,1.7074,1.7387,1.8681,2.0037,2.1407,2.2824,2.3979,2.4808,2.5653,2.6348,2.6927,2.772,2.8574,2.9377,2.9654,2.9327,2.848,2.848,2.8197,2.767,2.7386,2.711,2.6826,2.6256,2.5686,2.5118,2.4607,2.4566,2.4766,2.4465,0.0,0.0,0.0,0.0,0.0,0.0,0.0,3.271,3.4008,3.766,4.2173,4.6232,4.9202,5.2193,5.6496,5.8351,5.8919,5.8234,5.862,5.871,5.7363,5.9219,6.1194,6.1463,6.2389,6.3527,6.4785,6.5113,6.5742,6.7306,6.7969,6.8178,6.7759,6.8059,6.8058,6.7548,6.7759,6.7939,6.7939,6.8238,6.8417,6.8417,6.8417,6.8358,6.8179,6.8179,6.8179,6.8179,6.806,6.8,6.7939,6.7638,6.7335,6.6999,6.6999,6.6999,6.6999,6.6999,6.6999,6.6999,6.6999,6.6999,6.6999,6.6999,6.6999,6.6999,6.6999,6.6999,6.6999,0.0,0.0,0.0,0.0,0.0,0.0,0.0,0.0,0.0,1.6561,1.65,1.65,1.65,1.65,1.65,0.0,0.0,0.0,1.7211,1.8267,1.976,2.178,2.2468,2.3135,2.3828,2.4808,2.5653,2.6348,2.6884,2.7645,2.8631,2.9227,2.9202,2.8631,2.8731,2.8505,2.8097,2.8097,2.7896,2.7519,2.6901,2.6331,2.5812,2.5168,2.4992,2.5067,2.4967,2.509,2.5311,2.5537,0.0,0.0,0.0,0.0,3.3181,3.3219,3.737,4.2472,4.4805,4.8835,5.3324,5.7277,5.871,5.8919,5.8234,5.8504,5.8979,5.9069,6.0176,6.1493,6.2776,6.3047,6.3527,6.4874,6.5261,6.5979,6.7637,6.8885,6.9377,6.871,6.9435,6.955,6.8386,6.8534,6.8623,6.8416,6.8713,6.8919,6.8919,6.8919,6.8772,6.8506,6.8506,6.8506,6.8506,6.8209,6.8179,6.8386,6.7849,6.7426,6.7091,6.7091,6.706,6.6999,6.6999,6.6999,6.6999,6.6999,6.6999,6.6999,6.6999,6.6999,6.6999,6.6999,6.6999,6.6999,0.0,0.0,0.0,0.0,0.0,0.0,0.0,0.0,0.0,0.0,1.65,1.65,1.65,1.65,1.65,1.65,1.65,1.6525,1.66,0.0,0.0,2.0087,2.1142,2.2196,2.3195,2.3863,2.4707,2.5728,2.6323,2.6927,2.7537,2.8072,2.8047,2.7537,2.7996,2.8172,2.8097,2.8097,2.8348,2.8605,2.7613,2.7135,2.6959,2.5887,2.5829,2.6197,2.5661,2.5912,2.6485,2.6696,2.6949,0.0,0.0,0.0,3.1877,3.2442,3.4496,3.7345,4.1055,4.7451,5.4037,5.7992,5.9039,5.8919,5.8234,5.8175,5.8384,5.8979,6.0176,6.1399,6.2401,6.286,6.3614,6.5169,6.5232,6.6097,6.8989,6.9348,6.9745,7.1114,7.1228,7.0731,6.9579,6.9722,6.9463,6.8475,6.8713,6.8919,6.8919,6.8919,6.8889,6.883,6.883,6.883,6.883,6.8535,6.8357,6.8386,6.8059,6.7759,6.7426,6.7426,6.7274,6.6999,6.6999,6.6999,6.6999,6.6999,6.6999,6.6999,6.6999,6.6999,6.6999,6.6999,6.6999,6.6999,0.0,0.0,0.0,0.0,0.0,0.0,0.0,0.0,0.0,0.0,0.0,1.65,1.65,1.65,1.65,1.65,1.65,1.6636,1.6974,1.7476,1.8229,1.9284,2.0452,2.1407,2.2182,2.3376,2.4381,2.5143,2.5728,2.6281,2.6876,2.7085,2.7412,2.777,2.8304,2.8555,2.8555,2.8925,2.8982,2.8856,2.838,2.8021,2.7695,2.7193,2.7185,2.7361,2.7092,2.7291,2.7586,2.7131,2.7581,2.8322,2.8549,0.0,0.0,0.0,3.4474,3.7015,4.1324,4.748,5.3234,5.5748,5.7752,5.9039,5.874,5.8354,5.8228,5.8688,5.9525,6.0691,6.2214,6.3586,6.4657,6.5092,6.5702,6.6645,6.8203,6.8989,6.9846,7.0976,7.1583,7.1691,7.1205,7.1256,7.1123,7.0623,7.0152,6.9839,6.9839,6.9238,6.8919,6.8919,6.8919,6.8919,6.8919,6.8772,6.8595,6.8386,6.8298,6.8059,6.7789,6.7608,6.7335,6.6999,6.6999,6.6999,6.6999,6.6999,6.6999,6.6999,6.6999,6.6999,6.6999,6.6999,6.6999,6.6999,0.0,0.0,0.0,0.0,0.0,0.0,0.0,0.0,0.0,0.0,0.0,1.6926,1.6926,0.0,0.0,0.0,1.6586,1.6687,1.7135,1.7186,1.7601,1.8543,1.966,2.0577,2.1281,2.2774,2.3904,2.4591,2.5118,2.5703,2.6273,2.6424,2.6927,2.772,2.8405,2.8706,2.8756,2.9478,2.9553,2.9107,2.8957,2.8656,2.8279,2.8147,2.8115,2.817,2.817,2.8352,2.8459,2.772,2.8365,2.9392,2.9214,3.0799,0.0,0.0,0.0,3.7451,4.1733,4.6471,5.081,5.3324,5.6047,5.8258,5.882,5.8497,5.8161,5.835,5.9122,6.0274,6.2028,6.3969,6.5363,6.5433,6.6495,6.7584,6.8283,6.9512,7.0642,7.1537,7.2528,7.305,7.2763,7.2737,7.2605,7.2314,7.1506,7.0906,7.0599,6.9813,6.9209,6.8919,6.8919,6.8919,6.8919,6.8919,6.8772,6.8535,6.8535,6.8358,6.8,6.7759,6.7396,6.6999,6.6999,6.6999,6.6999,6.6999,6.6999,6.6999,6.6999,6.6999,6.6999,6.6999,6.6999,6.6999,0.0,0.0,0.0,0.0,0.0,0.0,0.0,0.0,0.0,0.0,0.0,1.8117,1.8117,1.7663,1.7336,1.7336,1.6837,1.65,1.6525,1.6561,1.6837,1.7473,1.8518,0.0,2.073,2.182,2.2924,2.4029,2.4566,2.5118,2.5661,2.6223,2.6524,2.6625,2.767,2.8147,2.8204,2.9327,2.9779,2.9704,2.9132,2.8863,2.8787,2.8279,2.8224,2.8388,2.8388,2.8659,2.8956,2.8904,2.953,3.0317,3.0313,3.1736,3.3433,0.0,0.0,0.0,4.0595,4.306,4.6112,5.1798,5.4366,5.5974,5.8125,5.8357,5.8064,5.8061,5.926,6.069,6.1747,6.3422,6.5125,6.6662,6.7572,6.882,7.0826,7.1766,7.2779,7.4224,7.5079,7.5088,7.4038,7.3904,7.3471,7.2367,7.2234,7.1751,7.0655,7.0543,7.001,6.8948,6.8919,6.8919,6.8919,6.8919,6.8889,6.8889,6.8889,6.8565,6.8,6.797,6.7638,6.6999,6.6999,6.6999,6.6999,6.6999,6.6999,6.6999,6.6999,6.6999,6.6999,6.6999,6.6999,6.6999,0.0,0.0,0.0,0.0,0.0,0.0,0.0,0.0,0.0,0.0,0.0,0.0,0.0,1.9058,1.8932,1.8932,1.8731,1.8318,1.764,1.759,1.7364,1.6837,1.7891,1.9007,2.01,2.1231,2.2523,2.4004,2.4205,2.4566,2.5093,2.5678,2.5929,2.5979,2.7085,2.777,2.8147,2.8907,2.9453,2.9949,3.1486,3.2239,3.2405,3.2116,3.2204,3.2551,3.3258,3.2771,3.2189,3.5041,3.4748,3.3278,3.3596,3.3901,3.4232,3.4648,3.528,3.6207,3.7811,4.0625,4.3798,4.6741,4.974,5.2474,5.4332,5.5325,5.6058,5.6771,5.8566,6.0442,6.1901,6.4101,6.5966,6.6875,6.783,6.8789,6.974,7.0131,7.0886,7.2607,7.3053,7.3508,7.4301,7.4392,7.4414,7.4481,7.3803,7.3213,7.2789,7.1397,7.0403,7.001,6.9296,6.8919,6.8919,6.8919,6.8919,6.8919,6.8919,6.8683,6.8268,6.809,6.7759,6.7304,6.7091,6.6999,6.6999,6.6999,6.6999,6.6999,6.6999,6.6999,6.6999,6.6999,6.6999,6.6999,0.0,0.0,0.0,0.0,0.0,0.0,0.0,0.0,0.0,2.0639,0.0,0.0,0.0,0.0,2.0213,1.9836,1.9811,1.951,1.8781,1.8731,1.8242,1.7113,1.7966,1.8895,1.9786,2.0539,2.1845,2.3703,2.3703,2.3988,2.454,2.5259,2.5586,2.5636,2.6783,2.7613,2.8147,2.8881,2.9428,2.9974,3.187,3.2849,3.3267,3.3645,3.4221,3.5068,3.7021,3.7005,3.6577,4.0117,3.9228,3.6618,3.6465,3.5558,3.4637,3.531,3.5519,3.5609,3.6028,3.8409,4.1194,4.315,4.6184,4.9322,5.1823,5.3766,5.5402,5.6704,5.8921,6.1146,6.2667,6.4498,6.6045,6.7016,6.8055,6.8905,6.9408,6.9673,7.0369,7.1808,7.2237,7.2859,7.4117,7.4221,7.4424,7.4897,7.4137,7.3616,7.3616,7.1703,7.0403,7.0038,6.9296,6.8919,6.8919,6.8919,6.886,6.8742,6.8742,6.8535,6.8089,6.7909,6.7669,6.7335,6.7121,6.6999,6.6999,6.6999,6.6999,6.6999,6.6999,6.6999,6.6999,6.6999,6.6999,6.6999,0.0,0.0,0.0,0.0,0.0,0.0,0.0,0.0,2.2383,2.2383,0.0,0.0,0.0,0.0,0.0,2.0037,1.9936,1.9911,1.9886,1.9861,1.9384,1.8292,1.8744,1.9284,1.9836,1.9861,2.0927,2.3095,2.3095,2.3411,2.4004,2.5084,2.5561,2.5611,2.6809,2.7613,2.8172,2.9321,2.9798,2.9843,3.0182,3.0685,3.1354,3.2793,3.4176,3.5813,3.9316,4.1032,4.1906,4.3772,4.258,4.0091,3.8662,3.6514,3.4667,3.531,3.5519,3.5519,0.0,0.0,0.0,4.1452,4.3838,4.6541,5.0848,5.3817,5.6146,5.7917,6.0384,6.2654,6.4024,6.4472,6.5249,6.7164,6.835,6.9316,7.0082,7.077,7.1492,7.2225,7.2935,7.3432,7.3432,7.3443,7.35,7.35,7.3101,7.2854,7.2854,7.1413,7.0035,6.8948,6.8919,6.8919,6.8919,6.8889,6.8742,6.8386,6.8386,6.8089,6.7517,6.7517,6.7335,6.6999,6.6999,6.6999,6.6999,6.6999,6.6999,6.6999,6.6999,6.6999,6.6999,6.6999,6.6999,6.6999,0.0,0.0,0.0,0.0,0.0,2.3301,2.3301,2.3763,2.4114,0.0,0.0,0.0,0.0,0.0,2.3763,2.3436,2.306,2.2498,2.1655,2.1242,2.0539,1.9409,1.951,2.0037,2.1005,2.1016,2.1705,2.3095,2.3095,2.3195,2.3371,2.449,2.5017,2.5093,2.7017,2.8037,2.8366,2.9074,2.9631,3.0334,3.4219,3.6746,3.8417,4.0428,4.2331,4.4192,4.6,4.5754,4.5232,4.9866,4.699,4.0837,3.7393,3.579,3.525,3.5459,3.5519,3.5519,3.5519,0.0,0.0,0.0,0.0,0.0,4.6761,4.9157,5.1757,5.6279,5.8963,6.1185,6.3502,6.4759,6.5748,6.6822,6.7229,6.7895,6.9214,6.9586,6.9789,6.9992,7.0669,7.1312,7.1853,7.2394,7.2935,7.3466,7.2658,7.2199,7.2199,7.07,6.9593,6.8917,6.8919,6.8919,6.8919,6.8683,6.8475,6.8386,6.8209,6.791,6.7517,6.7517,6.7335,6.6999,6.6999,6.6999,6.6999,6.6999,6.6999,6.6999,6.6999,6.6999,6.6999,6.6999,6.6999,6.6999,0.0,0.0,2.2694,2.296,2.3552,2.4079,2.4305,2.5008,2.5511,0.0,0.0,0.0,0.0,0.0,0.0,2.5118,2.4641,2.4039,2.3386,2.2849,2.202,2.0877,2.0639,2.0815,2.1482,2.1281,2.1794,2.3095,2.2869,2.2869,2.312,2.4343,2.492,2.5021,2.7328,2.8406,2.8584,2.9448,3.0528,3.1882,3.4661,3.7228,3.9685,4.2543,4.4673,4.6611,5.0167,5.0544,5.0014,5.437,5.1149,4.4268,3.7918,3.6477,3.6909,3.5818,3.5519,3.5519,3.5519,3.5789,3.6254,3.695,0.0,0.0,4.4072,4.6613,4.9736,5.5426,5.7796,5.9705,6.2539,6.297,6.3463,6.5134,6.5189,6.5831,6.8267,6.8605,6.8707,6.9079,6.9755,7.0229,7.0364,7.0647,7.0989,7.1425,7.1009,7.0647,7.0485,7.0074,6.9434,6.8517,6.8489,6.8612,6.8919,6.8595,6.8327,6.8238,6.794,6.7638,6.7304,6.7304,6.7182,6.6999,6.6999,6.6999,6.6999,6.6999,6.6999,6.6999,6.6999,6.6999,6.6999,6.6999,6.6999,6.6999,0.0,0.0,2.3386,2.3979,2.413,2.4356,2.4917,2.5904,2.66,0.0,2.7512,2.7921,0.0,0.0,0.0,0.0,2.5385,2.5067,2.5067,2.4506,2.3728,2.2709,2.2096,2.1784,2.1784,2.1231,2.1683,2.3095,2.2648,2.2663,2.315,2.45,2.5129,2.5246,2.7625,2.8721,2.8834,3.0209,3.2056,3.4063,3.3779,3.5581,3.8825,4.2508,4.472,4.6624,5.2736,5.489,5.5028,5.6512,5.4137,4.8962,3.9888,3.8272,3.9242,3.6669,3.5789,3.5609,3.5519,3.5519,0.0,3.6422,3.7237,0.0,4.2369,4.5151,4.8599,5.4282,5.6168,5.7661,6.0496,5.9836,5.9772,6.2431,6.2612,6.3565,6.6948,6.7421,6.7692,6.8402,6.9113,6.9417,6.9011,6.8773,6.8623,6.8506,6.8642,6.8574,6.8228,6.917,6.9146,6.7839,6.7844,6.8212,6.8766,6.8533,6.8268,6.8,6.7669,6.7335,6.6999,6.6999,6.6999,6.6999,6.6999,6.6999,6.6999,6.6999,6.6999,6.6999,6.6999,6.6999,6.6999,6.6999,6.6999,6.6999,2.3728,2.3828,2.3988,2.454,2.5008,2.5502,2.608,2.6708,2.7311,2.772,2.7971,2.8072,2.7971,0.0,0.0,0.0,2.7118,2.6809,2.6809,2.5879,2.5184,2.4958,2.4029,2.3502,2.3502,2.2935,2.2794,2.3095,2.317,2.3244,2.3371,2.4657,2.5246,2.5365,2.7677,2.8785,2.9049,3.0672,3.3139,3.6151,3.8184,4.2099,4.7102,5.027,5.2778,5.4789,5.6154,5.6597,5.5938,5.1637,5.1289,5.1169,4.302,4.1074,4.1403,3.926,3.7524,3.6194,3.5639,3.5519,3.5552,3.5836,3.6558,0.0,4.1019,4.2292,4.4187,4.9083,5.1411,5.3008,5.4622,5.6677,5.8324,5.8881,6.0914,6.2854,6.4153,6.4356,6.4424,6.4559,6.5256,6.6339,6.7963,6.8668,6.8674,6.7859,6.6798,6.6269,6.6388,6.6616,6.6843,6.7104,6.7598,6.7937,6.8091,6.8289,6.8268,6.8,6.7669,6.7335,6.6999,6.6999,6.6999,6.6999,6.6999,6.6999,6.6999,6.6999,6.6999,6.6999,6.6999,6.6999,6.6999,6.6999,6.6999,6.6999,2.3929,2.423,2.4566,2.5109,2.5661,2.6231,2.6809,2.7587,2.8179,2.8455,2.8982,2.9233,2.8976,2.895,0.0,0.0,0.0,0.0,2.7857,2.7066,2.6434,2.6055,2.5251,2.4563,2.4113,2.3795,2.3563,2.336,2.345,2.3662,2.3973,2.4972,2.5953,2.6928,2.8747,2.9996,3.0881,3.3677,3.6764,3.9886,4.0494,4.3209,4.7409,5.2111,5.4421,5.5388,5.7393,5.8291,5.7842,5.2905,5.2336,5.2725,4.7121,4.4187,4.2581,4.1265,3.902,3.6806,3.6178,3.5759,3.5554,3.5798,3.6168,0.0,0.0,4.0539,4.184,4.6259,4.7648,4.8592,5.0209,5.1852,5.3464,5.4944,5.6742,5.8219,5.8942,6.2888,6.5561,6.5168,6.5797,6.6542,6.7286,6.7542,6.7444,6.6795,6.6095,6.5688,6.5692,6.57,6.5926,6.6365,6.6735,6.7045,6.7383,6.7738,6.775,6.7454,6.7487,6.7335,6.6999,6.6999,6.6999,6.6999,6.6999,6.6999,6.6999,6.6999,6.6999,6.6999,6.6999,6.6999,6.6999,6.6999,6.6999,6.6999,2.4305,2.4657,2.5168,2.5812,2.6331,2.6876,2.7512,2.8448,2.9157,2.9358,3.0226,3.0818,3.0833,3.0475,3.0295,3.0399,0.0,0.0,2.8944,2.8446,2.7815,2.7124,2.6408,2.5625,2.4766,2.4655,2.4371,2.3946,2.3977,2.4238,2.4746,2.5469,2.6744,2.8498,2.9818,3.1288,3.3025,3.675,4.0216,4.3181,4.3142,4.4425,4.6969,5.2886,5.4581,5.4246,5.7812,5.9458,5.9338,5.5777,5.491,5.467,5.0863,4.7429,4.4566,4.3169,4.0415,3.7627,3.7015,3.6301,3.5813,3.6122,3.6096,3.6565,0.0,0.0,0.0,4.3438,4.4075,4.4539,4.6108,4.6835,4.795,5.0241,5.1902,5.2999,5.3344,6.0295,6.519,6.4708,6.5324,6.5803,6.5884,6.5901,6.6008,6.6183,6.5771,6.5502,6.5494,6.5292,6.5277,6.55,6.578,6.618,6.6704,6.7091,6.7169,6.6878,6.7215,6.7245,6.6999,6.6999,6.6999,6.6999,6.6999,6.6999,6.6999,6.6999,6.6999,6.6999,6.6999,6.6999,6.6999,6.6999,6.6999,6.6969,2.541,2.546,2.5837,2.6934,2.716,2.7562,2.8555,2.9277,3.003,3.0984,3.1438,3.2392,3.439,3.2935,3.2649,3.4618,3.2875,3.1445,3.0919,3.0375,2.9811,2.9193,2.818,2.7327,2.6704,2.6207,2.5695,2.5115,2.5298,2.5402,2.5495,2.6241,2.7317,2.8729,2.9868,3.1775,3.4302,3.7531,4.0576,4.3653,4.8705,5.1361,5.27,5.6922,5.7423,5.6132,5.8321,5.9159,5.889,5.6701,5.7509,5.8441,5.2785,5.0667,4.9471,4.5334,4.1754,3.9032,3.8362,3.7387,3.6622,3.6819,3.6541,3.6304,3.6739,0.0,3.7867,3.833,0.0,4.1147,4.131,0.0,0.0,4.395,4.7702,5.0281,4.9162,5.3222,5.6476,5.6925,5.7611,5.9251,6.2248,6.3761,6.5307,6.7179,6.5275,6.4466,6.5448,6.4533,6.4011,6.4029,6.5257,6.5934,6.6027,6.6616,6.6914,6.6907,6.6939,6.6974,6.6999,6.6999,6.6999,6.6999,6.6999,6.6999,6.6999,6.6999,6.6999,6.6999,6.6999,6.6999,6.6999,6.6999,6.6999,6.6909,2.5787,2.6113,2.6733,2.7211,2.7904,2.8628,2.9321,3.055,3.1625,3.225,3.2986,3.3918,3.5222,3.4264,3.4951,3.8436,3.6907,3.6103,3.6945,3.5479,3.397,3.2577,3.0483,2.9127,2.8624,2.7455,2.6618,2.6103,2.5839,2.5913,2.6241,2.6956,2.8361,3.0436,3.3207,3.5935,3.8732,4.3479,4.5983,4.714,5.1938,5.3352,5.2965,5.6192,5.6911,5.6402,5.7962,5.877,5.8979,5.8141,5.7869,5.7659,5.6675,5.3473,4.9853,4.8656,4.4915,4.1164,4.1216,4.1462,4.13,3.966,4.0238,4.0558,3.8205,3.7892,3.7984,3.7584,0.0,0.0,0.0,0.0,0.0,0.0,4.3611,4.5217,4.5049,4.7348,5.0549,5.4641,5.5411,5.7155,6.1198,6.1349,6.1867,6.3478,6.2634,6.193,6.1619,6.2825,6.3618,6.381,6.4368,6.4888,6.5319,6.5996,6.6114,6.5725,6.6543,6.6732,6.643,6.6819,6.6999,6.6999,6.6999,6.6999,6.6999,6.6999,6.6999,6.6999,6.6999,6.6999,6.6999,6.6999,6.6759,6.637,2.6601,2.7029,2.7652,2.7785,2.8612,2.9574,3.0523,3.1935,3.3143,3.3819,3.4654,3.5752,3.732,3.6553,3.7775,4.2457,4.1027,4.0625,4.2371,3.9953,3.8163,3.7541,3.3645,3.161,3.1819,2.9648,2.8161,2.7426,2.6817,2.6931,2.7729,2.8045,2.9575,3.2184,3.5039,3.8425,4.2252,4.7078,4.9942,5.1462,5.47,5.479,5.3234,5.5204,5.6042,5.6372,5.7663,5.8201,5.8381,5.8919,5.8141,5.7292,5.8904,5.5741,5.1508,5.2216,4.9301,4.5782,4.5636,4.5781,4.5527,4.3478,4.3164,4.275,4.0416,3.9185,0.0,0.0,0.0,0.0,0.0,0.0,0.0,0.0,0.0,4.0798,4.0972,4.2254,4.5347,5.1234,5.2753,5.4749,5.8408,5.8334,5.8655,6.0163,5.9932,5.9575,5.9271,6.1294,6.2737,6.3252,6.3896,6.4356,6.4611,6.5288,6.5407,6.5049,6.6253,6.6572,6.6132,6.6884,6.7124,6.6999,6.6999,6.6999,6.6999,6.6999,6.6999,6.6999,6.6999,6.6879,6.6729,6.6729,6.643,6.5951,2.833,2.833,2.8533,2.9048,2.933,3.0228,3.247,3.3336,3.4336,3.5978,3.6461,3.8122,4.2035,4.0544,4.1416,4.6827,4.504,4.4237,4.566,4.2438,4.1741,4.4556,3.7979,3.511,3.6926,3.3487,3.0831,2.9214,2.8612,2.8982,3.0252,2.9698,3.0881,3.3433,3.3565,3.7228,4.3399,4.5523,5.0122,5.6102,5.7453,5.6855,5.5089,5.5179,5.5653,5.6372,5.7663,5.7334,5.6581,5.8471,5.9069,0.0,0.0,5.721,5.6441,5.5766,5.5047,5.4045,5.1904,4.9612,4.7858,4.8112,4.3886,4.0327,4.2866,4.0895,3.8307,0.0,0.0,0.0,0.0,0.0,0.0,0.0,0.0,0.0,0.0,3.7849,4.0264,4.4444,4.7784,5.0466,5.2216,5.4464,5.6672,0.0,5.7694,5.7921,6.021,6.0369,6.0843,6.1836,6.411,6.4883,6.3872,6.458,6.509,6.5393,6.6205,6.6578,6.6522,6.7319,6.742,6.6999,6.6999,6.6999,6.6999,6.6999,6.6999,6.6999,6.6999,6.661,6.6041,6.6041,6.6011,6.5832,2.9898,2.9917,2.9809,2.9455,3.0194,3.1519,3.3596,3.6331,3.8847,4.0699,4.2261,4.4505,4.7953,4.6999,4.7913,5.24,5.0947,5.0473,5.2156,4.8871,4.7369,4.8386,4.1619,3.8144,3.8858,3.46,3.1529,2.9831,2.9767,2.9966,3.0429,3.1146,3.2216,3.3598,3.6237,4.058,4.6091,4.8514,5.2366,5.6825,5.7274,5.6286,5.479,5.6944,5.7124,5.6457,5.838,5.8958,0.0,6.0005,6.0643,6.0897,6.0324,5.9555,5.8712,5.8032,5.6467,5.5083,0.0,0.0,5.6707,5.4321,5.2359,5.0241,4.7268,4.3843,0.0,0.0,0.0,0.0,0.0,0.0,0.0,0.0,0.0,0.0,0.0,3.715,3.8309,4.0165,4.3546,4.6734,4.92,0.0,0.0,0.0,5.4442,0.0,5.6552,5.8531,6.0279,6.1743,6.3017,6.3698,6.3783,6.4549,6.4872,6.4748,6.5231,6.5347,6.5196,6.5706,6.5831,6.5682,6.6161,6.634,6.637,6.6819,6.6729,6.634,6.634,6.5951,6.5383,6.5862,6.5443,6.4545,3.1116,3.1535,3.1673,3.082,3.2148,3.4105,3.6362,3.968,4.2435,4.3855,4.6279,4.8513,5.0221,5.0349,5.1782,5.5496,5.4694,5.4926,5.6996,5.3548,5.2115,5.3661,4.6679,4.3088,4.3737,3.8403,3.4745,3.2936,3.1715,3.1335,3.1802,3.252,3.3333,3.4322,3.7126,4.1156,4.6061,4.9194,5.2516,5.5718,5.5957,5.5897,5.5857,5.7936,5.784,5.6884,0.0,6.0255,6.0562,6.1145,6.1642,6.2054,6.2467,6.1963,6.1281,6.1533,6.0412,5.9198,5.9707,6.0799,0.0,5.9534,5.7781,0.0,5.3276,0.0,4.5954,0.0,0.0,0.0,0.0,0.0,0.0,0.0,0.0,0.0,0.0,3.6704,3.699,3.7449,4.0262,4.3169,0.0,0.0,0.0,0.0,0.0,5.2235,0.0,5.6712,5.8946,6.1374,6.2566,6.3428,6.4027,6.4715,6.5099,6.5153,6.5254,6.5089,6.4648,6.5187,6.5286,6.5024,6.5443,6.5622,6.5682,6.6131,6.6041,6.5622,6.5622,6.5203,6.4695,6.5144,6.4605,6.3617,3.21,3.3292,3.4136,3.3263,3.5283,3.7914,4.0591,4.3227,4.5117,4.5609,4.8499,5.0228,4.9517,5.1062,5.3357,5.6393,5.6486,5.745,5.9964,5.6246,5.5813,5.988,5.2807,4.9509,5.1096,4.4518,4.0088,3.8147,3.4394,3.3157,3.4283,3.3814,3.428,3.5519,3.6178,3.902,4.3529,4.7451,5.0744,5.3462,5.4271,5.6096,5.8325,5.8346,5.8038,5.7894,6.0322,6.1208,6.1367,6.197,6.2195,6.2503,6.4205,6.4293,6.4122,6.5971,6.6541,6.611,6.395,6.2511,6.2007,6.3568,6.0033,0.0,0.0,0.0,5.2789,0.0,0.0,0.0,0.0,0.0,0.0,0.0,0.0,0.0,0.0,0.0,0.0,0.0,0.0,0.0,0.0,0.0,0.0,0.0,0.0,4.963,5.4306,5.4934,5.6852,6.0542,6.2585,6.3806,6.4235,6.4922,6.5649,6.6412,6.6195,6.5685,6.4988,6.5721,6.5637,6.4934,6.4994,6.4994,6.4964,6.5113,6.5113,6.5023,6.5023,6.4575,6.3947,6.3947,6.3646,6.3194,3.4343,3.5906,3.7323,3.7586,3.9801,4.1689,4.2162,4.5598,4.844,4.9301,5.1624,5.3849,5.5594,5.7517,5.9016,5.9821,5.9384,5.9395,6.0084,5.7733,5.7243,5.9254,5.4911,5.2274,5.1854,4.601,4.1609,3.8859,3.5952,3.4466,3.4312,3.4774,3.5177,3.5519,3.6178,3.902,4.3409,4.5454,4.9959,5.5983,5.8874,5.9982,6.0127,6.1563,6.2544,6.318,6.3421,6.3721,6.4021,6.461,6.4855,6.4928,6.5044,6.5481,6.6097,6.6576,6.7112,6.7294,6.6179,6.6044,6.6057,6.5411,6.2963,6.0805,0.0,0.0,0.0,0.0,0.0,0.0,0.0,0.0,0.0,0.0,0.0,0.0,0.0,0.0,0.0,3.6414,0.0,0.0,0.0,0.0,0.0,0.0,0.0,4.9035,5.2298,5.3965,5.5967,5.8479,6.0023,6.1208,6.1919,6.3129,6.4197,6.5146,6.555,6.5731,6.5697,6.4654,6.4069,6.3935,6.5049,6.506,6.4423,6.6635,6.674,6.5517,6.5517,6.4637,6.3347,6.3347,6.3743,6.4293,3.663,3.7984,3.9574,4.0822,4.3487,4.5638,4.6298,4.9987,5.3028,5.3896,5.6125,5.7872,5.8444,6.0059,6.1076,6.1076,6.0745,6.0655,6.0954,5.9388,5.892,5.9939,5.7478,5.5829,5.5186,5.0369,4.6298,4.311,3.9658,3.704,3.5268,3.5727,3.5938,3.5998,3.7225,3.9385,4.2387,4.5573,5.0569,5.6586,5.8785,6.07,0.0,6.3381,6.5297,6.728,6.669,6.6584,6.6785,6.7132,6.7005,6.679,6.689,6.687,6.6791,6.6791,6.688,6.6846,6.644,6.688,6.7286,6.6779,6.573,6.4802,6.4732,6.2348,6.0429,0.0,5.9175,5.7575,0.0,0.0,0.0,0.0,0.0,0.0,0.0,0.0,0.0,0.0,0.0,0.0,0.0,0.0,0.0,0.0,0.0,0.0,5.2225,5.2387,5.4175,5.811,5.9111,6.0007,6.0929,6.3405,6.488,6.5419,6.616,6.6559,6.6658,6.5633,6.5063,6.4954,6.5681,6.5648,6.5179,6.6846,6.6946,6.6032,6.6032,6.5404,6.4543,6.4543,6.4626,6.4789,3.9082,3.9983,4.141,4.322,4.6352,4.9254,5.1409,5.4581,5.7034,5.7846,6.0146,6.1074,5.9428,6.0595,6.1523,6.1584,6.1525,6.1702,6.2181,6.1044,6.0535,6.0954,5.9937,5.9279,5.9099,5.5478,5.1911,4.8438,4.3978,4.0056,3.6763,3.6673,3.6673,3.6823,3.8619,4.0335,4.2215,4.7525,5.2502,5.6855,5.761,6.0686,6.4818,6.4884,6.7112,7.015,6.9586,6.9282,6.9113,6.9113,6.8639,6.8166,6.8876,6.8267,6.7231,6.7129,6.6711,6.6224,6.5954,6.6305,6.6927,6.759,6.776,6.7963,6.8774,6.6795,6.5578,6.8352,6.4585,6.1699,0.0,0.0,0.0,0.0,0.0,0.0,0.0,0.0,0.0,0.0,0.0,0.0,0.0,0.0,0.0,0.0,0.0,0.0,5.2313,5.0608,5.2058,5.7825,5.8695,5.9557,6.0623,6.4472,6.6411,6.6461,6.7395,6.7871,6.7864,6.7465,6.7131,6.6861,6.6684,6.6533,6.6428,6.6716,6.6768,6.6612,6.6612,6.6533,6.6428,6.6585,6.6004,6.5278,4.2514,4.3091,4.3886,4.4805,4.7676,5.0907,5.4012,5.461,5.5329,5.7064,5.865,5.9697,5.9877,6.2061,6.3707,6.4276,6.3827,6.3318,6.2958,6.2181,6.1313,6.0296,6.0595,6.0236,5.9129,5.6851,5.3528,4.9127,4.5544,4.1833,3.805,3.7494,3.7554,3.811,3.9168,4.2726,4.8235,5.2208,5.6503,6.0849,6.3314,6.5763,6.7969,6.8553,6.9353,7.0263,7.0737,7.0128,6.9113,6.9113,6.9011,6.891,6.9045,6.9316,6.9485,6.8876,6.9045,6.8977,6.7117,6.669,6.6825,6.696,6.6994,6.7184,6.7929,6.7686,6.7453,6.7987,6.6753,6.615,6.7975,0.0,0.0,0.0,0.0,0.0,0.0,0.0,0.0,0.0,0.0,0.0,0.0,0.0,0.0,0.0,0.0,0.0,0.0,4.9515,5.1351,5.383,5.6302,5.8469,0.0,0.0,6.5814,6.7232,6.8223,6.892,6.9307,6.7921,6.7292,6.7208,6.7618,6.7286,6.6559,6.8436,6.8658,6.7795,6.7795,6.7234,6.6507,6.7465,6.7668,6.7541,4.4377,4.5185,4.5963,4.6292,4.9075,5.2247,5.5264,5.6585,5.8201,6.0864,6.1463,6.2032,6.3049,6.3977,6.4635,6.4964,6.4695,6.4425,6.4096,6.3169,6.2329,6.1701,6.0954,6.0446,6.0146,5.853,5.5444,5.0803,4.8199,4.4496,3.9936,3.9367,3.9271,3.9745,4.3008,4.6725,5.0836,5.5485,5.9337,6.2649,6.5577,6.8105,7.0115,7.0829,7.1432,7.1909,7.1887,7.1413,7.0737,7.0364,6.9992,6.9654,6.9654,6.9654,6.9553,6.9214,6.935,6.9383,6.8301,6.7996,6.7895,6.7489,6.7083,6.6893,6.7252,6.7354,6.7455,6.7827,6.7624,6.691,6.5324,6.2009,0.0,0.0,0.0,0.0,0.0,0.0,0.0,0.0,0.0,0.0,0.0,0.0,0.0,0.0,0.0,0.0,0.0,4.8292,5.0223,5.4417,0.0,0.0,5.8932,0.0,6.5975,6.5964,6.8255,6.979,7.0482,6.958,6.9163,6.9163,6.9171,6.8879,6.8428,6.9406,6.9478,6.8977,6.8977,6.8658,6.8229,6.8781,6.8977,6.8977,4.689,4.7938,4.8805,4.8955,5.1229,5.3952,5.6611,5.8916,6.1403,6.4366,6.4605,6.4844,6.5892,6.5772,6.5562,6.5443,6.5562,6.5443,6.5024,6.4186,6.3467,6.2928,6.1521,6.0835,6.1076,6.0086,5.742,5.3151,5.0976,4.7104,4.1746,4.2209,4.2989,4.4163,4.8467,5.1663,5.4113,5.8626,6.2036,6.4616,6.7289,6.9646,7.165,7.2529,7.3037,7.3229,7.28,7.2428,7.209,7.1492,7.0906,7.0432,7.0432,7.0026,6.9553,6.9383,6.9316,6.9316,6.9147,6.9113,6.8977,6.8504,6.7827,6.7299,6.7299,6.7028,6.696,6.7557,6.7793,6.6871,6.3457,6.264,0.0,0.0,0.0,0.0,0.0,0.0,0.0,0.0,0.0,0.0,0.0,0.0,0.0,0.0,0.0,0.0,4.9032,4.7445,4.9254,5.5393,5.6372,5.7249,5.825,0.0,6.6357,6.5699,6.8459,7.0344,7.1289,7.1007,7.0893,7.087,7.0386,7.0153,7.0082,6.9893,6.9798,6.9798,6.9798,6.9798,6.9798,6.9798,6.9798,6.9798,5.2097,5.3054,5.3743,5.4341,5.5234,5.6701,5.9336,6.0446,6.1762,6.3827,6.5114,6.5862,6.6011,6.7029,6.7479,6.6849,6.7389,6.6939,6.5114,6.5443,6.4665,6.2301,6.2599,6.2271,6.1134,6.0956,5.9384,5.6214,5.3326,4.8825,4.2948,4.6424,5.0396,5.4677,5.5077,5.7538,6.1438,6.2595,6.5163,6.8678,7.0299,7.1492,7.2462,7.3883,7.3612,7.2563,7.3172,7.2529,7.1391,7.1323,7.1255,7.121,7.121,7.1154,7.0973,7.0297,7.0116,6.9947,6.9282,6.9113,6.9248,6.9823,6.9417,6.8876,6.8876,6.7806,6.6825,6.6893,6.7455,6.7863,6.7849,6.4115,6.0168,0.0,0.0,0.0,0.0,0.0,0.0,0.0,0.0,0.0,0.0,0.0,0.0,0.0,4.3521,0.0,0.0,4.7693,4.912,5.3862,5.4909,5.6915,6.0133,6.3691,6.67,6.9116,6.9567,7.0344,7.1289,7.1007,7.0893,7.087,7.0386,7.0059,6.9846,6.9822,6.9798,6.9798,6.9798,6.9798,6.9798,6.9798,6.9798,6.9798,5.4546,5.5234,5.5598,5.6226,5.8061,5.9786,6.0839,6.3216,6.508,6.5441,6.6132,6.6759,6.7148,6.8016,6.8495,6.8226,6.8435,6.8169,6.7184,6.6613,6.574,6.4498,6.3562,6.2779,6.2236,6.1841,6.0264,5.743,0.0,5.2234,5.0269,5.0592,5.3018,5.7195,5.9014,6.0985,6.3173,6.5725,6.7974,6.9857,7.0883,7.2022,7.3172,7.4221,7.4525,7.4356,7.4221,7.351,7.2563,7.2124,7.1684,7.1289,7.1289,7.1289,7.1222,7.0973,7.0872,7.0804,7.05,7.0094,6.9823,7.015,6.9654,6.9113,6.9113,6.8639,6.8064,6.7557,6.7692,6.7665,6.6973,6.5713,6.3727,6.0493,0.0,0.0,0.0,0.0,0.0,0.0,0.0,0.0,0.0,0.0,0.0,0.0,0.0,0.0,0.0,4.8325,5.1118,5.5808,5.6751,5.9046,6.2899,6.4231,6.5889,6.7925,6.8929,7.0073,7.1289,7.1199,7.103,7.087,7.0549,7.0246,7.0011,6.9869,6.9798,6.9798,6.9798,6.9798,6.9798,6.9798,6.9798,6.9798,5.7281,5.817,5.8704,5.9335,6.1335,6.2954,6.3165,6.5734,6.7548,6.7246,6.7788,6.8175,6.8143,6.8921,6.9403,6.9318,6.9469,6.9232,6.8394,6.7457,6.6579,6.5723,6.4327,6.3477,6.3295,6.2624,6.1403,5.9597,5.6843,5.545,5.5416,5.4514,5.6763,6.1688,6.3428,6.4647,6.5562,6.8287,6.9857,7.0601,7.1548,7.2699,7.3883,7.4661,7.51,7.527,7.4559,7.3815,7.3037,7.2326,7.1751,7.1289,7.1289,7.1289,7.1289,7.1289,7.1289,7.1289,7.1289,7.0939,7.0534,7.0534,6.9958,6.9417,6.9417,6.9248,6.8944,6.8368,6.7895,6.732,6.6474,6.6589,6.574,6.2473,0.0,0.0,0.0,0.0,0.0,0.0,0.0,0.0,0.0,0.0,0.0,0.0,0.0,0.0,0.0,0.0,5.169,5.6194,0.0,0.0,6.316,6.3714,6.5155,6.7468,6.8571,6.9891,7.1289,7.1289,7.1154,7.0893,7.071,7.0469,7.027,7.0011,6.9917,6.9917,6.9846,6.9798,6.9822,6.9893,6.9917,6.9917,6.1067,6.2766,6.4114,6.4782,6.548,6.6178,6.6846,6.7544,6.8243,6.8881,7.0126,7.0335,6.8664,6.9657,7.0357,7.0034,7.0581,7.0126,6.8152,6.8,6.7089,6.5115,6.4934,6.46,6.3993,6.3325,6.3097,6.3312,6.0384,5.8036,5.6337,5.8098,6.3077,7.0455,6.9145,6.9105,7.0128,7.0161,7.0601,7.1391,7.2868,7.3916,7.4671,7.5405,7.5236,7.4525,7.3781,7.3037,7.2293,7.1582,7.1289,7.1289,7.1289,7.1289,7.1289,7.1289,7.1289,7.1289,7.1289,7.1289,7.1289,7.1289,7.0737,7.0184,7.0184,6.962,6.9113,6.9079,6.7873,6.7028,6.7726,6.6465,6.4641,6.2635,0.0,0.0,0.0,0.0,0.0,0.0,0.0,0.0,5.3629,0.0,0.0,0.0,0.0,0.0,0.0,0.0,0.0,5.3719,5.3266,0.0,5.9896,6.1593,6.4647,6.9079,6.9079,6.9891,7.1289,7.1289,7.1154,7.0893,7.0893,7.0756,7.0469,7.027,7.0209,7.0153,6.9917,6.9798,6.9846,7.0082,7.0209,7.0223,6.3336,6.427,6.4902,6.557,6.6779,6.7779,6.7993,6.9336,7.0526,7.1147,7.1507,7.1686,7.1774,7.1628,7.1456,7.137,7.1552,7.1099,6.9733,6.9214,6.8174,6.6359,6.5838,6.5284,6.4641,6.4855,6.4546,6.3647,6.254,6.2235,6.2705,6.512,6.7683,7.0331,6.9894,7.0142,7.0973,7.1481,7.2124,7.2868,7.3849,7.439,7.4695,7.5439,7.554,7.5337,7.5067,7.4187,7.3105,7.2868,7.2124,7.1289,7.1289,7.1289,7.1289,7.1289,7.1289,7.1289,7.1289,7.1289,7.1289,7.1289,7.112,7.0973,7.0973,7.0364,6.9688,6.9214,6.8707,6.8267,6.7963,6.7052,6.5466,6.2728,6.2486,0.0,5.5939,0.0,5.734,0.0,0.0,0.0,0.0,5.4488,0.0,0.0,0.0,0.0,5.0164,0.0,0.0,0.0,5.8486,0.0,6.5322,6.439,6.5662,6.9113,6.9113,6.9891,7.1289,7.1289,7.1244,7.1176,7.0984,7.0848,7.0756,7.0526,7.0376,7.0353,7.0153,7.0176,7.026,7.0223,7.0293,7.0399,6.5699,6.6422,6.7015,6.7838,6.9061,6.9925,6.9925,7.1428,7.2692,7.3089,7.3476,7.3927,7.449,7.4043,7.3354,7.2451,7.2357,7.1871,7.0679,6.9944,6.8899,6.7352,6.6396,6.5883,6.5888,6.6043,6.5887,6.5407,6.5649,6.6352,6.7596,6.94,7.053,7.1007,7.1007,7.1447,7.2157,7.2631,7.324,7.395,7.4424,7.4796,7.5067,7.5506,7.5709,7.5676,7.5405,7.4695,7.3883,7.3601,7.2868,7.209,7.1819,7.1695,7.1661,7.1357,7.1289,7.1289,7.1289,7.1289,7.1289,7.1289,7.1289,7.1289,7.1289,7.0737,7.006,6.962,6.9282,6.8842,6.8064,6.7523,6.653,6.4351,6.4349,6.3188,5.9058,0.0,5.9706,0.0,0.0,0.0,0.0,5.6975,5.5862,0.0,0.0,5.5347,5.3996,0.0,5.6607,5.9919,6.0294,6.2271,6.6216,6.5155,6.6102,6.9113,6.9654,7.0432,7.1289,7.1289,7.1289,7.1289,7.1131,7.103,7.1007,7.0779,7.0631,7.0608,7.041,7.041,7.0492,7.0479,7.0549,7.0654,6.8018,6.9055,7.0049,7.1114,7.1893,7.2352,7.2352,7.3609,7.4603,7.4685,7.5802,7.6649,7.6734,7.6649,7.5707,7.3447,7.32,7.2582,7.1254,7.0512,6.9554,6.8197,6.6959,6.6686,6.7614,6.7039,6.7297,6.8359,6.931,7.0177,7.1003,7.1318,7.1819,7.2462,7.2462,7.2868,7.3601,7.3601,7.3984,7.4695,7.4695,7.51,7.5709,7.5709,7.5709,7.5608,7.4931,7.4661,7.4492,7.3815,7.3567,7.3398,7.2699,7.2462,7.2326,7.1526,7.1289,7.1289,7.1289,7.1289,7.1289,7.1289,7.1289,7.1289,7.1289,7.077,7.0285,7.0285,6.9688,6.8944,6.8199,6.803,6.776,6.6994,6.6086,6.4762,6.2656,6.3141,6.2272,0.0,0.0,0.0,0.0,5.8712,5.8048,0.0,0.0,5.7423,6.0036,0.0,5.8396,5.8053,5.9585,6.1454,6.3714,6.4478,6.6305,6.918,7.0613,7.1289,7.1289,7.1289,7.1289,7.1289,7.1289,7.1289,7.1289,7.1007,7.0916,7.0893,7.0608,7.0515,7.0584,7.0825,7.0916,7.0961,6.9708,7.0367,7.0982,7.1245,7.2282,7.307,7.307,7.4327,7.5597,7.6517,7.6626,7.6958,7.7866,7.7152,7.6366,7.5794,7.5224,7.4552,7.3684,7.2919,7.1895,7.0572,7.0188,6.9647,6.8821,6.9143,6.9851,7.0906,7.0671,7.1356,7.2847,7.2945,7.3071,7.324,7.324,7.3646,7.4356,7.4356,7.4762,7.5439,7.5439,7.554,7.5709,7.5709,7.5709,7.5676,7.5506,7.51,7.4593,7.439,7.395,7.3466,7.3274,7.324,7.2969,7.1684,7.1289,7.1289,7.1289,7.1289,7.1289,7.1289,7.1289,7.1289,7.1289,7.1176,7.1041,7.1041,7.0432,6.9857,6.971,6.918,6.8571,6.776,6.7453,6.6259,6.3302,6.2777,6.2157,0.0,6.0554,6.1045,6.2588,6.1828,6.0589,0.0,0.0,6.0952,5.7944,6.2465,6.4892,6.4287,6.3626,6.4185,6.6013,6.6745,6.8064,6.9947,7.0872,7.1289,7.1289,7.1289,7.1289,7.1289,7.1289,7.1289,7.1289,7.1007,7.1007,7.1176,7.0676,7.0756,7.1075,7.0939,7.1007,7.1222,7.188,7.2277,7.27,7.3233,7.392,7.439,7.439,7.5679,7.6873,7.7527,7.7986,7.8491,7.9158,7.8325,7.7754,7.7754,7.6681,7.5585,7.4576,7.4095,7.3194,7.1822,7.1466,7.1149,7.0909,7.0942,7.1672,7.3064,7.2376,7.2694,7.3984,7.3669,7.3703,7.3984,7.3984,7.4424,7.51,7.51,7.5337,7.5709,7.5709,7.5709,7.5709,7.5709,7.5709,7.5709,7.5709,7.5439,7.51,7.51,7.483,7.4424,7.4119,7.3984,7.3713,7.2259,7.1819,7.1751,7.1391,7.1289,7.1289,7.1289,7.1289,7.1289,7.1289,7.1289,7.1289,7.1289,7.0973,7.0601,7.0263,6.9857,6.935,6.8571,6.7557,6.6272,6.4522,6.3739,6.3271,6.2999,6.2892,6.3283,6.4394,6.3585,6.254,6.1436,6.2476,0.0,6.1362,6.3998,6.5326,6.4906,6.5234,6.5874,6.6791,6.7895,6.9045,7.0217,7.0973,7.1289,7.1289,7.1289,7.1289,7.1289,7.1289,7.1289,7.1289,7.1154,7.1176,7.1267,7.0984,7.103,7.1289,7.1154,7.1176,7.1289,7.4089,7.4265,7.4539,7.5532,7.5709,7.5709,7.5709,7.6893,7.7874,7.8,7.9194,8.0073,8.0175,7.9532,7.916,7.9236,7.7841,7.6435,7.5125,7.5027,7.4407,7.3044,7.2574,7.2653,7.3309,7.2752,7.3222,7.4796,7.4119,7.4153,7.4762,7.4119,7.4153,7.4796,7.4796,7.51,7.5709,7.5709,7.5709,7.5709,7.5709,7.5709,7.5709,7.5845,7.5879,7.5879,7.6014,7.6048,7.6014,7.5912,7.5879,7.5743,7.4999,7.4671,7.4356,7.2969,7.2496,7.2225,7.1492,7.1289,7.1289,7.1289,7.1289,7.1289,7.1289,7.1289,7.1289,7.1289,7.1289,7.1109,7.0466,7.0364,7.006,6.9079,6.7286,6.592,6.5561,6.5087,6.4783,6.4783,6.5225,6.5548,6.5548,6.4607,6.4031,6.4031,6.2971,6.3367,6.5778,6.4584,6.3739,6.3499,6.5636,6.6893,6.7129,6.8571,6.962,7.0364,7.1007,7.1289,7.1289,7.1289,7.1289,7.1289,7.1289,7.1289,7.1289,7.1267,7.1267,7.1289,7.1267,7.1267,7.1289,7.1289,7.1289,7.1289,7.5412,7.5436,7.5484,7.5686,7.5709,7.5709,7.5709,7.6487,7.7299,7.7908,7.8754,7.9532,8.0141,7.9532,7.9363,7.9972,7.9204,7.8354,7.7505,7.7472,7.7102,7.6203,7.6665,7.6436,7.5301,7.5157,7.5262,7.554,7.5405,7.5405,7.554,7.5405,7.5405,7.554,7.554,7.5574,7.5709,7.5709,7.5709,7.5709,7.5709,7.5709,7.5777,7.6454,7.6724,7.6792,7.7401,7.7638,7.7536,7.6927,7.6724,7.6589,7.5777,7.51,7.4434,7.3578,7.2868,7.2225,7.1492,7.1289,7.1289,7.1289,7.1289,7.1289,7.1289,7.1289,7.1289,7.1289,7.1289,7.1255,7.1142,7.1142,7.0466,6.8402,6.7793,6.6914,6.5019,6.5189,6.5527,6.5527,6.6146,6.6567,6.6567,6.5658,6.5069,6.5069,6.4894,6.441,6.3626,6.5289,6.5981,6.534,6.6255,6.7455,6.8741,6.9586,7.0398,7.1142,7.1255,7.1289,7.1289,7.1289,7.1289,7.1289,7.1289,7.1289,7.1289,7.1086,7.1109,7.1289,7.103,7.1109,7.1289,7.1289,7.1289,7.1289,7.5709,7.5709,7.5709,7.5709,7.5709,7.5709,7.5709,7.6386,7.7029,7.7367,7.8416,7.9092,7.9025,7.9058,7.9092,7.9025,7.9058,7.8957,7.8619,7.8585,7.8247,7.7502,7.7831,7.7696,7.6927,7.6927,7.6927,7.6927,7.6927,7.6927,7.6927,7.6521,7.6352,7.6318,7.5879,7.5709,7.5709,7.5709,7.5946,7.6352,7.6352,7.6589,7.6961,7.7333,7.7468,7.7536,7.7899,7.8,7.7967,7.7604,7.7232,7.6826,7.6454,7.554,7.4458,7.3713,7.2699,7.1729,7.1391,7.1289,7.1289,7.1289,7.1289,7.1289,7.1289,7.1289,7.1289,7.1289,7.1289,7.1289,7.1289,7.1289,7.0703,6.8842,6.8166,6.7252,6.5425,6.5831,6.6305,6.6305,6.732,6.8064,6.8064,6.7608,6.7367,6.7367,6.7367,6.7065,6.6361,6.7423,6.7895,6.7523,6.7861,6.8571,6.9688,7.0026,7.0567,7.1289,7.1289,7.1289,7.1289,7.1289,7.1289,7.1289,7.1289,7.1289,7.1289,7.1176,7.1199,7.1289,7.1176,7.1199,7.1289,7.1289,7.1289,7.1289,7.5709,7.5709,7.5709,7.5709,7.5709,7.5709,7.5709,7.6217,7.6758,7.7096,7.8145,7.8754,7.8517,7.8855,7.8957,7.8551,7.8889,7.9169,7.9363,7.9363,7.9025,7.828,7.8247,7.8348,7.8483,7.8483,7.8416,7.8247,7.8247,7.8145,7.8,7.7401,7.7164,7.713,7.6487,7.6217,7.6217,7.6217,7.6589,7.7164,7.7164,7.7468,7.8034,7.8179,7.8247,7.828,7.845,7.8483,7.8483,7.8314,7.7773,7.713,7.6961,7.5845,7.4458,7.3713,7.2462,7.1289,7.1289,7.1289,7.1289,7.1289,7.1289,7.1289,7.1289,7.1289,7.1289,7.1289,7.1289,7.1289,7.1289,7.1289,7.0838,6.935,6.8571,6.7793,6.6643,6.6812,6.7184,6.7557,6.847,6.9113,6.9113,6.9113,6.9113,6.9113,6.9113,6.9113,6.9113,6.9113,6.918,6.935,6.935,6.962,7.0195,7.0364,7.0737,7.1289,7.1289,7.1289,7.1289,7.1289,7.1289,7.1289,7.1289,7.1289,7.1289,7.1289,7.1289,7.1289,7.1289,7.1289,7.1289,7.1289,7.1289,7.1289,7.5709,7.5709,7.5709,7.5709,7.5709,7.5709,7.5709,7.5743,7.6284,7.7705,7.8034,7.8585,7.9904,7.9498,7.9363,7.9972,7.9464,7.9397,8.0073,8.0107,7.9803,7.9034,7.9025,7.9329,8.0006,8.004,7.9701,7.9025,7.9025,7.8686,7.8,7.7967,7.7908,7.7933,7.7865,7.7831,7.7831,7.7831,7.7865,7.7908,7.7908,7.7967,7.8044,7.8754,7.9025,7.9126,7.9803,8.004,7.9938,7.9261,7.8517,7.7773,7.713,7.5845,7.4458,7.3713,7.2462,7.1289,7.1289,7.1289,7.1289,7.1289,7.1289,7.1289,7.1289,7.1289,7.1289,7.1289,7.1289,7.1289,7.1289,7.1289,7.0838,6.935,6.9045,6.8977,6.8876,6.8267,6.8335,6.9777,6.9451,6.9113,6.9113,6.9113,6.9113,6.9113,6.9113,6.9113,6.9113,6.9113,6.9417,7.0116,7.0094,7.015,7.0217,7.0872,7.1255,7.1289,7.1289,7.1289,7.1289,7.1289,7.1289,7.1289,7.1289,7.1289,7.1289,7.1289,7.1289,7.1289,7.1289,7.1289,7.1289,7.1289,7.1289,7.1289,7.5709,7.5709,7.5709,7.5709,7.5709,7.5709,7.5709,7.6115,7.6657,7.7232,7.8111,7.872,7.8822,7.9397,7.9701,7.9532,7.9701,7.9904,8.0175,7.9769,7.96,7.9769,7.9769,7.9904,8.0175,8.0209,8.0073,7.9769,7.9769,7.9634,7.9329,7.8889,7.8686,7.8653,7.8179,7.8,7.8,7.8,7.8247,7.8686,7.8686,7.8957,7.9397,7.9667,7.9769,7.9837,8.0107,8.0209,8.0175,7.987,7.8991,7.7967,7.7671,7.6217,7.439,7.3172,7.209,7.1289,7.1289,7.1289,7.1289,7.1289,7.1289,7.1289,7.1289,7.1289,7.1289,7.1289,7.1289,7.1289,7.1289,7.1289,7.0838,6.935,6.9891,7.0161,6.9248,6.962,7.0229,7.0804,7.0635,7.0444,7.0444,7.0444,7.0444,7.0444,7.0444,7.0444,7.0444,7.0444,7.0601,7.0872,7.0872,7.0872,7.0872,7.1176,7.1289,7.1289,7.1289,7.1289,7.1289,7.1289,7.1289,7.1289,7.1289,7.1289,7.1289,7.1289,7.1289,7.1289,7.1289,7.1289,7.1289,7.1289,7.1289,7.1289,7.5709,7.5709,7.5777,7.6014,7.5879,7.5845,7.6352,7.669,7.7063,7.7536,7.8483,7.9025,7.872,7.96,8.0006,7.9498,7.9904,8.0209,8.0209,7.9735,7.9566,7.9837,7.987,7.9972,8.0175,8.0209,8.0209,8.0209,8.0209,8.0209,8.0175,7.9701,7.9464,7.9431,7.8923,7.8686,7.8686,7.8686,7.8991,7.9464,7.9464,7.9769,8.0209,8.0209,8.0209,8.0209,8.0209,8.0209,8.0209,8.0209,7.9228,7.8,7.8,7.6284,7.4052,7.3037,7.2056,7.1289,7.1289,7.1289,7.1289,7.1289,7.1289,7.1289,7.1289,7.1289,7.1289,7.1289,7.1289,7.1289,7.1289,7.1289,7.0973,6.9958,7.0613,7.0951,6.9925,7.0669,7.1289,7.1289,7.1289,7.1289,7.1289,7.1289,7.1289,7.1289,7.1289,7.1289,7.1289,7.1289,7.1289,7.1289,7.1289,7.1289,7.1289,7.1289,7.1289,7.1289,7.1289,7.1289,7.1289,7.1289,7.1289,7.1289,7.1289,7.1289,7.1289,7.1289,7.1289,7.1289,7.1289,7.1289,7.1289,7.1289,7.1289,7.1289,7.5709,7.5709,7.5946,7.6758,7.6251,7.6217,7.7764,7.7367,7.7435,7.8898,7.9126,7.9397,8.0107,8.0209,8.0209,8.0209,8.0209,8.0209,8.0175,8.0175,7.987,7.9135,7.9126,7.9464,8.0175,8.0209,8.0209,8.0209,8.0209,8.0209,8.0209,8.0209,8.0209,8.0209,8.0209,8.0209,8.0209,8.0209,8.0209,8.0209,8.0209,8.0209,8.0209,8.0209,8.0209,8.0209,8.0209,8.0209,8.0209,8.0209,7.9228,7.8,7.8,7.5936,7.35,7.35,7.2462,7.1289,7.1289,7.1289,7.1289,7.1289,7.1289,7.1289,7.1289,7.1289,7.1289,7.1289,7.1289,7.1289,7.1289,7.1289,7.1289,7.1289,7.1289,7.1289,7.1289,7.1289,7.1289,7.1289,7.1289,7.1289,7.1289,7.1289,7.1289,7.1289,7.1289,7.1289,7.1289,7.1289,7.1289,7.1289,7.1289,7.1289,7.1289,7.1289,7.1289,7.1289,7.1289,7.1289,7.1289,7.1289,7.1289,7.1289,7.1289,7.1289,7.1289,7.1289,7.1289,7.1289,7.1289,7.1289,7.1289,7.1289,7.1289,7.1289,7.5709,7.5709,7.5777,7.6014,7.6318,7.669,7.7164,7.7942,7.8594,7.9034,7.9566,7.9972,8.0175,8.0209,8.0209,8.0209,8.0209,7.9972,7.9464,7.9431,7.9329,7.9101,7.96,7.9972,8.0209,8.0209,8.0209,8.0209,8.0209,8.0209,8.0209,8.0209,8.0209,8.0209,8.0209,8.0209,8.0209,8.0209,8.0209,8.0209,8.0209,8.0209,8.0209,8.0209,8.0209,8.0209,8.0209,8.0209,8.0209,8.0209,7.9228,7.7831,7.6724,7.5033,7.35,7.35,7.2462,7.1289,7.1289,7.1289,7.1289,7.1289,7.1289,7.1289,7.1289,7.1289,7.1289,7.1289,7.1289,7.1289,7.1289,7.1289,7.1289,7.1289,7.1289,7.1289,7.1289,7.1289,7.1289,7.1289,7.1289,7.1289,7.1289,7.1289,7.1289,7.1289,7.1289,7.1289,7.1289,7.1289,7.1289,7.1289,7.1289,7.1289,7.1289,7.1289,7.1289,7.1289,7.1289,7.1289,7.1289,7.1289,7.1289,7.1289,7.1289,7.1289,7.1289,7.1289,7.1289,7.1289,7.1289,7.1289,7.1289,7.1289,7.1289,7.1289,7.6183,7.6183,7.6284,7.6555,7.6758,7.7198,7.8077,7.872,7.9203,7.9498,7.9938,8.0209,8.0209,8.0209,8.0209,8.0209,8.0209,8.0006,7.9566,7.9532,7.9532,7.9532,7.9972,8.0209,8.0209,8.0209,8.0209,8.0209,8.0209,8.0209,8.0209,8.0209,8.0209,8.0209,8.0209,8.0209,8.0209,8.0209,8.0209,8.0209,8.0209,8.0209,8.0209,8.0209,8.0209,8.0209,8.0209,8.0209,8.0175,7.987,7.8788,7.7333,7.6082,7.4695,7.3567,7.3849,7.2699,7.1357,7.1684,7.1526,7.1289,7.1289,7.1289,7.1289,7.1289,7.1289,7.1289,7.1289,7.1289,7.1289,7.1289,7.1289,7.1289,7.1289,7.1289,7.1289,7.1289,7.1289,7.1289,7.1289,7.1289,7.1289,7.1289,7.1289,7.1289,7.1289,7.1289,7.1289,7.1289,7.1289,7.1289,7.1289,7.1289,7.1289,7.1289,7.1289,7.1289,7.1289,7.1289,7.1289,7.1289,7.1289,7.1289,7.1289,7.1289,7.1289,7.1289,7.1289,7.1289,7.1289,7.1289,7.1289,7.1289,7.1289,7.1289,7.1289,7.6893,7.6893,7.713,7.7874,7.7502,7.7773,7.9803,7.96,7.9464,8.0107,8.0209,8.0209,8.0209,8.0209,8.0209,8.0209,8.0209,8.0209,8.0209,8.0209,8.0209,8.0209,8.0209,8.0209,8.0209,8.0209,8.0209,8.0209,8.0209,8.0209,8.0209,8.0209,8.0209,8.0209,8.0209,8.0209,8.0209,8.0209,8.0209,8.0209,8.0209,8.0209,8.0209,8.0209,8.0209,8.0209,8.0209,8.0175,7.9972,7.9194,7.801,7.6758,7.5946,7.4728,7.3713,7.439,7.3082,7.1526,7.2225,7.1853,7.1289,7.1289,7.1289,7.1289,7.1289,7.1289,7.1289,7.1289,7.1289,7.1289,7.1289,7.1289,7.1289,7.1289,7.1289,7.1289,7.1289,7.1289,7.1289,7.1289,7.1289,7.1289,7.1289,7.1289,7.1289,7.1289,7.1289,7.1289,7.1289,7.1289,7.1289,7.1289,7.1289,7.1289,7.1289,7.1289,7.1289,7.1289,7.1289,7.1289,7.1289,7.1289,7.1289,7.1289,7.1289,7.1289,7.1289,7.1289,7.1289,7.1289,7.1289,7.1289,7.1289,7.1289,7.1289,7.1289,7.6792,7.6893,7.713,7.7874,7.8348,7.8788,7.9295,7.9701,8.0006,8.0175,8.0209,8.0209,8.0209,8.0209,8.0209,8.0209,8.0209,8.0209,8.0209,8.0209,8.0209,8.0209,8.0209,8.0209,8.0209,8.0209,8.0209,8.0209,8.0209,8.0209,8.0209,8.0209,8.0209,8.0209,8.0209,8.0209,8.0209,8.0209,8.0209,8.0209,8.0209,8.0209,8.0209,8.0209,8.0209,8.0209,8.0209,7.9837,7.916,7.7841,7.7164,7.6758,7.5946,7.5067,7.439,7.4536,7.3443,7.2191,7.236,7.1853,7.1289,7.1289,7.1289,7.1289,7.1289,7.1289,7.1289,7.1289,7.1289,7.1289,7.1289,7.1289,7.1289,7.1289,7.1289,7.1289,7.1289,7.1289,7.1289,7.1289,7.1289,7.1289,7.1289,7.1289,7.1289,7.1289,7.1289,7.1289,7.1289,7.1289,7.1289,7.1289,7.1289,7.1289,7.1289,7.1289,7.1289,7.1289,7.1289,7.1289,7.1289,7.1289,7.1289,7.1289,7.1289,7.1289,7.1289,7.1289,7.1289,7.1289,7.1289,7.1289,7.1289,7.1289,7.1289,7.1289,7.7333,7.7705,7.8077,7.845,7.8855,7.9228,7.9566,7.9938,8.0209,8.0209,8.0209,8.0209,8.0209,8.0209,8.0209,8.0209,8.0209,8.0209,8.0209,8.0209,8.0209,8.0209,8.0209,8.0209,8.0209,8.0209,8.0209,8.0209,8.0209,8.0209,8.0209,8.0209,8.0209,8.0209,8.0209,8.0209,8.0209,8.0209,8.0209,8.0209,8.0209,8.0209,8.0209,8.0209,8.0209,8.0141,7.9803,7.8991,7.7942,7.7164,7.6657,7.6251,7.5845,7.5202,7.4671,7.5033,7.4086,7.3003,7.3341,7.2665,7.1819,7.1819,7.1582,7.1289,7.1289,7.1289,7.1289,7.1289,7.1289,7.1289,7.1289,7.1289,7.1289,7.1289,7.1289,7.1289,7.1289,7.1289,7.1289,7.1289,7.1289,7.1289,7.1289,7.1289,7.1289,7.1289,7.1289,7.1289,7.1289,7.1289,7.1289,7.1289,7.1289,7.1289,7.1289,7.1289,7.1289,7.1289,7.1289,7.1289,7.1289,7.1289,7.1289,7.1289,7.1289,7.1289,7.1289,7.1289,7.1289,7.1289,7.1289,7.1289,7.1289,7.1289,7.1289,7.1289,7.8145,7.8686,7.916,7.9295,7.9295,7.9498,8.0107,8.0209,8.0209,8.0209,8.0209,8.0209,8.0209,8.0209,8.0209,8.0209,8.0209,8.0209,8.0209,8.0209,8.0209,8.0209,8.0209,8.0209,8.0209,8.0209,8.0209,8.0209,8.0209,8.0209,8.0209,8.0209,8.0209,8.0209,8.0209,8.0209,8.0209,8.0209,8.0209,8.0175,8.0073,8.0006,8.0006,7.987,7.9803,7.9735,7.9126,7.8044,7.6893,7.6758,7.6251,7.5709,7.5709,7.527,7.4931,7.5506,7.4728,7.3815,7.4424,7.351,7.2394,7.2394,7.1853,7.1289,7.1289,7.1289,7.1289,7.1289,7.1289,7.1289,7.1289,7.1289,7.1289,7.1289,7.1289,7.1289,7.1289,7.1289,7.1289,7.1289,7.1289,7.1289,7.1289,7.1289,7.1289,7.1289,7.1289,7.1289,7.1289,7.1289,7.1289,7.1289,7.1289,7.1289,7.1289,7.1289,7.1289,7.1289,7.1289,7.1289,7.1289,7.1289,7.1289,7.1289,7.1289,7.1289,7.1289,7.1289,7.1289,7.1289,7.1289,7.1289,7.1289,7.1289,7.1289,7.1289,7.8822,7.9034,7.9295,7.9938,8.004,8.0073,8.0175,8.0209,8.0209,8.0209,8.0209,8.0209,8.0209,8.0209,8.0209,8.0209,8.0209,8.0209,8.0209,8.0209,8.0209,8.0209,8.0209,8.0209,8.0209,8.0209,8.0209,8.0209,8.0209,8.0209,8.0209,8.0209,8.0209,8.0209,8.0209,8.0209,8.0209,8.0209,8.0209,8.0141,7.9532,7.9261,7.9194,7.8517,7.828,7.828,7.8179,7.7604,7.6792,7.6082,7.5777,7.5709,7.5709,7.5642,7.5574,7.5676,7.51,7.4492,7.4593,7.351,7.2394,7.2394,7.1853,7.1289,7.1289,7.1289,7.1289,7.1289,7.1289,7.1289,7.1289,7.1289,7.1289,7.1289,7.1289,7.1289,7.1289,7.1289,7.1289,7.1289,7.1289,7.1289,7.1289,7.1289,7.1289,7.1289,7.1289,7.1289,7.1289,7.1289,7.1289,7.1289,7.1289,7.1289,7.1289,7.1289,7.1289,7.1289,7.1289,7.1289,7.1289,7.1289,7.1289,7.1289,7.1289,7.1289,7.1289,7.1289,7.1289,7.1289,7.1289,7.1289,7.1289,7.1289,7.1289,7.1289,7.9058,7.9431,7.9837,8.0141,8.0209,8.0209,8.0209,8.0209,8.0209,8.0209,8.0209,8.0209,8.0209,8.0209,8.0209,8.0209,8.0209,8.0209,8.0209,8.0209,8.0209,8.0209,8.0209,8.0209,8.0209,8.0209,8.0209,8.0209,8.0209,8.0209,8.0209,8.0209,7.9972,7.96,7.96,7.9363,7.8957,7.8957,7.8957,7.8923,7.8619,7.8483,7.845,7.8111,7.8,7.7967,7.7536,7.6893,7.6183,7.5811,7.5709,7.5709,7.5709,7.5709,7.5709,7.5709,7.5473,7.5202,7.5202,7.4153,7.3003,7.3003,7.2157,7.1289,7.1289,7.1289,7.1289,7.1289,7.1289,7.1289,7.1289,7.1289,7.1289,7.1289,7.1289,7.1289,7.1289,7.1289,7.1289,7.1289,7.1289,7.1289,7.1289,7.1289,7.1289,7.1289,7.1289,7.1289,7.1289,7.1289,7.1289,7.1289,7.1289,7.1289,7.1289,7.1289,7.1289,7.1289,7.1289,7.1289,7.1289,7.1289,7.1289,7.1289,7.1289,7.1289,7.1289,7.1289,7.1289,7.1289,7.1289,7.1289,7.1289,7.1289,7.1289,7.1289]}]]